<?xml version="1.0" encoding="UTF-8" standalone="no" ?>
<gpx xmlns="http://www.topografix.com/GPX/1/1" xmlns:xsi="http://www.w3.org/2001/XMLSchema-instance" xsi:schemaLocation="http://www.topografix.com/GPX/1/1 http://www.topografix.com/GPX/1/1/gpx.xsd" version="1.1" creator="VisuGPX - https://www.visugpx.com">
  <metadata>
    <name>Gigaro -Cap Lardier - Cap Taillat</name>
    <desc><![CDATA[Au départ de la plage de Gigaro (Croix-Valmer), superbe randonnée en aller-retour jusqu\'au Cap Taillat]]></desc>
  </metadata>
  <trk>
    <name><![CDATA[2012-12-09 09:49]]></name>
    <trkseg>
      <trkpt lat="43.18191" lon="6.60233">
        <ele>40.1</ele>
        <time>2012-12-09T08:49:14Z</time>
      </trkpt>
      <trkpt lat="43.18187" lon="6.60237">
        <ele>51.3</ele>
        <time>2012-12-09T08:50:25Z</time>
      </trkpt>
      <trkpt lat="43.18183" lon="6.60242">
        <ele>50.6</ele>
        <time>2012-12-09T08:50:29Z</time>
      </trkpt>
      <trkpt lat="43.18181" lon="6.60248">
        <ele>51.6</ele>
        <time>2012-12-09T08:50:33Z</time>
      </trkpt>
      <trkpt lat="43.18178" lon="6.60252">
        <ele>49.6</ele>
        <time>2012-12-09T08:50:37Z</time>
      </trkpt>
      <trkpt lat="43.18172" lon="6.60251">
        <ele>51.3</ele>
        <time>2012-12-09T08:50:41Z</time>
      </trkpt>
      <trkpt lat="43.18168" lon="6.60248">
        <ele>50.8</ele>
        <time>2012-12-09T08:50:46Z</time>
      </trkpt>
      <trkpt lat="43.18164" lon="6.60243">
        <ele>50.1</ele>
        <time>2012-12-09T08:50:50Z</time>
      </trkpt>
      <trkpt lat="43.1816" lon="6.6024">
        <ele>49.3</ele>
        <time>2012-12-09T08:50:54Z</time>
      </trkpt>
      <trkpt lat="43.18155" lon="6.60238">
        <ele>49.5</ele>
        <time>2012-12-09T08:50:58Z</time>
      </trkpt>
      <trkpt lat="43.1815" lon="6.60238">
        <ele>48.2</ele>
        <time>2012-12-09T08:51:02Z</time>
      </trkpt>
      <trkpt lat="43.18146" lon="6.60241">
        <ele>49.3</ele>
        <time>2012-12-09T08:51:08Z</time>
      </trkpt>
      <trkpt lat="43.18143" lon="6.60246">
        <ele>46.6</ele>
        <time>2012-12-09T08:51:15Z</time>
      </trkpt>
      <trkpt lat="43.1814" lon="6.60251">
        <ele>46.2</ele>
        <time>2012-12-09T08:51:20Z</time>
      </trkpt>
      <trkpt lat="43.18135" lon="6.60256">
        <ele>44.1</ele>
        <time>2012-12-09T08:51:24Z</time>
      </trkpt>
      <trkpt lat="43.1813" lon="6.60259">
        <ele>43.7</ele>
        <time>2012-12-09T08:51:28Z</time>
      </trkpt>
      <trkpt lat="43.18126" lon="6.60261">
        <ele>44.6</ele>
        <time>2012-12-09T08:51:33Z</time>
      </trkpt>
      <trkpt lat="43.18121" lon="6.60262">
        <ele>43.8</ele>
        <time>2012-12-09T08:51:37Z</time>
      </trkpt>
      <trkpt lat="43.18114" lon="6.60265">
        <ele>42.8</ele>
        <time>2012-12-09T08:51:42Z</time>
      </trkpt>
      <trkpt lat="43.1811" lon="6.6027">
        <ele>42.5</ele>
        <time>2012-12-09T08:51:47Z</time>
      </trkpt>
      <trkpt lat="43.18107" lon="6.60276">
        <ele>42.6</ele>
        <time>2012-12-09T08:51:51Z</time>
      </trkpt>
      <trkpt lat="43.18103" lon="6.60279">
        <ele>42.6</ele>
        <time>2012-12-09T08:51:55Z</time>
      </trkpt>
      <trkpt lat="43.18098" lon="6.60279">
        <ele>44.1</ele>
        <time>2012-12-09T08:51:59Z</time>
      </trkpt>
      <trkpt lat="43.18092" lon="6.6028">
        <ele>45.3</ele>
        <time>2012-12-09T08:52:03Z</time>
      </trkpt>
      <trkpt lat="43.18087" lon="6.60283">
        <ele>46.8</ele>
        <time>2012-12-09T08:52:07Z</time>
      </trkpt>
      <trkpt lat="43.18083" lon="6.60287">
        <ele>47.7</ele>
        <time>2012-12-09T08:52:12Z</time>
      </trkpt>
      <trkpt lat="43.1808" lon="6.60292">
        <ele>46.4</ele>
        <time>2012-12-09T08:52:17Z</time>
      </trkpt>
      <trkpt lat="43.18075" lon="6.60295">
        <ele>45.5</ele>
        <time>2012-12-09T08:52:22Z</time>
      </trkpt>
      <trkpt lat="43.18071" lon="6.60296">
        <ele>44.5</ele>
        <time>2012-12-09T08:52:26Z</time>
      </trkpt>
      <trkpt lat="43.18066" lon="6.60296">
        <ele>44.6</ele>
        <time>2012-12-09T08:52:30Z</time>
      </trkpt>
      <trkpt lat="43.1806" lon="6.60297">
        <ele>44.6</ele>
        <time>2012-12-09T08:52:36Z</time>
      </trkpt>
      <trkpt lat="43.18057" lon="6.60302">
        <ele>46.3</ele>
        <time>2012-12-09T08:52:41Z</time>
      </trkpt>
      <trkpt lat="43.18054" lon="6.60308">
        <ele>48.4</ele>
        <time>2012-12-09T08:53:07Z</time>
      </trkpt>
      <trkpt lat="43.18051" lon="6.60313">
        <ele>50.6</ele>
        <time>2012-12-09T08:53:14Z</time>
      </trkpt>
      <trkpt lat="43.18046" lon="6.60311">
        <ele>51.5</ele>
        <time>2012-12-09T08:53:20Z</time>
      </trkpt>
      <trkpt lat="43.18042" lon="6.60308">
        <ele>52.5</ele>
        <time>2012-12-09T08:53:24Z</time>
      </trkpt>
      <trkpt lat="43.18037" lon="6.60305">
        <ele>51.7</ele>
        <time>2012-12-09T08:53:29Z</time>
      </trkpt>
      <trkpt lat="43.18033" lon="6.60303">
        <ele>54.3</ele>
        <time>2012-12-09T08:53:34Z</time>
      </trkpt>
      <trkpt lat="43.18027" lon="6.60304">
        <ele>54.5</ele>
        <time>2012-12-09T08:53:39Z</time>
      </trkpt>
      <trkpt lat="43.18023" lon="6.60304">
        <ele>54.1</ele>
        <time>2012-12-09T08:53:43Z</time>
      </trkpt>
      <trkpt lat="43.18018" lon="6.60304">
        <ele>55.4</ele>
        <time>2012-12-09T08:53:50Z</time>
      </trkpt>
      <trkpt lat="43.18014" lon="6.60297">
        <ele>57.4</ele>
        <time>2012-12-09T08:53:57Z</time>
      </trkpt>
      <trkpt lat="43.18011" lon="6.60292">
        <ele>57.7</ele>
        <time>2012-12-09T08:54:01Z</time>
      </trkpt>
      <trkpt lat="43.18007" lon="6.60289">
        <ele>59.9</ele>
        <time>2012-12-09T08:54:05Z</time>
      </trkpt>
      <trkpt lat="43.18002" lon="6.60287">
        <ele>58.2</ele>
        <time>2012-12-09T08:54:09Z</time>
      </trkpt>
      <trkpt lat="43.17998" lon="6.60285">
        <ele>58.1</ele>
        <time>2012-12-09T08:54:13Z</time>
      </trkpt>
      <trkpt lat="43.17993" lon="6.60285">
        <ele>58.4</ele>
        <time>2012-12-09T08:54:17Z</time>
      </trkpt>
      <trkpt lat="43.17988" lon="6.60283">
        <ele>57.4</ele>
        <time>2012-12-09T08:54:21Z</time>
      </trkpt>
      <trkpt lat="43.17983" lon="6.60281">
        <ele>58.4</ele>
        <time>2012-12-09T08:54:25Z</time>
      </trkpt>
      <trkpt lat="43.1798" lon="6.60286">
        <ele>58.8</ele>
        <time>2012-12-09T08:54:31Z</time>
      </trkpt>
      <trkpt lat="43.17975" lon="6.60288">
        <ele>58.4</ele>
        <time>2012-12-09T08:54:36Z</time>
      </trkpt>
      <trkpt lat="43.1797" lon="6.60288">
        <ele>56.5</ele>
        <time>2012-12-09T08:54:40Z</time>
      </trkpt>
      <trkpt lat="43.17964" lon="6.60289">
        <ele>57.3</ele>
        <time>2012-12-09T08:54:44Z</time>
      </trkpt>
      <trkpt lat="43.1796" lon="6.60291">
        <ele>58.1</ele>
        <time>2012-12-09T08:54:48Z</time>
      </trkpt>
      <trkpt lat="43.17954" lon="6.6029">
        <ele>58</ele>
        <time>2012-12-09T08:54:52Z</time>
      </trkpt>
      <trkpt lat="43.17949" lon="6.6029">
        <ele>56.4</ele>
        <time>2012-12-09T08:54:56Z</time>
      </trkpt>
      <trkpt lat="43.17944" lon="6.6029">
        <ele>55.7</ele>
        <time>2012-12-09T08:55:00Z</time>
      </trkpt>
      <trkpt lat="43.17939" lon="6.60292">
        <ele>53.8</ele>
        <time>2012-12-09T08:55:04Z</time>
      </trkpt>
      <trkpt lat="43.17933" lon="6.60294">
        <ele>53.4</ele>
        <time>2012-12-09T08:55:08Z</time>
      </trkpt>
      <trkpt lat="43.17928" lon="6.60294">
        <ele>54.2</ele>
        <time>2012-12-09T08:55:12Z</time>
      </trkpt>
      <trkpt lat="43.17922" lon="6.60294">
        <ele>55.5</ele>
        <time>2012-12-09T08:55:16Z</time>
      </trkpt>
      <trkpt lat="43.17919" lon="6.60299">
        <ele>58.5</ele>
        <time>2012-12-09T08:55:21Z</time>
      </trkpt>
      <trkpt lat="43.17914" lon="6.60299">
        <ele>57.2</ele>
        <time>2012-12-09T08:55:25Z</time>
      </trkpt>
      <trkpt lat="43.1791" lon="6.60297">
        <ele>59.2</ele>
        <time>2012-12-09T08:55:31Z</time>
      </trkpt>
      <trkpt lat="43.17906" lon="6.60293">
        <ele>58.9</ele>
        <time>2012-12-09T08:55:36Z</time>
      </trkpt>
      <trkpt lat="43.17902" lon="6.60296">
        <ele>60.6</ele>
        <time>2012-12-09T08:55:41Z</time>
      </trkpt>
      <trkpt lat="43.17899" lon="6.60301">
        <ele>60.7</ele>
        <time>2012-12-09T08:55:45Z</time>
      </trkpt>
      <trkpt lat="43.17896" lon="6.60306">
        <ele>62</ele>
        <time>2012-12-09T08:55:49Z</time>
      </trkpt>
      <trkpt lat="43.17894" lon="6.60312">
        <ele>63.3</ele>
        <time>2012-12-09T08:55:54Z</time>
      </trkpt>
      <trkpt lat="43.17891" lon="6.60318">
        <ele>62.9</ele>
        <time>2012-12-09T08:55:58Z</time>
      </trkpt>
      <trkpt lat="43.1789" lon="6.60324">
        <ele>65.6</ele>
        <time>2012-12-09T08:56:03Z</time>
      </trkpt>
      <trkpt lat="43.17885" lon="6.60328">
        <ele>66</ele>
        <time>2012-12-09T08:56:09Z</time>
      </trkpt>
      <trkpt lat="43.17881" lon="6.60331">
        <ele>67.1</ele>
        <time>2012-12-09T08:56:13Z</time>
      </trkpt>
      <trkpt lat="43.17876" lon="6.60334">
        <ele>68.1</ele>
        <time>2012-12-09T08:56:18Z</time>
      </trkpt>
      <trkpt lat="43.17871" lon="6.60334">
        <ele>67.9</ele>
        <time>2012-12-09T08:56:22Z</time>
      </trkpt>
      <trkpt lat="43.17866" lon="6.60336">
        <ele>67.8</ele>
        <time>2012-12-09T08:56:27Z</time>
      </trkpt>
      <trkpt lat="43.17861" lon="6.60339">
        <ele>65.4</ele>
        <time>2012-12-09T08:56:32Z</time>
      </trkpt>
      <trkpt lat="43.17858" lon="6.60343">
        <ele>67.2</ele>
        <time>2012-12-09T08:56:36Z</time>
      </trkpt>
      <trkpt lat="43.17854" lon="6.60347">
        <ele>68</ele>
        <time>2012-12-09T08:56:40Z</time>
      </trkpt>
      <trkpt lat="43.17852" lon="6.60354">
        <ele>68</ele>
        <time>2012-12-09T08:56:44Z</time>
      </trkpt>
      <trkpt lat="43.17851" lon="6.6036">
        <ele>68.6</ele>
        <time>2012-12-09T08:56:47Z</time>
      </trkpt>
      <trkpt lat="43.17848" lon="6.60365">
        <ele>68.1</ele>
        <time>2012-12-09T08:56:51Z</time>
      </trkpt>
      <trkpt lat="43.17846" lon="6.6037">
        <ele>68.8</ele>
        <time>2012-12-09T08:56:56Z</time>
      </trkpt>
      <trkpt lat="43.17842" lon="6.60375">
        <ele>67.9</ele>
        <time>2012-12-09T08:57:01Z</time>
      </trkpt>
      <trkpt lat="43.17839" lon="6.6038">
        <ele>67.3</ele>
        <time>2012-12-09T08:57:05Z</time>
      </trkpt>
      <trkpt lat="43.17834" lon="6.6038">
        <ele>67.3</ele>
        <time>2012-12-09T08:57:09Z</time>
      </trkpt>
      <trkpt lat="43.17829" lon="6.60378">
        <ele>68.3</ele>
        <time>2012-12-09T08:57:13Z</time>
      </trkpt>
      <trkpt lat="43.17824" lon="6.60378">
        <ele>69</ele>
        <time>2012-12-09T08:57:18Z</time>
      </trkpt>
      <trkpt lat="43.1782" lon="6.60379">
        <ele>66.8</ele>
        <time>2012-12-09T08:57:23Z</time>
      </trkpt>
      <trkpt lat="43.17815" lon="6.60378">
        <ele>65.6</ele>
        <time>2012-12-09T08:57:27Z</time>
      </trkpt>
      <trkpt lat="43.17809" lon="6.6038">
        <ele>64.5</ele>
        <time>2012-12-09T08:57:31Z</time>
      </trkpt>
      <trkpt lat="43.17804" lon="6.6038">
        <ele>63.8</ele>
        <time>2012-12-09T08:57:35Z</time>
      </trkpt>
      <trkpt lat="43.17799" lon="6.60381">
        <ele>62.3</ele>
        <time>2012-12-09T08:57:39Z</time>
      </trkpt>
      <trkpt lat="43.17794" lon="6.60382">
        <ele>61.3</ele>
        <time>2012-12-09T08:57:43Z</time>
      </trkpt>
      <trkpt lat="43.17789" lon="6.60384">
        <ele>60.1</ele>
        <time>2012-12-09T08:57:47Z</time>
      </trkpt>
      <trkpt lat="43.17784" lon="6.60386">
        <ele>60.6</ele>
        <time>2012-12-09T08:57:51Z</time>
      </trkpt>
      <trkpt lat="43.1778" lon="6.6039">
        <ele>61.4</ele>
        <time>2012-12-09T08:57:55Z</time>
      </trkpt>
      <trkpt lat="43.17776" lon="6.60392">
        <ele>64.8</ele>
        <time>2012-12-09T08:58:01Z</time>
      </trkpt>
      <trkpt lat="43.17771" lon="6.60395">
        <ele>64.9</ele>
        <time>2012-12-09T08:58:06Z</time>
      </trkpt>
      <trkpt lat="43.17767" lon="6.60398">
        <ele>63.6</ele>
        <time>2012-12-09T08:58:11Z</time>
      </trkpt>
      <trkpt lat="43.17763" lon="6.60402">
        <ele>59.6</ele>
        <time>2012-12-09T08:58:17Z</time>
      </trkpt>
      <trkpt lat="43.17759" lon="6.60406">
        <ele>60.6</ele>
        <time>2012-12-09T08:58:35Z</time>
      </trkpt>
      <trkpt lat="43.17755" lon="6.6041">
        <ele>58.1</ele>
        <time>2012-12-09T08:58:44Z</time>
      </trkpt>
      <trkpt lat="43.17753" lon="6.60416">
        <ele>56.1</ele>
        <time>2012-12-09T08:58:48Z</time>
      </trkpt>
      <trkpt lat="43.1775" lon="6.60422">
        <ele>54.1</ele>
        <time>2012-12-09T08:58:52Z</time>
      </trkpt>
      <trkpt lat="43.17745" lon="6.60425">
        <ele>54.8</ele>
        <time>2012-12-09T08:58:56Z</time>
      </trkpt>
      <trkpt lat="43.1774" lon="6.60426">
        <ele>57.6</ele>
        <time>2012-12-09T08:59:00Z</time>
      </trkpt>
      <trkpt lat="43.17734" lon="6.60424">
        <ele>60.3</ele>
        <time>2012-12-09T08:59:05Z</time>
      </trkpt>
      <trkpt lat="43.1773" lon="6.60419">
        <ele>59.7</ele>
        <time>2012-12-09T08:59:09Z</time>
      </trkpt>
      <trkpt lat="43.17725" lon="6.60416">
        <ele>59.9</ele>
        <time>2012-12-09T08:59:13Z</time>
      </trkpt>
      <trkpt lat="43.17721" lon="6.60412">
        <ele>58.5</ele>
        <time>2012-12-09T08:59:17Z</time>
      </trkpt>
      <trkpt lat="43.17716" lon="6.60409">
        <ele>58.4</ele>
        <time>2012-12-09T08:59:21Z</time>
      </trkpt>
      <trkpt lat="43.17711" lon="6.60407">
        <ele>59.1</ele>
        <time>2012-12-09T08:59:25Z</time>
      </trkpt>
      <trkpt lat="43.17707" lon="6.60409">
        <ele>59.6</ele>
        <time>2012-12-09T08:59:29Z</time>
      </trkpt>
      <trkpt lat="43.17702" lon="6.60412">
        <ele>57.2</ele>
        <time>2012-12-09T08:59:33Z</time>
      </trkpt>
      <trkpt lat="43.17698" lon="6.60414">
        <ele>56.2</ele>
        <time>2012-12-09T08:59:37Z</time>
      </trkpt>
      <trkpt lat="43.17694" lon="6.60418">
        <ele>56.3</ele>
        <time>2012-12-09T08:59:42Z</time>
      </trkpt>
      <trkpt lat="43.1769" lon="6.60424">
        <ele>55.7</ele>
        <time>2012-12-09T08:59:46Z</time>
      </trkpt>
      <trkpt lat="43.17688" lon="6.60429">
        <ele>54.4</ele>
        <time>2012-12-09T08:59:49Z</time>
      </trkpt>
      <trkpt lat="43.17685" lon="6.60435">
        <ele>54.4</ele>
        <time>2012-12-09T08:59:53Z</time>
      </trkpt>
      <trkpt lat="43.17682" lon="6.6044">
        <ele>53.4</ele>
        <time>2012-12-09T08:59:57Z</time>
      </trkpt>
      <trkpt lat="43.17679" lon="6.60445">
        <ele>52.4</ele>
        <time>2012-12-09T09:00:00Z</time>
      </trkpt>
      <trkpt lat="43.17673" lon="6.60445">
        <ele>50.5</ele>
        <time>2012-12-09T09:00:06Z</time>
      </trkpt>
      <trkpt lat="43.17669" lon="6.60446">
        <ele>46.1</ele>
        <time>2012-12-09T09:00:12Z</time>
      </trkpt>
      <trkpt lat="43.17665" lon="6.60451">
        <ele>46.1</ele>
        <time>2012-12-09T09:00:16Z</time>
      </trkpt>
      <trkpt lat="43.17662" lon="6.60456">
        <ele>44.9</ele>
        <time>2012-12-09T09:00:20Z</time>
      </trkpt>
      <trkpt lat="43.17658" lon="6.60458">
        <ele>44.4</ele>
        <time>2012-12-09T09:00:24Z</time>
      </trkpt>
      <trkpt lat="43.17654" lon="6.60454">
        <ele>51.8</ele>
        <time>2012-12-09T09:01:09Z</time>
      </trkpt>
      <trkpt lat="43.17648" lon="6.60454">
        <ele>50.4</ele>
        <time>2012-12-09T09:01:14Z</time>
      </trkpt>
      <trkpt lat="43.17642" lon="6.60454">
        <ele>49.2</ele>
        <time>2012-12-09T09:01:18Z</time>
      </trkpt>
      <trkpt lat="43.17638" lon="6.60452">
        <ele>50.3</ele>
        <time>2012-12-09T09:01:22Z</time>
      </trkpt>
      <trkpt lat="43.17632" lon="6.60451">
        <ele>49.5</ele>
        <time>2012-12-09T09:01:27Z</time>
      </trkpt>
      <trkpt lat="43.17628" lon="6.60448">
        <ele>49.8</ele>
        <time>2012-12-09T09:01:32Z</time>
      </trkpt>
      <trkpt lat="43.17623" lon="6.60449">
        <ele>52.5</ele>
        <time>2012-12-09T09:01:37Z</time>
      </trkpt>
      <trkpt lat="43.17618" lon="6.6045">
        <ele>51.5</ele>
        <time>2012-12-09T09:01:41Z</time>
      </trkpt>
      <trkpt lat="43.17613" lon="6.60451">
        <ele>52.8</ele>
        <time>2012-12-09T09:01:45Z</time>
      </trkpt>
      <trkpt lat="43.17608" lon="6.60452">
        <ele>52.8</ele>
        <time>2012-12-09T09:01:49Z</time>
      </trkpt>
      <trkpt lat="43.17603" lon="6.60452">
        <ele>55.5</ele>
        <time>2012-12-09T09:01:54Z</time>
      </trkpt>
      <trkpt lat="43.17599" lon="6.60454">
        <ele>56.8</ele>
        <time>2012-12-09T09:02:01Z</time>
      </trkpt>
      <trkpt lat="43.17594" lon="6.60455">
        <ele>56.3</ele>
        <time>2012-12-09T09:02:06Z</time>
      </trkpt>
      <trkpt lat="43.1759" lon="6.60457">
        <ele>55.4</ele>
        <time>2012-12-09T09:02:12Z</time>
      </trkpt>
      <trkpt lat="43.17584" lon="6.60458">
        <ele>52.5</ele>
        <time>2012-12-09T09:02:17Z</time>
      </trkpt>
      <trkpt lat="43.17579" lon="6.60458">
        <ele>53.1</ele>
        <time>2012-12-09T09:02:22Z</time>
      </trkpt>
      <trkpt lat="43.17573" lon="6.60458">
        <ele>52.8</ele>
        <time>2012-12-09T09:02:27Z</time>
      </trkpt>
      <trkpt lat="43.17569" lon="6.60461">
        <ele>52.2</ele>
        <time>2012-12-09T09:02:33Z</time>
      </trkpt>
      <trkpt lat="43.17566" lon="6.60465">
        <ele>52.5</ele>
        <time>2012-12-09T09:02:38Z</time>
      </trkpt>
      <trkpt lat="43.17563" lon="6.60472">
        <ele>47.9</ele>
        <time>2012-12-09T09:02:42Z</time>
      </trkpt>
      <trkpt lat="43.1756" lon="6.60479">
        <ele>47.5</ele>
        <time>2012-12-09T09:02:46Z</time>
      </trkpt>
      <trkpt lat="43.17555" lon="6.6048">
        <ele>49</ele>
        <time>2012-12-09T09:02:50Z</time>
      </trkpt>
      <trkpt lat="43.17551" lon="6.60475">
        <ele>51</ele>
        <time>2012-12-09T09:02:54Z</time>
      </trkpt>
      <trkpt lat="43.17547" lon="6.60472">
        <ele>50.2</ele>
        <time>2012-12-09T09:02:59Z</time>
      </trkpt>
      <trkpt lat="43.17541" lon="6.60472">
        <ele>49.1</ele>
        <time>2012-12-09T09:03:04Z</time>
      </trkpt>
      <trkpt lat="43.17536" lon="6.60471">
        <ele>48.2</ele>
        <time>2012-12-09T09:03:08Z</time>
      </trkpt>
      <trkpt lat="43.17534" lon="6.60466">
        <ele>50</ele>
        <time>2012-12-09T09:03:12Z</time>
      </trkpt>
      <trkpt lat="43.17532" lon="6.60459">
        <ele>49.4</ele>
        <time>2012-12-09T09:03:15Z</time>
      </trkpt>
      <trkpt lat="43.1753" lon="6.60453">
        <ele>49.2</ele>
        <time>2012-12-09T09:03:19Z</time>
      </trkpt>
      <trkpt lat="43.17528" lon="6.60447">
        <ele>48.8</ele>
        <time>2012-12-09T09:03:24Z</time>
      </trkpt>
      <trkpt lat="43.17524" lon="6.60443">
        <ele>50.8</ele>
        <time>2012-12-09T09:03:28Z</time>
      </trkpt>
      <trkpt lat="43.17519" lon="6.60441">
        <ele>52</ele>
        <time>2012-12-09T09:03:32Z</time>
      </trkpt>
      <trkpt lat="43.17516" lon="6.60437">
        <ele>53.9</ele>
        <time>2012-12-09T09:03:37Z</time>
      </trkpt>
      <trkpt lat="43.17515" lon="6.6043">
        <ele>54.9</ele>
        <time>2012-12-09T09:03:41Z</time>
      </trkpt>
      <trkpt lat="43.17511" lon="6.60425">
        <ele>54.5</ele>
        <time>2012-12-09T09:03:46Z</time>
      </trkpt>
      <trkpt lat="43.17506" lon="6.60423">
        <ele>52.7</ele>
        <time>2012-12-09T09:03:51Z</time>
      </trkpt>
      <trkpt lat="43.17502" lon="6.60418">
        <ele>54</ele>
        <time>2012-12-09T09:03:55Z</time>
      </trkpt>
      <trkpt lat="43.17499" lon="6.60412">
        <ele>55</ele>
        <time>2012-12-09T09:03:59Z</time>
      </trkpt>
      <trkpt lat="43.17497" lon="6.60406">
        <ele>54.4</ele>
        <time>2012-12-09T09:04:03Z</time>
      </trkpt>
      <trkpt lat="43.17496" lon="6.604">
        <ele>53.3</ele>
        <time>2012-12-09T09:04:07Z</time>
      </trkpt>
      <trkpt lat="43.17494" lon="6.60392">
        <ele>53</ele>
        <time>2012-12-09T09:04:11Z</time>
      </trkpt>
      <trkpt lat="43.17492" lon="6.60385">
        <ele>52.3</ele>
        <time>2012-12-09T09:04:15Z</time>
      </trkpt>
      <trkpt lat="43.17492" lon="6.60378">
        <ele>50.4</ele>
        <time>2012-12-09T09:04:19Z</time>
      </trkpt>
      <trkpt lat="43.1749" lon="6.60371">
        <ele>50.6</ele>
        <time>2012-12-09T09:04:23Z</time>
      </trkpt>
      <trkpt lat="43.17488" lon="6.60365">
        <ele>50.9</ele>
        <time>2012-12-09T09:04:27Z</time>
      </trkpt>
      <trkpt lat="43.17486" lon="6.60358">
        <ele>50.8</ele>
        <time>2012-12-09T09:04:31Z</time>
      </trkpt>
      <trkpt lat="43.17483" lon="6.60352">
        <ele>51.4</ele>
        <time>2012-12-09T09:04:35Z</time>
      </trkpt>
      <trkpt lat="43.17482" lon="6.60345">
        <ele>52.4</ele>
        <time>2012-12-09T09:04:40Z</time>
      </trkpt>
      <trkpt lat="43.17481" lon="6.60338">
        <ele>52.7</ele>
        <time>2012-12-09T09:04:45Z</time>
      </trkpt>
      <trkpt lat="43.17481" lon="6.60331">
        <ele>54.3</ele>
        <time>2012-12-09T09:04:51Z</time>
      </trkpt>
      <trkpt lat="43.17481" lon="6.60323">
        <ele>55.3</ele>
        <time>2012-12-09T09:04:56Z</time>
      </trkpt>
      <trkpt lat="43.17479" lon="6.60317">
        <ele>54.4</ele>
        <time>2012-12-09T09:05:02Z</time>
      </trkpt>
      <trkpt lat="43.17476" lon="6.60311">
        <ele>54.6</ele>
        <time>2012-12-09T09:05:07Z</time>
      </trkpt>
      <trkpt lat="43.1747" lon="6.60309">
        <ele>55.7</ele>
        <time>2012-12-09T09:05:12Z</time>
      </trkpt>
      <trkpt lat="43.17466" lon="6.60308">
        <ele>54.9</ele>
        <time>2012-12-09T09:05:16Z</time>
      </trkpt>
      <trkpt lat="43.17461" lon="6.60306">
        <ele>55.2</ele>
        <time>2012-12-09T09:05:21Z</time>
      </trkpt>
      <trkpt lat="43.17456" lon="6.60304">
        <ele>57</ele>
        <time>2012-12-09T09:05:28Z</time>
      </trkpt>
      <trkpt lat="43.17451" lon="6.60306">
        <ele>58.5</ele>
        <time>2012-12-09T09:05:34Z</time>
      </trkpt>
      <trkpt lat="43.17447" lon="6.60309">
        <ele>59.4</ele>
        <time>2012-12-09T09:05:42Z</time>
      </trkpt>
      <trkpt lat="43.17442" lon="6.60312">
        <ele>62.4</ele>
        <time>2012-12-09T09:05:48Z</time>
      </trkpt>
      <trkpt lat="43.17437" lon="6.60315">
        <ele>64.5</ele>
        <time>2012-12-09T09:05:54Z</time>
      </trkpt>
      <trkpt lat="43.17432" lon="6.60316">
        <ele>68.2</ele>
        <time>2012-12-09T09:05:59Z</time>
      </trkpt>
      <trkpt lat="43.17427" lon="6.60317">
        <ele>66.2</ele>
        <time>2012-12-09T09:06:03Z</time>
      </trkpt>
      <trkpt lat="43.17423" lon="6.6032">
        <ele>65</ele>
        <time>2012-12-09T09:06:07Z</time>
      </trkpt>
      <trkpt lat="43.17418" lon="6.60324">
        <ele>63.7</ele>
        <time>2012-12-09T09:06:12Z</time>
      </trkpt>
      <trkpt lat="43.17415" lon="6.60329">
        <ele>64.2</ele>
        <time>2012-12-09T09:06:17Z</time>
      </trkpt>
      <trkpt lat="43.17413" lon="6.60335">
        <ele>64.9</ele>
        <time>2012-12-09T09:06:22Z</time>
      </trkpt>
      <trkpt lat="43.1741" lon="6.60341">
        <ele>64.1</ele>
        <time>2012-12-09T09:06:27Z</time>
      </trkpt>
      <trkpt lat="43.17407" lon="6.60347">
        <ele>62.1</ele>
        <time>2012-12-09T09:06:34Z</time>
      </trkpt>
      <trkpt lat="43.17407" lon="6.60355">
        <ele>61.5</ele>
        <time>2012-12-09T09:06:38Z</time>
      </trkpt>
      <trkpt lat="43.17407" lon="6.60362">
        <ele>61.4</ele>
        <time>2012-12-09T09:06:42Z</time>
      </trkpt>
      <trkpt lat="43.17406" lon="6.60369">
        <ele>61.3</ele>
        <time>2012-12-09T09:06:46Z</time>
      </trkpt>
      <trkpt lat="43.17403" lon="6.60374">
        <ele>61.2</ele>
        <time>2012-12-09T09:06:51Z</time>
      </trkpt>
      <trkpt lat="43.17401" lon="6.60381">
        <ele>60.9</ele>
        <time>2012-12-09T09:06:57Z</time>
      </trkpt>
      <trkpt lat="43.17401" lon="6.60388">
        <ele>62.1</ele>
        <time>2012-12-09T09:07:31Z</time>
      </trkpt>
      <trkpt lat="43.17399" lon="6.60394">
        <ele>61.5</ele>
        <time>2012-12-09T09:07:35Z</time>
      </trkpt>
      <trkpt lat="43.17397" lon="6.604">
        <ele>62.8</ele>
        <time>2012-12-09T09:07:39Z</time>
      </trkpt>
      <trkpt lat="43.17395" lon="6.60406">
        <ele>63.7</ele>
        <time>2012-12-09T09:07:47Z</time>
      </trkpt>
      <trkpt lat="43.17393" lon="6.60412">
        <ele>66</ele>
        <time>2012-12-09T09:07:55Z</time>
      </trkpt>
      <trkpt lat="43.17392" lon="6.60418">
        <ele>69.6</ele>
        <time>2012-12-09T09:08:03Z</time>
      </trkpt>
      <trkpt lat="43.1739" lon="6.60424">
        <ele>70</ele>
        <time>2012-12-09T09:08:07Z</time>
      </trkpt>
      <trkpt lat="43.1739" lon="6.60431">
        <ele>68.5</ele>
        <time>2012-12-09T09:08:14Z</time>
      </trkpt>
      <trkpt lat="43.1739" lon="6.60438">
        <ele>66.7</ele>
        <time>2012-12-09T09:08:24Z</time>
      </trkpt>
      <trkpt lat="43.1739" lon="6.60444">
        <ele>65.5</ele>
        <time>2012-12-09T09:08:28Z</time>
      </trkpt>
      <trkpt lat="43.1739" lon="6.60451">
        <ele>64.3</ele>
        <time>2012-12-09T09:08:49Z</time>
      </trkpt>
      <trkpt lat="43.17388" lon="6.60457">
        <ele>61.9</ele>
        <time>2012-12-09T09:08:59Z</time>
      </trkpt>
      <trkpt lat="43.17386" lon="6.60463">
        <ele>64.3</ele>
        <time>2012-12-09T09:09:03Z</time>
      </trkpt>
      <trkpt lat="43.17387" lon="6.6047">
        <ele>60.4</ele>
        <time>2012-12-09T09:09:13Z</time>
      </trkpt>
      <trkpt lat="43.17386" lon="6.60476">
        <ele>60</ele>
        <time>2012-12-09T09:09:24Z</time>
      </trkpt>
      <trkpt lat="43.17386" lon="6.60484">
        <ele>60.9</ele>
        <time>2012-12-09T09:09:28Z</time>
      </trkpt>
      <trkpt lat="43.17388" lon="6.6049">
        <ele>60.6</ele>
        <time>2012-12-09T09:09:32Z</time>
      </trkpt>
      <trkpt lat="43.17388" lon="6.60498">
        <ele>60.8</ele>
        <time>2012-12-09T09:09:37Z</time>
      </trkpt>
      <trkpt lat="43.1739" lon="6.60504">
        <ele>60.8</ele>
        <time>2012-12-09T09:09:42Z</time>
      </trkpt>
      <trkpt lat="43.17387" lon="6.6051">
        <ele>57.2</ele>
        <time>2012-12-09T09:09:47Z</time>
      </trkpt>
      <trkpt lat="43.17385" lon="6.60516">
        <ele>55.8</ele>
        <time>2012-12-09T09:09:51Z</time>
      </trkpt>
      <trkpt lat="43.17383" lon="6.60522">
        <ele>53.7</ele>
        <time>2012-12-09T09:09:56Z</time>
      </trkpt>
      <trkpt lat="43.17381" lon="6.6053">
        <ele>52.9</ele>
        <time>2012-12-09T09:10:01Z</time>
      </trkpt>
      <trkpt lat="43.17379" lon="6.60536">
        <ele>51.9</ele>
        <time>2012-12-09T09:10:05Z</time>
      </trkpt>
      <trkpt lat="43.17378" lon="6.60542">
        <ele>52</ele>
        <time>2012-12-09T09:10:09Z</time>
      </trkpt>
      <trkpt lat="43.17376" lon="6.60549">
        <ele>50.7</ele>
        <time>2012-12-09T09:10:13Z</time>
      </trkpt>
      <trkpt lat="43.17377" lon="6.60556">
        <ele>49.4</ele>
        <time>2012-12-09T09:10:18Z</time>
      </trkpt>
      <trkpt lat="43.17376" lon="6.60562">
        <ele>49</ele>
        <time>2012-12-09T09:10:22Z</time>
      </trkpt>
      <trkpt lat="43.17375" lon="6.60569">
        <ele>46.3</ele>
        <time>2012-12-09T09:10:26Z</time>
      </trkpt>
      <trkpt lat="43.17374" lon="6.60577">
        <ele>46.5</ele>
        <time>2012-12-09T09:10:30Z</time>
      </trkpt>
      <trkpt lat="43.17374" lon="6.60583">
        <ele>47.1</ele>
        <time>2012-12-09T09:10:34Z</time>
      </trkpt>
      <trkpt lat="43.17375" lon="6.6059">
        <ele>47.6</ele>
        <time>2012-12-09T09:10:38Z</time>
      </trkpt>
      <trkpt lat="43.17375" lon="6.60596">
        <ele>48.5</ele>
        <time>2012-12-09T09:10:42Z</time>
      </trkpt>
      <trkpt lat="43.17376" lon="6.60603">
        <ele>47.4</ele>
        <time>2012-12-09T09:10:49Z</time>
      </trkpt>
      <trkpt lat="43.17378" lon="6.60608">
        <ele>50.6</ele>
        <time>2012-12-09T09:10:58Z</time>
      </trkpt>
      <trkpt lat="43.17381" lon="6.60612">
        <ele>52.3</ele>
        <time>2012-12-09T09:11:10Z</time>
      </trkpt>
      <trkpt lat="43.17379" lon="6.60619">
        <ele>53.9</ele>
        <time>2012-12-09T09:11:19Z</time>
      </trkpt>
      <trkpt lat="43.17376" lon="6.60622">
        <ele>52.5</ele>
        <time>2012-12-09T09:11:34Z</time>
      </trkpt>
      <trkpt lat="43.17373" lon="6.60628">
        <ele>48.6</ele>
        <time>2012-12-09T09:11:44Z</time>
      </trkpt>
      <trkpt lat="43.17371" lon="6.60634">
        <ele>48.4</ele>
        <time>2012-12-09T09:11:51Z</time>
      </trkpt>
      <trkpt lat="43.17367" lon="6.60639">
        <ele>48.3</ele>
        <time>2012-12-09T09:11:55Z</time>
      </trkpt>
      <trkpt lat="43.17365" lon="6.60646">
        <ele>48.6</ele>
        <time>2012-12-09T09:11:59Z</time>
      </trkpt>
      <trkpt lat="43.17364" lon="6.60652">
        <ele>48.2</ele>
        <time>2012-12-09T09:12:02Z</time>
      </trkpt>
      <trkpt lat="43.17365" lon="6.60661">
        <ele>49</ele>
        <time>2012-12-09T09:12:06Z</time>
      </trkpt>
      <trkpt lat="43.17366" lon="6.60667">
        <ele>50.2</ele>
        <time>2012-12-09T09:12:12Z</time>
      </trkpt>
      <trkpt lat="43.17362" lon="6.60671">
        <ele>48.1</ele>
        <time>2012-12-09T09:12:16Z</time>
      </trkpt>
      <trkpt lat="43.1736" lon="6.60678">
        <ele>48.6</ele>
        <time>2012-12-09T09:12:20Z</time>
      </trkpt>
      <trkpt lat="43.17358" lon="6.60685">
        <ele>49.2</ele>
        <time>2012-12-09T09:12:24Z</time>
      </trkpt>
      <trkpt lat="43.17358" lon="6.60692">
        <ele>49.8</ele>
        <time>2012-12-09T09:12:28Z</time>
      </trkpt>
      <trkpt lat="43.17358" lon="6.60699">
        <ele>49.1</ele>
        <time>2012-12-09T09:12:32Z</time>
      </trkpt>
      <trkpt lat="43.17356" lon="6.60705">
        <ele>49</ele>
        <time>2012-12-09T09:12:42Z</time>
      </trkpt>
      <trkpt lat="43.17355" lon="6.60712">
        <ele>49.7</ele>
        <time>2012-12-09T09:12:47Z</time>
      </trkpt>
      <trkpt lat="43.17352" lon="6.60718">
        <ele>49.3</ele>
        <time>2012-12-09T09:12:52Z</time>
      </trkpt>
      <trkpt lat="43.1735" lon="6.60725">
        <ele>49.4</ele>
        <time>2012-12-09T09:12:56Z</time>
      </trkpt>
      <trkpt lat="43.17349" lon="6.60731">
        <ele>50.3</ele>
        <time>2012-12-09T09:13:00Z</time>
      </trkpt>
      <trkpt lat="43.17347" lon="6.60738">
        <ele>50</ele>
        <time>2012-12-09T09:13:04Z</time>
      </trkpt>
      <trkpt lat="43.17344" lon="6.60745">
        <ele>47.8</ele>
        <time>2012-12-09T09:13:08Z</time>
      </trkpt>
      <trkpt lat="43.17343" lon="6.60751">
        <ele>48.2</ele>
        <time>2012-12-09T09:13:12Z</time>
      </trkpt>
      <trkpt lat="43.1734" lon="6.60756">
        <ele>47.3</ele>
        <time>2012-12-09T09:13:16Z</time>
      </trkpt>
      <trkpt lat="43.17336" lon="6.60761">
        <ele>46.8</ele>
        <time>2012-12-09T09:13:20Z</time>
      </trkpt>
      <trkpt lat="43.17334" lon="6.60768">
        <ele>46.4</ele>
        <time>2012-12-09T09:13:25Z</time>
      </trkpt>
      <trkpt lat="43.17331" lon="6.60773">
        <ele>46.9</ele>
        <time>2012-12-09T09:13:29Z</time>
      </trkpt>
      <trkpt lat="43.17331" lon="6.60779">
        <ele>48.5</ele>
        <time>2012-12-09T09:13:34Z</time>
      </trkpt>
      <trkpt lat="43.17329" lon="6.60786">
        <ele>50.4</ele>
        <time>2012-12-09T09:13:40Z</time>
      </trkpt>
      <trkpt lat="43.17327" lon="6.60792">
        <ele>50.8</ele>
        <time>2012-12-09T09:13:45Z</time>
      </trkpt>
      <trkpt lat="43.17328" lon="6.60799">
        <ele>51.2</ele>
        <time>2012-12-09T09:13:51Z</time>
      </trkpt>
      <trkpt lat="43.17326" lon="6.60806">
        <ele>51.5</ele>
        <time>2012-12-09T09:13:56Z</time>
      </trkpt>
      <trkpt lat="43.17325" lon="6.60812">
        <ele>52.1</ele>
        <time>2012-12-09T09:14:00Z</time>
      </trkpt>
      <trkpt lat="43.17322" lon="6.60817">
        <ele>51.8</ele>
        <time>2012-12-09T09:14:05Z</time>
      </trkpt>
      <trkpt lat="43.17323" lon="6.60823">
        <ele>51.9</ele>
        <time>2012-12-09T09:14:28Z</time>
      </trkpt>
      <trkpt lat="43.17321" lon="6.60829">
        <ele>50.9</ele>
        <time>2012-12-09T09:14:41Z</time>
      </trkpt>
      <trkpt lat="43.17318" lon="6.60824">
        <ele>51.7</ele>
        <time>2012-12-09T09:14:46Z</time>
      </trkpt>
      <trkpt lat="43.17315" lon="6.60819">
        <ele>51.3</ele>
        <time>2012-12-09T09:14:50Z</time>
      </trkpt>
      <trkpt lat="43.1731" lon="6.6082">
        <ele>51.7</ele>
        <time>2012-12-09T09:14:56Z</time>
      </trkpt>
      <trkpt lat="43.17306" lon="6.60822">
        <ele>50</ele>
        <time>2012-12-09T09:15:33Z</time>
      </trkpt>
      <trkpt lat="43.17303" lon="6.60829">
        <ele>49.2</ele>
        <time>2012-12-09T09:15:37Z</time>
      </trkpt>
      <trkpt lat="43.17299" lon="6.60834">
        <ele>49.3</ele>
        <time>2012-12-09T09:15:41Z</time>
      </trkpt>
      <trkpt lat="43.17296" lon="6.60838">
        <ele>49.7</ele>
        <time>2012-12-09T09:15:45Z</time>
      </trkpt>
      <trkpt lat="43.17291" lon="6.60841">
        <ele>48</ele>
        <time>2012-12-09T09:15:49Z</time>
      </trkpt>
      <trkpt lat="43.17286" lon="6.6084">
        <ele>47.7</ele>
        <time>2012-12-09T09:15:53Z</time>
      </trkpt>
      <trkpt lat="43.1728" lon="6.6084">
        <ele>48.4</ele>
        <time>2012-12-09T09:15:57Z</time>
      </trkpt>
      <trkpt lat="43.17275" lon="6.60839">
        <ele>49.1</ele>
        <time>2012-12-09T09:16:10Z</time>
      </trkpt>
      <trkpt lat="43.1727" lon="6.6084">
        <ele>49.9</ele>
        <time>2012-12-09T09:16:14Z</time>
      </trkpt>
      <trkpt lat="43.17264" lon="6.60843">
        <ele>49.5</ele>
        <time>2012-12-09T09:16:18Z</time>
      </trkpt>
      <trkpt lat="43.1726" lon="6.60845">
        <ele>48.8</ele>
        <time>2012-12-09T09:16:22Z</time>
      </trkpt>
      <trkpt lat="43.17254" lon="6.60846">
        <ele>48</ele>
        <time>2012-12-09T09:16:27Z</time>
      </trkpt>
      <trkpt lat="43.1725" lon="6.60849">
        <ele>47.8</ele>
        <time>2012-12-09T09:16:31Z</time>
      </trkpt>
      <trkpt lat="43.17245" lon="6.60851">
        <ele>47.2</ele>
        <time>2012-12-09T09:16:35Z</time>
      </trkpt>
      <trkpt lat="43.17241" lon="6.60853">
        <ele>46.4</ele>
        <time>2012-12-09T09:16:39Z</time>
      </trkpt>
      <trkpt lat="43.17237" lon="6.60857">
        <ele>46.5</ele>
        <time>2012-12-09T09:16:44Z</time>
      </trkpt>
      <trkpt lat="43.17233" lon="6.60861">
        <ele>47.4</ele>
        <time>2012-12-09T09:16:49Z</time>
      </trkpt>
      <trkpt lat="43.17228" lon="6.60864">
        <ele>47.7</ele>
        <time>2012-12-09T09:16:54Z</time>
      </trkpt>
      <trkpt lat="43.17224" lon="6.60868">
        <ele>48.3</ele>
        <time>2012-12-09T09:16:59Z</time>
      </trkpt>
      <trkpt lat="43.17223" lon="6.60874">
        <ele>50.2</ele>
        <time>2012-12-09T09:17:06Z</time>
      </trkpt>
      <trkpt lat="43.17218" lon="6.60876">
        <ele>51.2</ele>
        <time>2012-12-09T09:17:12Z</time>
      </trkpt>
      <trkpt lat="43.17213" lon="6.60878">
        <ele>51.1</ele>
        <time>2012-12-09T09:17:16Z</time>
      </trkpt>
      <trkpt lat="43.17208" lon="6.60879">
        <ele>49.9</ele>
        <time>2012-12-09T09:17:19Z</time>
      </trkpt>
      <trkpt lat="43.17203" lon="6.60879">
        <ele>49.9</ele>
        <time>2012-12-09T09:17:23Z</time>
      </trkpt>
      <trkpt lat="43.17197" lon="6.60878">
        <ele>50.9</ele>
        <time>2012-12-09T09:17:29Z</time>
      </trkpt>
      <trkpt lat="43.17192" lon="6.60876">
        <ele>50.3</ele>
        <time>2012-12-09T09:17:33Z</time>
      </trkpt>
      <trkpt lat="43.17187" lon="6.60879">
        <ele>49.3</ele>
        <time>2012-12-09T09:17:38Z</time>
      </trkpt>
      <trkpt lat="43.17182" lon="6.60877">
        <ele>51.5</ele>
        <time>2012-12-09T09:17:43Z</time>
      </trkpt>
      <trkpt lat="43.17178" lon="6.60873">
        <ele>52.3</ele>
        <time>2012-12-09T09:17:47Z</time>
      </trkpt>
      <trkpt lat="43.17173" lon="6.60873">
        <ele>51.1</ele>
        <time>2012-12-09T09:17:51Z</time>
      </trkpt>
      <trkpt lat="43.17168" lon="6.60874">
        <ele>50.6</ele>
        <time>2012-12-09T09:17:55Z</time>
      </trkpt>
      <trkpt lat="43.17163" lon="6.60873">
        <ele>51.1</ele>
        <time>2012-12-09T09:17:59Z</time>
      </trkpt>
      <trkpt lat="43.17158" lon="6.6087">
        <ele>52</ele>
        <time>2012-12-09T09:18:03Z</time>
      </trkpt>
      <trkpt lat="43.17154" lon="6.60865">
        <ele>53</ele>
        <time>2012-12-09T09:18:14Z</time>
      </trkpt>
      <trkpt lat="43.17151" lon="6.6086">
        <ele>53.6</ele>
        <time>2012-12-09T09:18:17Z</time>
      </trkpt>
      <trkpt lat="43.17148" lon="6.60855">
        <ele>55.6</ele>
        <time>2012-12-09T09:18:22Z</time>
      </trkpt>
      <trkpt lat="43.17143" lon="6.60851">
        <ele>54.8</ele>
        <time>2012-12-09T09:18:27Z</time>
      </trkpt>
      <trkpt lat="43.17138" lon="6.60848">
        <ele>55.6</ele>
        <time>2012-12-09T09:18:32Z</time>
      </trkpt>
      <trkpt lat="43.17134" lon="6.60844">
        <ele>56.7</ele>
        <time>2012-12-09T09:18:38Z</time>
      </trkpt>
      <trkpt lat="43.17129" lon="6.60843">
        <ele>59</ele>
        <time>2012-12-09T09:18:44Z</time>
      </trkpt>
      <trkpt lat="43.17128" lon="6.60849">
        <ele>58.8</ele>
        <time>2012-12-09T09:18:57Z</time>
      </trkpt>
      <trkpt lat="43.17123" lon="6.6085">
        <ele>60.6</ele>
        <time>2012-12-09T09:19:09Z</time>
      </trkpt>
      <trkpt lat="43.17119" lon="6.60853">
        <ele>62.7</ele>
        <time>2012-12-09T09:19:16Z</time>
      </trkpt>
      <trkpt lat="43.17115" lon="6.60856">
        <ele>61.7</ele>
        <time>2012-12-09T09:19:28Z</time>
      </trkpt>
      <trkpt lat="43.17111" lon="6.60858">
        <ele>63.6</ele>
        <time>2012-12-09T09:19:34Z</time>
      </trkpt>
      <trkpt lat="43.17106" lon="6.60859">
        <ele>64</ele>
        <time>2012-12-09T09:19:41Z</time>
      </trkpt>
      <trkpt lat="43.17103" lon="6.60863">
        <ele>66.1</ele>
        <time>2012-12-09T09:19:51Z</time>
      </trkpt>
      <trkpt lat="43.17098" lon="6.60864">
        <ele>69.1</ele>
        <time>2012-12-09T09:20:01Z</time>
      </trkpt>
      <trkpt lat="43.17093" lon="6.60864">
        <ele>72.4</ele>
        <time>2012-12-09T09:20:08Z</time>
      </trkpt>
      <trkpt lat="43.17088" lon="6.60866">
        <ele>75.3</ele>
        <time>2012-12-09T09:20:18Z</time>
      </trkpt>
      <trkpt lat="43.17083" lon="6.60866">
        <ele>77.6</ele>
        <time>2012-12-09T09:20:24Z</time>
      </trkpt>
      <trkpt lat="43.17078" lon="6.60864">
        <ele>81.7</ele>
        <time>2012-12-09T09:20:30Z</time>
      </trkpt>
      <trkpt lat="43.17074" lon="6.60866">
        <ele>82.8</ele>
        <time>2012-12-09T09:20:36Z</time>
      </trkpt>
      <trkpt lat="43.1707" lon="6.6087">
        <ele>84.6</ele>
        <time>2012-12-09T09:20:46Z</time>
      </trkpt>
      <trkpt lat="43.17067" lon="6.60876">
        <ele>87.7</ele>
        <time>2012-12-09T09:20:57Z</time>
      </trkpt>
      <trkpt lat="43.17063" lon="6.6088">
        <ele>91.6</ele>
        <time>2012-12-09T09:21:06Z</time>
      </trkpt>
      <trkpt lat="43.1706" lon="6.60884">
        <ele>92.5</ele>
        <time>2012-12-09T09:21:15Z</time>
      </trkpt>
      <trkpt lat="43.17056" lon="6.60888">
        <ele>92.6</ele>
        <time>2012-12-09T09:21:20Z</time>
      </trkpt>
      <trkpt lat="43.17053" lon="6.60893">
        <ele>95.4</ele>
        <time>2012-12-09T09:21:26Z</time>
      </trkpt>
      <trkpt lat="43.17049" lon="6.60897">
        <ele>97</ele>
        <time>2012-12-09T09:21:32Z</time>
      </trkpt>
      <trkpt lat="43.17044" lon="6.609">
        <ele>97.1</ele>
        <time>2012-12-09T09:21:36Z</time>
      </trkpt>
      <trkpt lat="43.1704" lon="6.60904">
        <ele>99</ele>
        <time>2012-12-09T09:21:40Z</time>
      </trkpt>
      <trkpt lat="43.17037" lon="6.60909">
        <ele>97.8</ele>
        <time>2012-12-09T09:21:44Z</time>
      </trkpt>
      <trkpt lat="43.17036" lon="6.60915">
        <ele>96.9</ele>
        <time>2012-12-09T09:21:50Z</time>
      </trkpt>
      <trkpt lat="43.17035" lon="6.60921">
        <ele>96.2</ele>
        <time>2012-12-09T09:21:55Z</time>
      </trkpt>
      <trkpt lat="43.17033" lon="6.60928">
        <ele>97.4</ele>
        <time>2012-12-09T09:22:00Z</time>
      </trkpt>
      <trkpt lat="43.1703" lon="6.60933">
        <ele>98.7</ele>
        <time>2012-12-09T09:22:05Z</time>
      </trkpt>
      <trkpt lat="43.17026" lon="6.60938">
        <ele>98.8</ele>
        <time>2012-12-09T09:22:10Z</time>
      </trkpt>
      <trkpt lat="43.17022" lon="6.60941">
        <ele>98.7</ele>
        <time>2012-12-09T09:22:14Z</time>
      </trkpt>
      <trkpt lat="43.17018" lon="6.60944">
        <ele>99.7</ele>
        <time>2012-12-09T09:22:19Z</time>
      </trkpt>
      <trkpt lat="43.17015" lon="6.60949">
        <ele>100.3</ele>
        <time>2012-12-09T09:22:25Z</time>
      </trkpt>
      <trkpt lat="43.17011" lon="6.60954">
        <ele>102.9</ele>
        <time>2012-12-09T09:22:31Z</time>
      </trkpt>
      <trkpt lat="43.17008" lon="6.60959">
        <ele>103.7</ele>
        <time>2012-12-09T09:22:37Z</time>
      </trkpt>
      <trkpt lat="43.17004" lon="6.60964">
        <ele>103.2</ele>
        <time>2012-12-09T09:22:41Z</time>
      </trkpt>
      <trkpt lat="43.16999" lon="6.60968">
        <ele>101.2</ele>
        <time>2012-12-09T09:22:45Z</time>
      </trkpt>
      <trkpt lat="43.16994" lon="6.60971">
        <ele>102.1</ele>
        <time>2012-12-09T09:22:49Z</time>
      </trkpt>
      <trkpt lat="43.1699" lon="6.60973">
        <ele>102</ele>
        <time>2012-12-09T09:22:52Z</time>
      </trkpt>
      <trkpt lat="43.16985" lon="6.60976">
        <ele>102.1</ele>
        <time>2012-12-09T09:22:55Z</time>
      </trkpt>
      <trkpt lat="43.16981" lon="6.60981">
        <ele>101.6</ele>
        <time>2012-12-09T09:23:00Z</time>
      </trkpt>
      <trkpt lat="43.16977" lon="6.60982">
        <ele>102.8</ele>
        <time>2012-12-09T09:23:04Z</time>
      </trkpt>
      <trkpt lat="43.16972" lon="6.60986">
        <ele>104.2</ele>
        <time>2012-12-09T09:23:10Z</time>
      </trkpt>
      <trkpt lat="43.16969" lon="6.60991">
        <ele>103.7</ele>
        <time>2012-12-09T09:23:14Z</time>
      </trkpt>
      <trkpt lat="43.16965" lon="6.60996">
        <ele>103.7</ele>
        <time>2012-12-09T09:23:18Z</time>
      </trkpt>
      <trkpt lat="43.16961" lon="6.60999">
        <ele>103.9</ele>
        <time>2012-12-09T09:23:22Z</time>
      </trkpt>
      <trkpt lat="43.16958" lon="6.61004">
        <ele>107</ele>
        <time>2012-12-09T09:23:29Z</time>
      </trkpt>
      <trkpt lat="43.16953" lon="6.61008">
        <ele>108.4</ele>
        <time>2012-12-09T09:23:34Z</time>
      </trkpt>
      <trkpt lat="43.1695" lon="6.61013">
        <ele>108.5</ele>
        <time>2012-12-09T09:23:39Z</time>
      </trkpt>
      <trkpt lat="43.16948" lon="6.61019">
        <ele>110.8</ele>
        <time>2012-12-09T09:23:46Z</time>
      </trkpt>
      <trkpt lat="43.16946" lon="6.61025">
        <ele>113.5</ele>
        <time>2012-12-09T09:23:54Z</time>
      </trkpt>
      <trkpt lat="43.16945" lon="6.61032">
        <ele>116</ele>
        <time>2012-12-09T09:24:05Z</time>
      </trkpt>
      <trkpt lat="43.16941" lon="6.61035">
        <ele>118.1</ele>
        <time>2012-12-09T09:24:11Z</time>
      </trkpt>
      <trkpt lat="43.16938" lon="6.6104">
        <ele>117.8</ele>
        <time>2012-12-09T09:24:16Z</time>
      </trkpt>
      <trkpt lat="43.16934" lon="6.61043">
        <ele>118.9</ele>
        <time>2012-12-09T09:24:21Z</time>
      </trkpt>
      <trkpt lat="43.16932" lon="6.61049">
        <ele>120.6</ele>
        <time>2012-12-09T09:24:28Z</time>
      </trkpt>
      <trkpt lat="43.16932" lon="6.61055">
        <ele>123.5</ele>
        <time>2012-12-09T09:24:38Z</time>
      </trkpt>
      <trkpt lat="43.16933" lon="6.61061">
        <ele>127.8</ele>
        <time>2012-12-09T09:24:48Z</time>
      </trkpt>
      <trkpt lat="43.16931" lon="6.61067">
        <ele>130.9</ele>
        <time>2012-12-09T09:25:02Z</time>
      </trkpt>
      <trkpt lat="43.16928" lon="6.61073">
        <ele>132.3</ele>
        <time>2012-12-09T09:25:07Z</time>
      </trkpt>
      <trkpt lat="43.16926" lon="6.61079">
        <ele>133.1</ele>
        <time>2012-12-09T09:25:13Z</time>
      </trkpt>
      <trkpt lat="43.16923" lon="6.61084">
        <ele>135.5</ele>
        <time>2012-12-09T09:25:19Z</time>
      </trkpt>
      <trkpt lat="43.16923" lon="6.6109">
        <ele>135.6</ele>
        <time>2012-12-09T09:25:25Z</time>
      </trkpt>
      <trkpt lat="43.16926" lon="6.61094">
        <ele>136.5</ele>
        <time>2012-12-09T09:25:34Z</time>
      </trkpt>
      <trkpt lat="43.16926" lon="6.611">
        <ele>139.1</ele>
        <time>2012-12-09T09:25:40Z</time>
      </trkpt>
      <trkpt lat="43.1693" lon="6.61105">
        <ele>141.5</ele>
        <time>2012-12-09T09:25:48Z</time>
      </trkpt>
      <trkpt lat="43.16933" lon="6.61108">
        <ele>141.3</ele>
        <time>2012-12-09T09:25:56Z</time>
      </trkpt>
      <trkpt lat="43.16933" lon="6.61115">
        <ele>143.7</ele>
        <time>2012-12-09T09:26:03Z</time>
      </trkpt>
      <trkpt lat="43.16934" lon="6.61122">
        <ele>142.2</ele>
        <time>2012-12-09T09:26:11Z</time>
      </trkpt>
      <trkpt lat="43.16934" lon="6.61128">
        <ele>144.7</ele>
        <time>2012-12-09T09:26:18Z</time>
      </trkpt>
      <trkpt lat="43.16936" lon="6.61134">
        <ele>146.1</ele>
        <time>2012-12-09T09:26:24Z</time>
      </trkpt>
      <trkpt lat="43.16936" lon="6.61141">
        <ele>145.3</ele>
        <time>2012-12-09T09:26:30Z</time>
      </trkpt>
      <trkpt lat="43.16934" lon="6.61148">
        <ele>145</ele>
        <time>2012-12-09T09:26:35Z</time>
      </trkpt>
      <trkpt lat="43.16934" lon="6.61154">
        <ele>145.6</ele>
        <time>2012-12-09T09:26:39Z</time>
      </trkpt>
      <trkpt lat="43.16934" lon="6.6116">
        <ele>144.8</ele>
        <time>2012-12-09T09:26:43Z</time>
      </trkpt>
      <trkpt lat="43.16935" lon="6.61168">
        <ele>145.3</ele>
        <time>2012-12-09T09:26:47Z</time>
      </trkpt>
      <trkpt lat="43.16934" lon="6.61175">
        <ele>143.7</ele>
        <time>2012-12-09T09:26:51Z</time>
      </trkpt>
      <trkpt lat="43.16931" lon="6.61182">
        <ele>144.1</ele>
        <time>2012-12-09T09:26:55Z</time>
      </trkpt>
      <trkpt lat="43.16929" lon="6.61188">
        <ele>143.8</ele>
        <time>2012-12-09T09:26:59Z</time>
      </trkpt>
      <trkpt lat="43.16927" lon="6.61194">
        <ele>143.7</ele>
        <time>2012-12-09T09:27:03Z</time>
      </trkpt>
      <trkpt lat="43.16925" lon="6.612">
        <ele>142.9</ele>
        <time>2012-12-09T09:27:07Z</time>
      </trkpt>
      <trkpt lat="43.16923" lon="6.61206">
        <ele>142.8</ele>
        <time>2012-12-09T09:27:11Z</time>
      </trkpt>
      <trkpt lat="43.1692" lon="6.61211">
        <ele>141.8</ele>
        <time>2012-12-09T09:27:15Z</time>
      </trkpt>
      <trkpt lat="43.16918" lon="6.61218">
        <ele>141</ele>
        <time>2012-12-09T09:27:20Z</time>
      </trkpt>
      <trkpt lat="43.16916" lon="6.61224">
        <ele>141.6</ele>
        <time>2012-12-09T09:27:24Z</time>
      </trkpt>
      <trkpt lat="43.16914" lon="6.6123">
        <ele>141</ele>
        <time>2012-12-09T09:27:28Z</time>
      </trkpt>
      <trkpt lat="43.16912" lon="6.61238">
        <ele>141.2</ele>
        <time>2012-12-09T09:27:32Z</time>
      </trkpt>
      <trkpt lat="43.16912" lon="6.61244">
        <ele>141.1</ele>
        <time>2012-12-09T09:27:36Z</time>
      </trkpt>
      <trkpt lat="43.16911" lon="6.61251">
        <ele>142</ele>
        <time>2012-12-09T09:27:41Z</time>
      </trkpt>
      <trkpt lat="43.16909" lon="6.61258">
        <ele>142</ele>
        <time>2012-12-09T09:27:45Z</time>
      </trkpt>
      <trkpt lat="43.16908" lon="6.61264">
        <ele>141.4</ele>
        <time>2012-12-09T09:27:49Z</time>
      </trkpt>
      <trkpt lat="43.16906" lon="6.6127">
        <ele>140.5</ele>
        <time>2012-12-09T09:27:53Z</time>
      </trkpt>
      <trkpt lat="43.16902" lon="6.61274">
        <ele>139.5</ele>
        <time>2012-12-09T09:27:58Z</time>
      </trkpt>
      <trkpt lat="43.16898" lon="6.61276">
        <ele>140.7</ele>
        <time>2012-12-09T09:28:03Z</time>
      </trkpt>
      <trkpt lat="43.16892" lon="6.61278">
        <ele>142.2</ele>
        <time>2012-12-09T09:28:08Z</time>
      </trkpt>
      <trkpt lat="43.16887" lon="6.61282">
        <ele>142.5</ele>
        <time>2012-12-09T09:28:12Z</time>
      </trkpt>
      <trkpt lat="43.16884" lon="6.61287">
        <ele>145.7</ele>
        <time>2012-12-09T09:28:16Z</time>
      </trkpt>
      <trkpt lat="43.16879" lon="6.61292">
        <ele>146.1</ele>
        <time>2012-12-09T09:28:20Z</time>
      </trkpt>
      <trkpt lat="43.16875" lon="6.61296">
        <ele>148.2</ele>
        <time>2012-12-09T09:28:25Z</time>
      </trkpt>
      <trkpt lat="43.1687" lon="6.613">
        <ele>149.9</ele>
        <time>2012-12-09T09:28:29Z</time>
      </trkpt>
      <trkpt lat="43.16866" lon="6.61303">
        <ele>149.6</ele>
        <time>2012-12-09T09:28:33Z</time>
      </trkpt>
      <trkpt lat="43.16862" lon="6.61308">
        <ele>152.3</ele>
        <time>2012-12-09T09:28:38Z</time>
      </trkpt>
      <trkpt lat="43.16859" lon="6.61314">
        <ele>153.1</ele>
        <time>2012-12-09T09:28:42Z</time>
      </trkpt>
      <trkpt lat="43.16855" lon="6.61319">
        <ele>153.4</ele>
        <time>2012-12-09T09:28:46Z</time>
      </trkpt>
      <trkpt lat="43.16852" lon="6.61324">
        <ele>151.7</ele>
        <time>2012-12-09T09:28:50Z</time>
      </trkpt>
      <trkpt lat="43.16847" lon="6.61327">
        <ele>154.1</ele>
        <time>2012-12-09T09:28:56Z</time>
      </trkpt>
      <trkpt lat="43.16842" lon="6.61329">
        <ele>155.6</ele>
        <time>2012-12-09T09:29:00Z</time>
      </trkpt>
      <trkpt lat="43.16838" lon="6.61334">
        <ele>155.8</ele>
        <time>2012-12-09T09:29:04Z</time>
      </trkpt>
      <trkpt lat="43.16835" lon="6.61339">
        <ele>156.9</ele>
        <time>2012-12-09T09:29:09Z</time>
      </trkpt>
      <trkpt lat="43.16832" lon="6.61344">
        <ele>159</ele>
        <time>2012-12-09T09:29:13Z</time>
      </trkpt>
      <trkpt lat="43.16828" lon="6.61348">
        <ele>158.8</ele>
        <time>2012-12-09T09:29:17Z</time>
      </trkpt>
      <trkpt lat="43.16825" lon="6.61354">
        <ele>157.1</ele>
        <time>2012-12-09T09:29:21Z</time>
      </trkpt>
      <trkpt lat="43.16819" lon="6.61357">
        <ele>159.4</ele>
        <time>2012-12-09T09:29:26Z</time>
      </trkpt>
      <trkpt lat="43.16815" lon="6.61359">
        <ele>156.7</ele>
        <time>2012-12-09T09:29:29Z</time>
      </trkpt>
      <trkpt lat="43.1681" lon="6.61363">
        <ele>156.2</ele>
        <time>2012-12-09T09:29:32Z</time>
      </trkpt>
      <trkpt lat="43.16807" lon="6.61367">
        <ele>153.6</ele>
        <time>2012-12-09T09:29:35Z</time>
      </trkpt>
      <trkpt lat="43.16803" lon="6.6137">
        <ele>154.9</ele>
        <time>2012-12-09T09:29:38Z</time>
      </trkpt>
      <trkpt lat="43.16798" lon="6.61375">
        <ele>153.3</ele>
        <time>2012-12-09T09:29:42Z</time>
      </trkpt>
      <trkpt lat="43.16794" lon="6.61379">
        <ele>153.4</ele>
        <time>2012-12-09T09:29:45Z</time>
      </trkpt>
      <trkpt lat="43.16791" lon="6.61385">
        <ele>150.6</ele>
        <time>2012-12-09T09:29:49Z</time>
      </trkpt>
      <trkpt lat="43.16788" lon="6.61392">
        <ele>150.4</ele>
        <time>2012-12-09T09:29:54Z</time>
      </trkpt>
      <trkpt lat="43.16784" lon="6.61397">
        <ele>149.7</ele>
        <time>2012-12-09T09:29:58Z</time>
      </trkpt>
      <trkpt lat="43.16781" lon="6.61404">
        <ele>149.3</ele>
        <time>2012-12-09T09:30:02Z</time>
      </trkpt>
      <trkpt lat="43.1678" lon="6.61412">
        <ele>147.7</ele>
        <time>2012-12-09T09:30:06Z</time>
      </trkpt>
      <trkpt lat="43.16778" lon="6.61419">
        <ele>147.3</ele>
        <time>2012-12-09T09:30:10Z</time>
      </trkpt>
      <trkpt lat="43.16776" lon="6.61425">
        <ele>147.1</ele>
        <time>2012-12-09T09:30:14Z</time>
      </trkpt>
      <trkpt lat="43.16775" lon="6.61432">
        <ele>147.5</ele>
        <time>2012-12-09T09:30:18Z</time>
      </trkpt>
      <trkpt lat="43.16772" lon="6.61438">
        <ele>144.5</ele>
        <time>2012-12-09T09:30:22Z</time>
      </trkpt>
      <trkpt lat="43.16769" lon="6.61444">
        <ele>143.2</ele>
        <time>2012-12-09T09:30:26Z</time>
      </trkpt>
      <trkpt lat="43.16768" lon="6.61452">
        <ele>142.8</ele>
        <time>2012-12-09T09:30:30Z</time>
      </trkpt>
      <trkpt lat="43.16766" lon="6.61458">
        <ele>140.8</ele>
        <time>2012-12-09T09:30:34Z</time>
      </trkpt>
      <trkpt lat="43.16765" lon="6.61465">
        <ele>140.3</ele>
        <time>2012-12-09T09:30:38Z</time>
      </trkpt>
      <trkpt lat="43.16764" lon="6.61472">
        <ele>141.9</ele>
        <time>2012-12-09T09:30:43Z</time>
      </trkpt>
      <trkpt lat="43.16762" lon="6.6148">
        <ele>143.2</ele>
        <time>2012-12-09T09:30:48Z</time>
      </trkpt>
      <trkpt lat="43.16759" lon="6.61486">
        <ele>142.8</ele>
        <time>2012-12-09T09:30:52Z</time>
      </trkpt>
      <trkpt lat="43.16756" lon="6.61492">
        <ele>143.5</ele>
        <time>2012-12-09T09:30:57Z</time>
      </trkpt>
      <trkpt lat="43.16754" lon="6.61498">
        <ele>143.4</ele>
        <time>2012-12-09T09:31:01Z</time>
      </trkpt>
      <trkpt lat="43.16754" lon="6.61505">
        <ele>144.2</ele>
        <time>2012-12-09T09:31:06Z</time>
      </trkpt>
      <trkpt lat="43.16753" lon="6.61512">
        <ele>143.4</ele>
        <time>2012-12-09T09:31:11Z</time>
      </trkpt>
      <trkpt lat="43.1675" lon="6.61517">
        <ele>144.7</ele>
        <time>2012-12-09T09:31:15Z</time>
      </trkpt>
      <trkpt lat="43.16749" lon="6.61524">
        <ele>145.9</ele>
        <time>2012-12-09T09:31:23Z</time>
      </trkpt>
      <trkpt lat="43.16746" lon="6.6153">
        <ele>141.2</ele>
        <time>2012-12-09T09:31:28Z</time>
      </trkpt>
      <trkpt lat="43.16746" lon="6.61537">
        <ele>140.9</ele>
        <time>2012-12-09T09:31:32Z</time>
      </trkpt>
      <trkpt lat="43.16745" lon="6.61543">
        <ele>141.5</ele>
        <time>2012-12-09T09:31:37Z</time>
      </trkpt>
      <trkpt lat="43.16743" lon="6.6155">
        <ele>140.2</ele>
        <time>2012-12-09T09:31:40Z</time>
      </trkpt>
      <trkpt lat="43.16741" lon="6.61556">
        <ele>140.1</ele>
        <time>2012-12-09T09:31:43Z</time>
      </trkpt>
      <trkpt lat="43.16739" lon="6.61563">
        <ele>140.6</ele>
        <time>2012-12-09T09:31:47Z</time>
      </trkpt>
      <trkpt lat="43.16741" lon="6.6157">
        <ele>133</ele>
        <time>2012-12-09T09:31:51Z</time>
      </trkpt>
      <trkpt lat="43.16742" lon="6.61576">
        <ele>131.4</ele>
        <time>2012-12-09T09:31:55Z</time>
      </trkpt>
      <trkpt lat="43.16738" lon="6.61581">
        <ele>132.7</ele>
        <time>2012-12-09T09:32:01Z</time>
      </trkpt>
      <trkpt lat="43.16735" lon="6.61586">
        <ele>134.3</ele>
        <time>2012-12-09T09:32:07Z</time>
      </trkpt>
      <trkpt lat="43.16732" lon="6.61592">
        <ele>134.8</ele>
        <time>2012-12-09T09:32:11Z</time>
      </trkpt>
      <trkpt lat="43.16729" lon="6.61597">
        <ele>136.5</ele>
        <time>2012-12-09T09:32:15Z</time>
      </trkpt>
      <trkpt lat="43.16724" lon="6.61597">
        <ele>139</ele>
        <time>2012-12-09T09:32:18Z</time>
      </trkpt>
      <trkpt lat="43.16718" lon="6.61596">
        <ele>144.4</ele>
        <time>2012-12-09T09:32:21Z</time>
      </trkpt>
      <trkpt lat="43.16714" lon="6.61598">
        <ele>143.4</ele>
        <time>2012-12-09T09:32:25Z</time>
      </trkpt>
      <trkpt lat="43.1671" lon="6.61605">
        <ele>147</ele>
        <time>2012-12-09T09:32:31Z</time>
      </trkpt>
      <trkpt lat="43.16707" lon="6.6161">
        <ele>148.2</ele>
        <time>2012-12-09T09:32:35Z</time>
      </trkpt>
      <trkpt lat="43.16703" lon="6.61617">
        <ele>146.1</ele>
        <time>2012-12-09T09:32:39Z</time>
      </trkpt>
      <trkpt lat="43.16699" lon="6.61623">
        <ele>146.4</ele>
        <time>2012-12-09T09:32:43Z</time>
      </trkpt>
      <trkpt lat="43.16698" lon="6.61629">
        <ele>144.7</ele>
        <time>2012-12-09T09:32:46Z</time>
      </trkpt>
      <trkpt lat="43.16694" lon="6.61634">
        <ele>146.3</ele>
        <time>2012-12-09T09:32:50Z</time>
      </trkpt>
      <trkpt lat="43.16689" lon="6.61637">
        <ele>145.8</ele>
        <time>2012-12-09T09:32:53Z</time>
      </trkpt>
      <trkpt lat="43.16684" lon="6.61641">
        <ele>145.5</ele>
        <time>2012-12-09T09:32:57Z</time>
      </trkpt>
      <trkpt lat="43.1668" lon="6.61646">
        <ele>143.3</ele>
        <time>2012-12-09T09:33:01Z</time>
      </trkpt>
      <trkpt lat="43.16676" lon="6.61651">
        <ele>143.8</ele>
        <time>2012-12-09T09:33:05Z</time>
      </trkpt>
      <trkpt lat="43.16671" lon="6.61652">
        <ele>143.6</ele>
        <time>2012-12-09T09:33:08Z</time>
      </trkpt>
      <trkpt lat="43.16665" lon="6.61653">
        <ele>144.4</ele>
        <time>2012-12-09T09:33:11Z</time>
      </trkpt>
      <trkpt lat="43.1666" lon="6.61653">
        <ele>146.5</ele>
        <time>2012-12-09T09:33:14Z</time>
      </trkpt>
      <trkpt lat="43.16655" lon="6.61656">
        <ele>147.2</ele>
        <time>2012-12-09T09:33:18Z</time>
      </trkpt>
      <trkpt lat="43.16651" lon="6.6166">
        <ele>146.2</ele>
        <time>2012-12-09T09:33:22Z</time>
      </trkpt>
      <trkpt lat="43.16646" lon="6.6166">
        <ele>147.1</ele>
        <time>2012-12-09T09:33:26Z</time>
      </trkpt>
      <trkpt lat="43.16642" lon="6.61665">
        <ele>145.7</ele>
        <time>2012-12-09T09:33:30Z</time>
      </trkpt>
      <trkpt lat="43.16639" lon="6.6167">
        <ele>146.9</ele>
        <time>2012-12-09T09:33:35Z</time>
      </trkpt>
      <trkpt lat="43.16637" lon="6.61675">
        <ele>146.2</ele>
        <time>2012-12-09T09:33:39Z</time>
      </trkpt>
      <trkpt lat="43.16634" lon="6.6168">
        <ele>147.6</ele>
        <time>2012-12-09T09:33:43Z</time>
      </trkpt>
      <trkpt lat="43.1663" lon="6.61686">
        <ele>148.5</ele>
        <time>2012-12-09T09:33:48Z</time>
      </trkpt>
      <trkpt lat="43.16626" lon="6.6169">
        <ele>147.4</ele>
        <time>2012-12-09T09:33:53Z</time>
      </trkpt>
      <trkpt lat="43.16623" lon="6.61694">
        <ele>147.1</ele>
        <time>2012-12-09T09:33:58Z</time>
      </trkpt>
      <trkpt lat="43.16619" lon="6.61698">
        <ele>146.2</ele>
        <time>2012-12-09T09:34:02Z</time>
      </trkpt>
      <trkpt lat="43.16615" lon="6.61701">
        <ele>145.4</ele>
        <time>2012-12-09T09:34:06Z</time>
      </trkpt>
      <trkpt lat="43.16611" lon="6.61706">
        <ele>140.8</ele>
        <time>2012-12-09T09:34:13Z</time>
      </trkpt>
      <trkpt lat="43.16608" lon="6.61713">
        <ele>138.7</ele>
        <time>2012-12-09T09:34:17Z</time>
      </trkpt>
      <trkpt lat="43.16605" lon="6.6172">
        <ele>138.9</ele>
        <time>2012-12-09T09:34:21Z</time>
      </trkpt>
      <trkpt lat="43.16601" lon="6.61724">
        <ele>140.3</ele>
        <time>2012-12-09T09:34:26Z</time>
      </trkpt>
      <trkpt lat="43.16597" lon="6.61729">
        <ele>142.3</ele>
        <time>2012-12-09T09:34:31Z</time>
      </trkpt>
      <trkpt lat="43.16593" lon="6.61734">
        <ele>134.2</ele>
        <time>2012-12-09T09:34:36Z</time>
      </trkpt>
      <trkpt lat="43.16589" lon="6.61739">
        <ele>133.9</ele>
        <time>2012-12-09T09:34:40Z</time>
      </trkpt>
      <trkpt lat="43.16584" lon="6.61743">
        <ele>136.8</ele>
        <time>2012-12-09T09:34:44Z</time>
      </trkpt>
      <trkpt lat="43.16579" lon="6.61747">
        <ele>134.8</ele>
        <time>2012-12-09T09:34:49Z</time>
      </trkpt>
      <trkpt lat="43.16575" lon="6.61751">
        <ele>136.3</ele>
        <time>2012-12-09T09:34:53Z</time>
      </trkpt>
      <trkpt lat="43.1657" lon="6.61755">
        <ele>136.1</ele>
        <time>2012-12-09T09:34:57Z</time>
      </trkpt>
      <trkpt lat="43.16565" lon="6.6176">
        <ele>135.7</ele>
        <time>2012-12-09T09:35:01Z</time>
      </trkpt>
      <trkpt lat="43.16561" lon="6.61766">
        <ele>136.4</ele>
        <time>2012-12-09T09:35:05Z</time>
      </trkpt>
      <trkpt lat="43.16556" lon="6.61768">
        <ele>135.4</ele>
        <time>2012-12-09T09:35:09Z</time>
      </trkpt>
      <trkpt lat="43.16552" lon="6.61772">
        <ele>134.4</ele>
        <time>2012-12-09T09:35:13Z</time>
      </trkpt>
      <trkpt lat="43.16548" lon="6.61776">
        <ele>133.2</ele>
        <time>2012-12-09T09:35:18Z</time>
      </trkpt>
      <trkpt lat="43.16544" lon="6.61777">
        <ele>131.3</ele>
        <time>2012-12-09T09:35:23Z</time>
      </trkpt>
      <trkpt lat="43.16538" lon="6.61779">
        <ele>134.3</ele>
        <time>2012-12-09T09:35:27Z</time>
      </trkpt>
      <trkpt lat="43.16534" lon="6.61784">
        <ele>134.7</ele>
        <time>2012-12-09T09:35:31Z</time>
      </trkpt>
      <trkpt lat="43.1653" lon="6.61789">
        <ele>130.9</ele>
        <time>2012-12-09T09:35:35Z</time>
      </trkpt>
      <trkpt lat="43.16527" lon="6.61793">
        <ele>126.4</ele>
        <time>2012-12-09T09:35:40Z</time>
      </trkpt>
      <trkpt lat="43.16522" lon="6.61797">
        <ele>124.1</ele>
        <time>2012-12-09T09:35:46Z</time>
      </trkpt>
      <trkpt lat="43.16517" lon="6.61799">
        <ele>124.7</ele>
        <time>2012-12-09T09:35:49Z</time>
      </trkpt>
      <trkpt lat="43.16512" lon="6.61801">
        <ele>123.4</ele>
        <time>2012-12-09T09:35:52Z</time>
      </trkpt>
      <trkpt lat="43.16506" lon="6.61803">
        <ele>117.5</ele>
        <time>2012-12-09T09:35:57Z</time>
      </trkpt>
      <trkpt lat="43.16502" lon="6.61805">
        <ele>120.7</ele>
        <time>2012-12-09T09:36:01Z</time>
      </trkpt>
      <trkpt lat="43.16497" lon="6.61808">
        <ele>119.8</ele>
        <time>2012-12-09T09:36:04Z</time>
      </trkpt>
      <trkpt lat="43.16493" lon="6.61812">
        <ele>118.8</ele>
        <time>2012-12-09T09:36:07Z</time>
      </trkpt>
      <trkpt lat="43.16488" lon="6.61816">
        <ele>121</ele>
        <time>2012-12-09T09:36:10Z</time>
      </trkpt>
      <trkpt lat="43.16481" lon="6.6182">
        <ele>121.6</ele>
        <time>2012-12-09T09:36:13Z</time>
      </trkpt>
      <trkpt lat="43.16477" lon="6.61822">
        <ele>123.1</ele>
        <time>2012-12-09T09:36:15Z</time>
      </trkpt>
      <trkpt lat="43.16472" lon="6.61824">
        <ele>122.7</ele>
        <time>2012-12-09T09:36:21Z</time>
      </trkpt>
      <trkpt lat="43.16468" lon="6.61825">
        <ele>121.9</ele>
        <time>2012-12-09T09:36:24Z</time>
      </trkpt>
      <trkpt lat="43.16463" lon="6.61828">
        <ele>123.3</ele>
        <time>2012-12-09T09:36:29Z</time>
      </trkpt>
      <trkpt lat="43.16458" lon="6.61829">
        <ele>122.9</ele>
        <time>2012-12-09T09:36:35Z</time>
      </trkpt>
      <trkpt lat="43.16452" lon="6.6183">
        <ele>126</ele>
        <time>2012-12-09T09:36:40Z</time>
      </trkpt>
      <trkpt lat="43.16448" lon="6.61834">
        <ele>124.7</ele>
        <time>2012-12-09T09:36:44Z</time>
      </trkpt>
      <trkpt lat="43.16444" lon="6.61839">
        <ele>126.5</ele>
        <time>2012-12-09T09:36:48Z</time>
      </trkpt>
      <trkpt lat="43.1644" lon="6.61842">
        <ele>127.7</ele>
        <time>2012-12-09T09:36:52Z</time>
      </trkpt>
      <trkpt lat="43.16435" lon="6.61846">
        <ele>130.7</ele>
        <time>2012-12-09T09:36:56Z</time>
      </trkpt>
      <trkpt lat="43.1643" lon="6.61849">
        <ele>134.5</ele>
        <time>2012-12-09T09:37:01Z</time>
      </trkpt>
      <trkpt lat="43.16425" lon="6.61852">
        <ele>136.1</ele>
        <time>2012-12-09T09:37:04Z</time>
      </trkpt>
      <trkpt lat="43.1642" lon="6.61854">
        <ele>137.3</ele>
        <time>2012-12-09T09:37:07Z</time>
      </trkpt>
      <trkpt lat="43.16415" lon="6.61857">
        <ele>141.4</ele>
        <time>2012-12-09T09:37:10Z</time>
      </trkpt>
      <trkpt lat="43.1641" lon="6.61858">
        <ele>139.5</ele>
        <time>2012-12-09T09:37:13Z</time>
      </trkpt>
      <trkpt lat="43.16406" lon="6.61857">
        <ele>136.6</ele>
        <time>2012-12-09T09:37:15Z</time>
      </trkpt>
      <trkpt lat="43.164" lon="6.61857">
        <ele>135.7</ele>
        <time>2012-12-09T09:37:19Z</time>
      </trkpt>
      <trkpt lat="43.16395" lon="6.61858">
        <ele>133</ele>
        <time>2012-12-09T09:37:23Z</time>
      </trkpt>
      <trkpt lat="43.1639" lon="6.61857">
        <ele>131</ele>
        <time>2012-12-09T09:37:27Z</time>
      </trkpt>
      <trkpt lat="43.16385" lon="6.61859">
        <ele>133.2</ele>
        <time>2012-12-09T09:37:31Z</time>
      </trkpt>
      <trkpt lat="43.16379" lon="6.61862">
        <ele>130.1</ele>
        <time>2012-12-09T09:37:35Z</time>
      </trkpt>
      <trkpt lat="43.16375" lon="6.61865">
        <ele>131.7</ele>
        <time>2012-12-09T09:37:38Z</time>
      </trkpt>
      <trkpt lat="43.1637" lon="6.61869">
        <ele>131.9</ele>
        <time>2012-12-09T09:37:42Z</time>
      </trkpt>
      <trkpt lat="43.16366" lon="6.61874">
        <ele>131.7</ele>
        <time>2012-12-09T09:37:46Z</time>
      </trkpt>
      <trkpt lat="43.16361" lon="6.61877">
        <ele>129.6</ele>
        <time>2012-12-09T09:37:50Z</time>
      </trkpt>
      <trkpt lat="43.16356" lon="6.61876">
        <ele>127.9</ele>
        <time>2012-12-09T09:37:55Z</time>
      </trkpt>
      <trkpt lat="43.16351" lon="6.61879">
        <ele>128.5</ele>
        <time>2012-12-09T09:37:59Z</time>
      </trkpt>
      <trkpt lat="43.16347" lon="6.61883">
        <ele>127.6</ele>
        <time>2012-12-09T09:38:02Z</time>
      </trkpt>
      <trkpt lat="43.16342" lon="6.61887">
        <ele>125.5</ele>
        <time>2012-12-09T09:38:06Z</time>
      </trkpt>
      <trkpt lat="43.16338" lon="6.61891">
        <ele>126.3</ele>
        <time>2012-12-09T09:38:09Z</time>
      </trkpt>
      <trkpt lat="43.16334" lon="6.61894">
        <ele>126.2</ele>
        <time>2012-12-09T09:38:12Z</time>
      </trkpt>
      <trkpt lat="43.16328" lon="6.61896">
        <ele>126.7</ele>
        <time>2012-12-09T09:38:16Z</time>
      </trkpt>
      <trkpt lat="43.16323" lon="6.61899">
        <ele>129.9</ele>
        <time>2012-12-09T09:38:20Z</time>
      </trkpt>
      <trkpt lat="43.16317" lon="6.61902">
        <ele>125.6</ele>
        <time>2012-12-09T09:38:24Z</time>
      </trkpt>
      <trkpt lat="43.16313" lon="6.61902">
        <ele>125.2</ele>
        <time>2012-12-09T09:38:27Z</time>
      </trkpt>
      <trkpt lat="43.16308" lon="6.61902">
        <ele>125.1</ele>
        <time>2012-12-09T09:38:30Z</time>
      </trkpt>
      <trkpt lat="43.16302" lon="6.619">
        <ele>124</ele>
        <time>2012-12-09T09:38:34Z</time>
      </trkpt>
      <trkpt lat="43.16297" lon="6.61898">
        <ele>123.6</ele>
        <time>2012-12-09T09:38:38Z</time>
      </trkpt>
      <trkpt lat="43.16292" lon="6.61897">
        <ele>123.7</ele>
        <time>2012-12-09T09:38:42Z</time>
      </trkpt>
      <trkpt lat="43.16287" lon="6.61895">
        <ele>124</ele>
        <time>2012-12-09T09:38:47Z</time>
      </trkpt>
      <trkpt lat="43.16282" lon="6.61894">
        <ele>124.7</ele>
        <time>2012-12-09T09:38:51Z</time>
      </trkpt>
      <trkpt lat="43.16276" lon="6.61896">
        <ele>125.3</ele>
        <time>2012-12-09T09:38:55Z</time>
      </trkpt>
      <trkpt lat="43.16273" lon="6.619">
        <ele>123.1</ele>
        <time>2012-12-09T09:38:58Z</time>
      </trkpt>
      <trkpt lat="43.16271" lon="6.61906">
        <ele>121.5</ele>
        <time>2012-12-09T09:39:01Z</time>
      </trkpt>
      <trkpt lat="43.16268" lon="6.61912">
        <ele>120.2</ele>
        <time>2012-12-09T09:39:05Z</time>
      </trkpt>
      <trkpt lat="43.16264" lon="6.61917">
        <ele>116.5</ele>
        <time>2012-12-09T09:39:09Z</time>
      </trkpt>
      <trkpt lat="43.16259" lon="6.61919">
        <ele>114.3</ele>
        <time>2012-12-09T09:39:13Z</time>
      </trkpt>
      <trkpt lat="43.16254" lon="6.61922">
        <ele>112.7</ele>
        <time>2012-12-09T09:39:17Z</time>
      </trkpt>
      <trkpt lat="43.1625" lon="6.61927">
        <ele>112.4</ele>
        <time>2012-12-09T09:39:21Z</time>
      </trkpt>
      <trkpt lat="43.16246" lon="6.61931">
        <ele>110.9</ele>
        <time>2012-12-09T09:39:25Z</time>
      </trkpt>
      <trkpt lat="43.16241" lon="6.61935">
        <ele>112.7</ele>
        <time>2012-12-09T09:39:30Z</time>
      </trkpt>
      <trkpt lat="43.16237" lon="6.6194">
        <ele>112.1</ele>
        <time>2012-12-09T09:39:35Z</time>
      </trkpt>
      <trkpt lat="43.16234" lon="6.61944">
        <ele>112</ele>
        <time>2012-12-09T09:40:37Z</time>
      </trkpt>
      <trkpt lat="43.16229" lon="6.61942">
        <ele>113.1</ele>
        <time>2012-12-09T09:41:02Z</time>
      </trkpt>
      <trkpt lat="43.16224" lon="6.61942">
        <ele>115.3</ele>
        <time>2012-12-09T09:41:07Z</time>
      </trkpt>
      <trkpt lat="43.16219" lon="6.61943">
        <ele>116.5</ele>
        <time>2012-12-09T09:41:12Z</time>
      </trkpt>
      <trkpt lat="43.16213" lon="6.61944">
        <ele>119.2</ele>
        <time>2012-12-09T09:41:18Z</time>
      </trkpt>
      <trkpt lat="43.16208" lon="6.61944">
        <ele>119.2</ele>
        <time>2012-12-09T09:41:24Z</time>
      </trkpt>
      <trkpt lat="43.16203" lon="6.61946">
        <ele>118.9</ele>
        <time>2012-12-09T09:41:29Z</time>
      </trkpt>
      <trkpt lat="43.16198" lon="6.61948">
        <ele>118.8</ele>
        <time>2012-12-09T09:41:33Z</time>
      </trkpt>
      <trkpt lat="43.16194" lon="6.61949">
        <ele>119.1</ele>
        <time>2012-12-09T09:41:37Z</time>
      </trkpt>
      <trkpt lat="43.16188" lon="6.61948">
        <ele>120.2</ele>
        <time>2012-12-09T09:41:42Z</time>
      </trkpt>
      <trkpt lat="43.16184" lon="6.61947">
        <ele>119.8</ele>
        <time>2012-12-09T09:41:46Z</time>
      </trkpt>
      <trkpt lat="43.16179" lon="6.61945">
        <ele>119.7</ele>
        <time>2012-12-09T09:41:50Z</time>
      </trkpt>
      <trkpt lat="43.16174" lon="6.61944">
        <ele>121.1</ele>
        <time>2012-12-09T09:41:54Z</time>
      </trkpt>
      <trkpt lat="43.16169" lon="6.61942">
        <ele>120.3</ele>
        <time>2012-12-09T09:41:58Z</time>
      </trkpt>
      <trkpt lat="43.16164" lon="6.6194">
        <ele>120.2</ele>
        <time>2012-12-09T09:42:02Z</time>
      </trkpt>
      <trkpt lat="43.1616" lon="6.61937">
        <ele>119.7</ele>
        <time>2012-12-09T09:42:06Z</time>
      </trkpt>
      <trkpt lat="43.16155" lon="6.61935">
        <ele>118.8</ele>
        <time>2012-12-09T09:42:10Z</time>
      </trkpt>
      <trkpt lat="43.1615" lon="6.61936">
        <ele>119.8</ele>
        <time>2012-12-09T09:42:14Z</time>
      </trkpt>
      <trkpt lat="43.16144" lon="6.61937">
        <ele>121</ele>
        <time>2012-12-09T09:42:18Z</time>
      </trkpt>
      <trkpt lat="43.16139" lon="6.61941">
        <ele>121.7</ele>
        <time>2012-12-09T09:42:22Z</time>
      </trkpt>
      <trkpt lat="43.16135" lon="6.61946">
        <ele>121.7</ele>
        <time>2012-12-09T09:42:26Z</time>
      </trkpt>
      <trkpt lat="43.16131" lon="6.61949">
        <ele>122.9</ele>
        <time>2012-12-09T09:42:30Z</time>
      </trkpt>
      <trkpt lat="43.16126" lon="6.61952">
        <ele>123.5</ele>
        <time>2012-12-09T09:42:34Z</time>
      </trkpt>
      <trkpt lat="43.16123" lon="6.61958">
        <ele>123.9</ele>
        <time>2012-12-09T09:42:39Z</time>
      </trkpt>
      <trkpt lat="43.16122" lon="6.61964">
        <ele>124.3</ele>
        <time>2012-12-09T09:42:43Z</time>
      </trkpt>
      <trkpt lat="43.16122" lon="6.6197">
        <ele>124.4</ele>
        <time>2012-12-09T09:42:47Z</time>
      </trkpt>
      <trkpt lat="43.16123" lon="6.61978">
        <ele>123.8</ele>
        <time>2012-12-09T09:42:51Z</time>
      </trkpt>
      <trkpt lat="43.1612" lon="6.61984">
        <ele>123.9</ele>
        <time>2012-12-09T09:42:55Z</time>
      </trkpt>
      <trkpt lat="43.16114" lon="6.61985">
        <ele>123</ele>
        <time>2012-12-09T09:42:59Z</time>
      </trkpt>
      <trkpt lat="43.16109" lon="6.61982">
        <ele>122.5</ele>
        <time>2012-12-09T09:43:03Z</time>
      </trkpt>
      <trkpt lat="43.16103" lon="6.61979">
        <ele>121.8</ele>
        <time>2012-12-09T09:43:07Z</time>
      </trkpt>
      <trkpt lat="43.16099" lon="6.61977">
        <ele>121.2</ele>
        <time>2012-12-09T09:43:10Z</time>
      </trkpt>
      <trkpt lat="43.16093" lon="6.61975">
        <ele>121.1</ele>
        <time>2012-12-09T09:43:14Z</time>
      </trkpt>
      <trkpt lat="43.16088" lon="6.61974">
        <ele>121.1</ele>
        <time>2012-12-09T09:43:18Z</time>
      </trkpt>
      <trkpt lat="43.16083" lon="6.61974">
        <ele>121</ele>
        <time>2012-12-09T09:43:22Z</time>
      </trkpt>
      <trkpt lat="43.16077" lon="6.61975">
        <ele>120.4</ele>
        <time>2012-12-09T09:43:26Z</time>
      </trkpt>
      <trkpt lat="43.16072" lon="6.61976">
        <ele>120.1</ele>
        <time>2012-12-09T09:43:30Z</time>
      </trkpt>
      <trkpt lat="43.16066" lon="6.61976">
        <ele>119.9</ele>
        <time>2012-12-09T09:43:34Z</time>
      </trkpt>
      <trkpt lat="43.16061" lon="6.61975">
        <ele>117.7</ele>
        <time>2012-12-09T09:43:39Z</time>
      </trkpt>
      <trkpt lat="43.16055" lon="6.61973">
        <ele>117</ele>
        <time>2012-12-09T09:43:43Z</time>
      </trkpt>
      <trkpt lat="43.1605" lon="6.6197">
        <ele>115.9</ele>
        <time>2012-12-09T09:43:47Z</time>
      </trkpt>
      <trkpt lat="43.16045" lon="6.61973">
        <ele>116.2</ele>
        <time>2012-12-09T09:43:51Z</time>
      </trkpt>
      <trkpt lat="43.16043" lon="6.61979">
        <ele>116</ele>
        <time>2012-12-09T09:43:56Z</time>
      </trkpt>
      <trkpt lat="43.16038" lon="6.61983">
        <ele>114.8</ele>
        <time>2012-12-09T09:44:01Z</time>
      </trkpt>
      <trkpt lat="43.16034" lon="6.61988">
        <ele>114.1</ele>
        <time>2012-12-09T09:44:07Z</time>
      </trkpt>
      <trkpt lat="43.16029" lon="6.6199">
        <ele>114.8</ele>
        <time>2012-12-09T09:44:11Z</time>
      </trkpt>
      <trkpt lat="43.16024" lon="6.61991">
        <ele>115.2</ele>
        <time>2012-12-09T09:44:14Z</time>
      </trkpt>
      <trkpt lat="43.16019" lon="6.6199">
        <ele>115.2</ele>
        <time>2012-12-09T09:44:18Z</time>
      </trkpt>
      <trkpt lat="43.16015" lon="6.61986">
        <ele>115.2</ele>
        <time>2012-12-09T09:44:22Z</time>
      </trkpt>
      <trkpt lat="43.1601" lon="6.61989">
        <ele>114.5</ele>
        <time>2012-12-09T09:44:27Z</time>
      </trkpt>
      <trkpt lat="43.16006" lon="6.61993">
        <ele>110.5</ele>
        <time>2012-12-09T09:44:32Z</time>
      </trkpt>
      <trkpt lat="43.16002" lon="6.61996">
        <ele>110</ele>
        <time>2012-12-09T09:44:38Z</time>
      </trkpt>
      <trkpt lat="43.16004" lon="6.62002">
        <ele>109.9</ele>
        <time>2012-12-09T09:48:39Z</time>
      </trkpt>
      <trkpt lat="43.16" lon="6.62005">
        <ele>110.2</ele>
        <time>2012-12-09T10:03:53Z</time>
      </trkpt>
      <trkpt lat="43.16003" lon="6.62009">
        <ele>111.4</ele>
        <time>2012-12-09T10:11:24Z</time>
      </trkpt>
      <trkpt lat="43.16008" lon="6.62013">
        <ele>113.2</ele>
        <time>2012-12-09T10:11:35Z</time>
      </trkpt>
      <trkpt lat="43.1601" lon="6.62019">
        <ele>113.7</ele>
        <time>2012-12-09T10:11:40Z</time>
      </trkpt>
      <trkpt lat="43.16014" lon="6.62023">
        <ele>114.5</ele>
        <time>2012-12-09T10:11:44Z</time>
      </trkpt>
      <trkpt lat="43.16018" lon="6.62024">
        <ele>115.6</ele>
        <time>2012-12-09T10:11:49Z</time>
      </trkpt>
      <trkpt lat="43.16024" lon="6.62025">
        <ele>115.9</ele>
        <time>2012-12-09T10:11:55Z</time>
      </trkpt>
      <trkpt lat="43.16028" lon="6.62028">
        <ele>116.4</ele>
        <time>2012-12-09T10:12:00Z</time>
      </trkpt>
      <trkpt lat="43.16031" lon="6.62033">
        <ele>115.3</ele>
        <time>2012-12-09T10:12:12Z</time>
      </trkpt>
      <trkpt lat="43.16032" lon="6.62039">
        <ele>109.8</ele>
        <time>2012-12-09T10:12:44Z</time>
      </trkpt>
      <trkpt lat="43.16032" lon="6.62046">
        <ele>106.1</ele>
        <time>2012-12-09T10:12:50Z</time>
      </trkpt>
      <trkpt lat="43.16035" lon="6.62051">
        <ele>105.4</ele>
        <time>2012-12-09T10:12:57Z</time>
      </trkpt>
      <trkpt lat="43.16037" lon="6.62057">
        <ele>101.9</ele>
        <time>2012-12-09T10:13:04Z</time>
      </trkpt>
      <trkpt lat="43.16041" lon="6.62062">
        <ele>104</ele>
        <time>2012-12-09T10:13:09Z</time>
      </trkpt>
      <trkpt lat="43.16044" lon="6.62067">
        <ele>103.2</ele>
        <time>2012-12-09T10:13:13Z</time>
      </trkpt>
      <trkpt lat="43.16048" lon="6.62071">
        <ele>101.8</ele>
        <time>2012-12-09T10:13:17Z</time>
      </trkpt>
      <trkpt lat="43.1605" lon="6.62077">
        <ele>99.6</ele>
        <time>2012-12-09T10:13:23Z</time>
      </trkpt>
      <trkpt lat="43.16053" lon="6.62083">
        <ele>98.4</ele>
        <time>2012-12-09T10:13:28Z</time>
      </trkpt>
      <trkpt lat="43.16057" lon="6.62087">
        <ele>98.3</ele>
        <time>2012-12-09T10:13:32Z</time>
      </trkpt>
      <trkpt lat="43.1606" lon="6.62092">
        <ele>98.3</ele>
        <time>2012-12-09T10:13:37Z</time>
      </trkpt>
      <trkpt lat="43.16063" lon="6.62096">
        <ele>95.8</ele>
        <time>2012-12-09T10:13:41Z</time>
      </trkpt>
      <trkpt lat="43.16065" lon="6.62102">
        <ele>93.4</ele>
        <time>2012-12-09T10:13:48Z</time>
      </trkpt>
      <trkpt lat="43.16067" lon="6.62107">
        <ele>92.7</ele>
        <time>2012-12-09T10:13:54Z</time>
      </trkpt>
      <trkpt lat="43.16069" lon="6.62113">
        <ele>91.2</ele>
        <time>2012-12-09T10:14:02Z</time>
      </trkpt>
      <trkpt lat="43.16071" lon="6.62119">
        <ele>90.2</ele>
        <time>2012-12-09T10:14:08Z</time>
      </trkpt>
      <trkpt lat="43.16072" lon="6.62126">
        <ele>87.8</ele>
        <time>2012-12-09T10:14:15Z</time>
      </trkpt>
      <trkpt lat="43.16071" lon="6.62133">
        <ele>84.8</ele>
        <time>2012-12-09T10:14:24Z</time>
      </trkpt>
      <trkpt lat="43.1607" lon="6.62139">
        <ele>83.6</ele>
        <time>2012-12-09T10:14:30Z</time>
      </trkpt>
      <trkpt lat="43.1607" lon="6.62146">
        <ele>83.4</ele>
        <time>2012-12-09T10:14:35Z</time>
      </trkpt>
      <trkpt lat="43.16073" lon="6.62152">
        <ele>82.7</ele>
        <time>2012-12-09T10:14:39Z</time>
      </trkpt>
      <trkpt lat="43.16075" lon="6.62157">
        <ele>83</ele>
        <time>2012-12-09T10:14:43Z</time>
      </trkpt>
      <trkpt lat="43.16078" lon="6.62163">
        <ele>82.6</ele>
        <time>2012-12-09T10:14:47Z</time>
      </trkpt>
      <trkpt lat="43.1608" lon="6.62169">
        <ele>81.7</ele>
        <time>2012-12-09T10:14:52Z</time>
      </trkpt>
      <trkpt lat="43.16081" lon="6.62176">
        <ele>78.9</ele>
        <time>2012-12-09T10:14:58Z</time>
      </trkpt>
      <trkpt lat="43.16085" lon="6.62179">
        <ele>78.6</ele>
        <time>2012-12-09T10:15:03Z</time>
      </trkpt>
      <trkpt lat="43.1609" lon="6.62182">
        <ele>80.6</ele>
        <time>2012-12-09T10:15:08Z</time>
      </trkpt>
      <trkpt lat="43.16093" lon="6.62186">
        <ele>80.8</ele>
        <time>2012-12-09T10:15:13Z</time>
      </trkpt>
      <trkpt lat="43.16096" lon="6.62192">
        <ele>80.4</ele>
        <time>2012-12-09T10:15:17Z</time>
      </trkpt>
      <trkpt lat="43.161" lon="6.62197">
        <ele>80.4</ele>
        <time>2012-12-09T10:15:21Z</time>
      </trkpt>
      <trkpt lat="43.16104" lon="6.62199">
        <ele>78.5</ele>
        <time>2012-12-09T10:15:26Z</time>
      </trkpt>
      <trkpt lat="43.16108" lon="6.62202">
        <ele>78.4</ele>
        <time>2012-12-09T10:15:30Z</time>
      </trkpt>
      <trkpt lat="43.16112" lon="6.62205">
        <ele>79.3</ele>
        <time>2012-12-09T10:15:35Z</time>
      </trkpt>
      <trkpt lat="43.16117" lon="6.62208">
        <ele>78.3</ele>
        <time>2012-12-09T10:15:40Z</time>
      </trkpt>
      <trkpt lat="43.16122" lon="6.62209">
        <ele>78.6</ele>
        <time>2012-12-09T10:15:44Z</time>
      </trkpt>
      <trkpt lat="43.16127" lon="6.62212">
        <ele>78.7</ele>
        <time>2012-12-09T10:15:48Z</time>
      </trkpt>
      <trkpt lat="43.16132" lon="6.62211">
        <ele>78.1</ele>
        <time>2012-12-09T10:15:52Z</time>
      </trkpt>
      <trkpt lat="43.16137" lon="6.62212">
        <ele>78.1</ele>
        <time>2012-12-09T10:15:56Z</time>
      </trkpt>
      <trkpt lat="43.16141" lon="6.62206">
        <ele>77</ele>
        <time>2012-12-09T10:16:00Z</time>
      </trkpt>
      <trkpt lat="43.16145" lon="6.62201">
        <ele>75</ele>
        <time>2012-12-09T10:16:04Z</time>
      </trkpt>
      <trkpt lat="43.16147" lon="6.62195">
        <ele>74.1</ele>
        <time>2012-12-09T10:16:08Z</time>
      </trkpt>
      <trkpt lat="43.16152" lon="6.62192">
        <ele>73.7</ele>
        <time>2012-12-09T10:16:13Z</time>
      </trkpt>
      <trkpt lat="43.16157" lon="6.62195">
        <ele>75</ele>
        <time>2012-12-09T10:16:16Z</time>
      </trkpt>
      <trkpt lat="43.16162" lon="6.62198">
        <ele>74.6</ele>
        <time>2012-12-09T10:16:20Z</time>
      </trkpt>
      <trkpt lat="43.16167" lon="6.62201">
        <ele>73.6</ele>
        <time>2012-12-09T10:16:25Z</time>
      </trkpt>
      <trkpt lat="43.16172" lon="6.62197">
        <ele>72.4</ele>
        <time>2012-12-09T10:16:29Z</time>
      </trkpt>
      <trkpt lat="43.16176" lon="6.62193">
        <ele>73</ele>
        <time>2012-12-09T10:16:32Z</time>
      </trkpt>
      <trkpt lat="43.16179" lon="6.62188">
        <ele>73.5</ele>
        <time>2012-12-09T10:16:36Z</time>
      </trkpt>
      <trkpt lat="43.16182" lon="6.62182">
        <ele>69.7</ele>
        <time>2012-12-09T10:16:41Z</time>
      </trkpt>
      <trkpt lat="43.16185" lon="6.62178">
        <ele>69.3</ele>
        <time>2012-12-09T10:16:45Z</time>
      </trkpt>
      <trkpt lat="43.16188" lon="6.62174">
        <ele>67</ele>
        <time>2012-12-09T10:16:49Z</time>
      </trkpt>
      <trkpt lat="43.16193" lon="6.62168">
        <ele>66.6</ele>
        <time>2012-12-09T10:16:54Z</time>
      </trkpt>
      <trkpt lat="43.16195" lon="6.62162">
        <ele>63.2</ele>
        <time>2012-12-09T10:16:58Z</time>
      </trkpt>
      <trkpt lat="43.16196" lon="6.62156">
        <ele>62.5</ele>
        <time>2012-12-09T10:17:04Z</time>
      </trkpt>
      <trkpt lat="43.16201" lon="6.6216">
        <ele>63.2</ele>
        <time>2012-12-09T10:17:09Z</time>
      </trkpt>
      <trkpt lat="43.16206" lon="6.62161">
        <ele>62.3</ele>
        <time>2012-12-09T10:17:12Z</time>
      </trkpt>
      <trkpt lat="43.16211" lon="6.62163">
        <ele>62.1</ele>
        <time>2012-12-09T10:17:15Z</time>
      </trkpt>
      <trkpt lat="43.16215" lon="6.62166">
        <ele>64.1</ele>
        <time>2012-12-09T10:17:19Z</time>
      </trkpt>
      <trkpt lat="43.16219" lon="6.62164">
        <ele>63.7</ele>
        <time>2012-12-09T10:17:23Z</time>
      </trkpt>
      <trkpt lat="43.16223" lon="6.62159">
        <ele>62.9</ele>
        <time>2012-12-09T10:17:58Z</time>
      </trkpt>
      <trkpt lat="43.16225" lon="6.62153">
        <ele>63.3</ele>
        <time>2012-12-09T10:18:02Z</time>
      </trkpt>
      <trkpt lat="43.16228" lon="6.62148">
        <ele>64.3</ele>
        <time>2012-12-09T10:18:08Z</time>
      </trkpt>
      <trkpt lat="43.16232" lon="6.62143">
        <ele>64.2</ele>
        <time>2012-12-09T10:18:12Z</time>
      </trkpt>
      <trkpt lat="43.16235" lon="6.62138">
        <ele>61.8</ele>
        <time>2012-12-09T10:18:16Z</time>
      </trkpt>
      <trkpt lat="43.16239" lon="6.62135">
        <ele>60.1</ele>
        <time>2012-12-09T10:18:20Z</time>
      </trkpt>
      <trkpt lat="43.16244" lon="6.62133">
        <ele>60.4</ele>
        <time>2012-12-09T10:18:23Z</time>
      </trkpt>
      <trkpt lat="43.16248" lon="6.62133">
        <ele>60.9</ele>
        <time>2012-12-09T10:18:28Z</time>
      </trkpt>
      <trkpt lat="43.16254" lon="6.62135">
        <ele>60.6</ele>
        <time>2012-12-09T10:18:33Z</time>
      </trkpt>
      <trkpt lat="43.16258" lon="6.62133">
        <ele>61.1</ele>
        <time>2012-12-09T10:18:37Z</time>
      </trkpt>
      <trkpt lat="43.16263" lon="6.62132">
        <ele>61.3</ele>
        <time>2012-12-09T10:18:41Z</time>
      </trkpt>
      <trkpt lat="43.16268" lon="6.62131">
        <ele>60.6</ele>
        <time>2012-12-09T10:18:45Z</time>
      </trkpt>
      <trkpt lat="43.16273" lon="6.6213">
        <ele>61.6</ele>
        <time>2012-12-09T10:19:09Z</time>
      </trkpt>
      <trkpt lat="43.16277" lon="6.62133">
        <ele>63</ele>
        <time>2012-12-09T10:19:12Z</time>
      </trkpt>
      <trkpt lat="43.16282" lon="6.62131">
        <ele>65.1</ele>
        <time>2012-12-09T10:19:18Z</time>
      </trkpt>
      <trkpt lat="43.16286" lon="6.62133">
        <ele>64.9</ele>
        <time>2012-12-09T10:19:26Z</time>
      </trkpt>
      <trkpt lat="43.16291" lon="6.62133">
        <ele>62.8</ele>
        <time>2012-12-09T10:19:31Z</time>
      </trkpt>
      <trkpt lat="43.16294" lon="6.62139">
        <ele>63.5</ele>
        <time>2012-12-09T10:19:37Z</time>
      </trkpt>
      <trkpt lat="43.16299" lon="6.62139">
        <ele>60.9</ele>
        <time>2012-12-09T10:19:41Z</time>
      </trkpt>
      <trkpt lat="43.16304" lon="6.62138">
        <ele>61.1</ele>
        <time>2012-12-09T10:19:45Z</time>
      </trkpt>
      <trkpt lat="43.16309" lon="6.62139">
        <ele>61.6</ele>
        <time>2012-12-09T10:19:49Z</time>
      </trkpt>
      <trkpt lat="43.16314" lon="6.6214">
        <ele>59.7</ele>
        <time>2012-12-09T10:19:53Z</time>
      </trkpt>
      <trkpt lat="43.16319" lon="6.62141">
        <ele>58.1</ele>
        <time>2012-12-09T10:19:56Z</time>
      </trkpt>
      <trkpt lat="43.16323" lon="6.62144">
        <ele>58.5</ele>
        <time>2012-12-09T10:20:01Z</time>
      </trkpt>
      <trkpt lat="43.16327" lon="6.62147">
        <ele>60.6</ele>
        <time>2012-12-09T10:20:09Z</time>
      </trkpt>
      <trkpt lat="43.16333" lon="6.62149">
        <ele>61.2</ele>
        <time>2012-12-09T10:20:14Z</time>
      </trkpt>
      <trkpt lat="43.16337" lon="6.62153">
        <ele>58.6</ele>
        <time>2012-12-09T10:20:19Z</time>
      </trkpt>
      <trkpt lat="43.16342" lon="6.62152">
        <ele>59.5</ele>
        <time>2012-12-09T10:20:24Z</time>
      </trkpt>
      <trkpt lat="43.16346" lon="6.62148">
        <ele>60.6</ele>
        <time>2012-12-09T10:20:29Z</time>
      </trkpt>
      <trkpt lat="43.16351" lon="6.62148">
        <ele>60.5</ele>
        <time>2012-12-09T10:20:33Z</time>
      </trkpt>
      <trkpt lat="43.16356" lon="6.62148">
        <ele>61.1</ele>
        <time>2012-12-09T10:20:38Z</time>
      </trkpt>
      <trkpt lat="43.1636" lon="6.6215">
        <ele>62.4</ele>
        <time>2012-12-09T10:20:42Z</time>
      </trkpt>
      <trkpt lat="43.16364" lon="6.62154">
        <ele>63.7</ele>
        <time>2012-12-09T10:20:46Z</time>
      </trkpt>
      <trkpt lat="43.16368" lon="6.62158">
        <ele>64.1</ele>
        <time>2012-12-09T10:20:50Z</time>
      </trkpt>
      <trkpt lat="43.16372" lon="6.62164">
        <ele>65.9</ele>
        <time>2012-12-09T10:20:54Z</time>
      </trkpt>
      <trkpt lat="43.16374" lon="6.62171">
        <ele>62.8</ele>
        <time>2012-12-09T10:21:00Z</time>
      </trkpt>
      <trkpt lat="43.16377" lon="6.62175">
        <ele>61.6</ele>
        <time>2012-12-09T10:21:04Z</time>
      </trkpt>
      <trkpt lat="43.16379" lon="6.6218">
        <ele>59.2</ele>
        <time>2012-12-09T10:21:11Z</time>
      </trkpt>
      <trkpt lat="43.16383" lon="6.62184">
        <ele>58.3</ele>
        <time>2012-12-09T10:21:17Z</time>
      </trkpt>
      <trkpt lat="43.16388" lon="6.62185">
        <ele>57.5</ele>
        <time>2012-12-09T10:21:29Z</time>
      </trkpt>
      <trkpt lat="43.16391" lon="6.6218">
        <ele>55.7</ele>
        <time>2012-12-09T10:23:46Z</time>
      </trkpt>
      <trkpt lat="43.16396" lon="6.62181">
        <ele>56.2</ele>
        <time>2012-12-09T10:23:52Z</time>
      </trkpt>
      <trkpt lat="43.16401" lon="6.62181">
        <ele>55.7</ele>
        <time>2012-12-09T10:23:56Z</time>
      </trkpt>
      <trkpt lat="43.16406" lon="6.62181">
        <ele>55.5</ele>
        <time>2012-12-09T10:24:00Z</time>
      </trkpt>
      <trkpt lat="43.16411" lon="6.62185">
        <ele>54.7</ele>
        <time>2012-12-09T10:24:04Z</time>
      </trkpt>
      <trkpt lat="43.16416" lon="6.62184">
        <ele>55.7</ele>
        <time>2012-12-09T10:24:10Z</time>
      </trkpt>
      <trkpt lat="43.16421" lon="6.62183">
        <ele>53.9</ele>
        <time>2012-12-09T10:24:14Z</time>
      </trkpt>
      <trkpt lat="43.16426" lon="6.62182">
        <ele>54</ele>
        <time>2012-12-09T10:24:18Z</time>
      </trkpt>
      <trkpt lat="43.16429" lon="6.62186">
        <ele>55.4</ele>
        <time>2012-12-09T10:24:25Z</time>
      </trkpt>
      <trkpt lat="43.16432" lon="6.62192">
        <ele>57.5</ele>
        <time>2012-12-09T10:24:30Z</time>
      </trkpt>
      <trkpt lat="43.16437" lon="6.62195">
        <ele>56.7</ele>
        <time>2012-12-09T10:24:34Z</time>
      </trkpt>
      <trkpt lat="43.16441" lon="6.62198">
        <ele>56.4</ele>
        <time>2012-12-09T10:24:38Z</time>
      </trkpt>
      <trkpt lat="43.16445" lon="6.622">
        <ele>54.5</ele>
        <time>2012-12-09T10:24:42Z</time>
      </trkpt>
      <trkpt lat="43.1645" lon="6.62201">
        <ele>53.8</ele>
        <time>2012-12-09T10:24:45Z</time>
      </trkpt>
      <trkpt lat="43.16455" lon="6.62204">
        <ele>53.5</ele>
        <time>2012-12-09T10:24:49Z</time>
      </trkpt>
      <trkpt lat="43.16459" lon="6.62208">
        <ele>53.9</ele>
        <time>2012-12-09T10:24:53Z</time>
      </trkpt>
      <trkpt lat="43.16464" lon="6.62211">
        <ele>53.8</ele>
        <time>2012-12-09T10:24:57Z</time>
      </trkpt>
      <trkpt lat="43.16469" lon="6.62215">
        <ele>54.3</ele>
        <time>2012-12-09T10:25:02Z</time>
      </trkpt>
      <trkpt lat="43.16472" lon="6.62219">
        <ele>54.1</ele>
        <time>2012-12-09T10:25:06Z</time>
      </trkpt>
      <trkpt lat="43.16477" lon="6.62223">
        <ele>55</ele>
        <time>2012-12-09T10:25:10Z</time>
      </trkpt>
      <trkpt lat="43.16481" lon="6.62226">
        <ele>54.3</ele>
        <time>2012-12-09T10:25:13Z</time>
      </trkpt>
      <trkpt lat="43.16484" lon="6.6223">
        <ele>55.8</ele>
        <time>2012-12-09T10:25:18Z</time>
      </trkpt>
      <trkpt lat="43.16487" lon="6.62235">
        <ele>55</ele>
        <time>2012-12-09T10:25:23Z</time>
      </trkpt>
      <trkpt lat="43.16491" lon="6.62238">
        <ele>55.8</ele>
        <time>2012-12-09T10:25:27Z</time>
      </trkpt>
      <trkpt lat="43.16496" lon="6.62241">
        <ele>55.1</ele>
        <time>2012-12-09T10:25:31Z</time>
      </trkpt>
      <trkpt lat="43.165" lon="6.62243">
        <ele>53.5</ele>
        <time>2012-12-09T10:25:34Z</time>
      </trkpt>
      <trkpt lat="43.16503" lon="6.62249">
        <ele>53.2</ele>
        <time>2012-12-09T10:25:38Z</time>
      </trkpt>
      <trkpt lat="43.16505" lon="6.62256">
        <ele>56.4</ele>
        <time>2012-12-09T10:25:43Z</time>
      </trkpt>
      <trkpt lat="43.16509" lon="6.6226">
        <ele>56.5</ele>
        <time>2012-12-09T10:25:48Z</time>
      </trkpt>
      <trkpt lat="43.16513" lon="6.62263">
        <ele>58.3</ele>
        <time>2012-12-09T10:25:52Z</time>
      </trkpt>
      <trkpt lat="43.16516" lon="6.62269">
        <ele>58.6</ele>
        <time>2012-12-09T10:25:57Z</time>
      </trkpt>
      <trkpt lat="43.16518" lon="6.62274">
        <ele>59.2</ele>
        <time>2012-12-09T10:26:02Z</time>
      </trkpt>
      <trkpt lat="43.16522" lon="6.62276">
        <ele>59.9</ele>
        <time>2012-12-09T10:26:06Z</time>
      </trkpt>
      <trkpt lat="43.16527" lon="6.62278">
        <ele>60.1</ele>
        <time>2012-12-09T10:26:16Z</time>
      </trkpt>
      <trkpt lat="43.16529" lon="6.62285">
        <ele>58.4</ele>
        <time>2012-12-09T10:26:21Z</time>
      </trkpt>
      <trkpt lat="43.16534" lon="6.62289">
        <ele>55.7</ele>
        <time>2012-12-09T10:26:25Z</time>
      </trkpt>
      <trkpt lat="43.1654" lon="6.62291">
        <ele>55.1</ele>
        <time>2012-12-09T10:26:29Z</time>
      </trkpt>
      <trkpt lat="43.16543" lon="6.62295">
        <ele>55.5</ele>
        <time>2012-12-09T10:26:32Z</time>
      </trkpt>
      <trkpt lat="43.16547" lon="6.62299">
        <ele>55</ele>
        <time>2012-12-09T10:26:35Z</time>
      </trkpt>
      <trkpt lat="43.16551" lon="6.62303">
        <ele>55.8</ele>
        <time>2012-12-09T10:26:39Z</time>
      </trkpt>
      <trkpt lat="43.16556" lon="6.62306">
        <ele>58.2</ele>
        <time>2012-12-09T10:26:44Z</time>
      </trkpt>
      <trkpt lat="43.16559" lon="6.6231">
        <ele>58.1</ele>
        <time>2012-12-09T10:26:48Z</time>
      </trkpt>
      <trkpt lat="43.16559" lon="6.62317">
        <ele>56.1</ele>
        <time>2012-12-09T10:26:52Z</time>
      </trkpt>
      <trkpt lat="43.1656" lon="6.62324">
        <ele>55.8</ele>
        <time>2012-12-09T10:26:57Z</time>
      </trkpt>
      <trkpt lat="43.16564" lon="6.62329">
        <ele>55.1</ele>
        <time>2012-12-09T10:27:01Z</time>
      </trkpt>
      <trkpt lat="43.16568" lon="6.62335">
        <ele>56.2</ele>
        <time>2012-12-09T10:27:05Z</time>
      </trkpt>
      <trkpt lat="43.16571" lon="6.6234">
        <ele>55</ele>
        <time>2012-12-09T10:27:08Z</time>
      </trkpt>
      <trkpt lat="43.16574" lon="6.62344">
        <ele>56</ele>
        <time>2012-12-09T10:27:11Z</time>
      </trkpt>
      <trkpt lat="43.16578" lon="6.62348">
        <ele>55</ele>
        <time>2012-12-09T10:27:14Z</time>
      </trkpt>
      <trkpt lat="43.16581" lon="6.62352">
        <ele>54.8</ele>
        <time>2012-12-09T10:27:17Z</time>
      </trkpt>
      <trkpt lat="43.16585" lon="6.62356">
        <ele>54.1</ele>
        <time>2012-12-09T10:27:20Z</time>
      </trkpt>
      <trkpt lat="43.16589" lon="6.62361">
        <ele>54.4</ele>
        <time>2012-12-09T10:27:23Z</time>
      </trkpt>
      <trkpt lat="43.16592" lon="6.62365">
        <ele>54.1</ele>
        <time>2012-12-09T10:27:26Z</time>
      </trkpt>
      <trkpt lat="43.16597" lon="6.62369">
        <ele>53.6</ele>
        <time>2012-12-09T10:27:30Z</time>
      </trkpt>
      <trkpt lat="43.16601" lon="6.62372">
        <ele>52.6</ele>
        <time>2012-12-09T10:27:34Z</time>
      </trkpt>
      <trkpt lat="43.16603" lon="6.62379">
        <ele>50.5</ele>
        <time>2012-12-09T10:27:38Z</time>
      </trkpt>
      <trkpt lat="43.16602" lon="6.62387">
        <ele>50.5</ele>
        <time>2012-12-09T10:27:42Z</time>
      </trkpt>
      <trkpt lat="43.16602" lon="6.62394">
        <ele>51.5</ele>
        <time>2012-12-09T10:27:47Z</time>
      </trkpt>
      <trkpt lat="43.16606" lon="6.62398">
        <ele>52.7</ele>
        <time>2012-12-09T10:27:54Z</time>
      </trkpt>
      <trkpt lat="43.16604" lon="6.62403">
        <ele>57.1</ele>
        <time>2012-12-09T10:28:02Z</time>
      </trkpt>
      <trkpt lat="43.16604" lon="6.6241">
        <ele>57.2</ele>
        <time>2012-12-09T10:28:10Z</time>
      </trkpt>
      <trkpt lat="43.16609" lon="6.62412">
        <ele>58.6</ele>
        <time>2012-12-09T10:28:16Z</time>
      </trkpt>
      <trkpt lat="43.16611" lon="6.62419">
        <ele>59</ele>
        <time>2012-12-09T10:28:24Z</time>
      </trkpt>
      <trkpt lat="43.16612" lon="6.62426">
        <ele>59.1</ele>
        <time>2012-12-09T10:28:28Z</time>
      </trkpt>
      <trkpt lat="43.16613" lon="6.62432">
        <ele>60.6</ele>
        <time>2012-12-09T10:28:35Z</time>
      </trkpt>
      <trkpt lat="43.16617" lon="6.62436">
        <ele>61.2</ele>
        <time>2012-12-09T10:28:41Z</time>
      </trkpt>
      <trkpt lat="43.1662" lon="6.62442">
        <ele>61.6</ele>
        <time>2012-12-09T10:28:47Z</time>
      </trkpt>
      <trkpt lat="43.16624" lon="6.62444">
        <ele>63.7</ele>
        <time>2012-12-09T10:28:54Z</time>
      </trkpt>
      <trkpt lat="43.16627" lon="6.62448">
        <ele>65.4</ele>
        <time>2012-12-09T10:29:03Z</time>
      </trkpt>
      <trkpt lat="43.1663" lon="6.62453">
        <ele>67.9</ele>
        <time>2012-12-09T10:29:12Z</time>
      </trkpt>
      <trkpt lat="43.16631" lon="6.6246">
        <ele>68.5</ele>
        <time>2012-12-09T10:29:17Z</time>
      </trkpt>
      <trkpt lat="43.16634" lon="6.62464">
        <ele>68.3</ele>
        <time>2012-12-09T10:29:21Z</time>
      </trkpt>
      <trkpt lat="43.16637" lon="6.6247">
        <ele>68.2</ele>
        <time>2012-12-09T10:29:25Z</time>
      </trkpt>
      <trkpt lat="43.1664" lon="6.62477">
        <ele>67.9</ele>
        <time>2012-12-09T10:29:30Z</time>
      </trkpt>
      <trkpt lat="43.16641" lon="6.62483">
        <ele>67.6</ele>
        <time>2012-12-09T10:29:34Z</time>
      </trkpt>
      <trkpt lat="43.16641" lon="6.6249">
        <ele>69.8</ele>
        <time>2012-12-09T10:29:38Z</time>
      </trkpt>
      <trkpt lat="43.16642" lon="6.62498">
        <ele>69.4</ele>
        <time>2012-12-09T10:29:42Z</time>
      </trkpt>
      <trkpt lat="43.16642" lon="6.62504">
        <ele>68.7</ele>
        <time>2012-12-09T10:29:46Z</time>
      </trkpt>
      <trkpt lat="43.16643" lon="6.6251">
        <ele>68.9</ele>
        <time>2012-12-09T10:29:50Z</time>
      </trkpt>
      <trkpt lat="43.16642" lon="6.62517">
        <ele>70.5</ele>
        <time>2012-12-09T10:29:54Z</time>
      </trkpt>
      <trkpt lat="43.16641" lon="6.62523">
        <ele>71.6</ele>
        <time>2012-12-09T10:29:58Z</time>
      </trkpt>
      <trkpt lat="43.1664" lon="6.6253">
        <ele>74.5</ele>
        <time>2012-12-09T10:30:03Z</time>
      </trkpt>
      <trkpt lat="43.1664" lon="6.62537">
        <ele>74.6</ele>
        <time>2012-12-09T10:30:08Z</time>
      </trkpt>
      <trkpt lat="43.16642" lon="6.62544">
        <ele>72.7</ele>
        <time>2012-12-09T10:30:12Z</time>
      </trkpt>
      <trkpt lat="43.16646" lon="6.62547">
        <ele>72.4</ele>
        <time>2012-12-09T10:30:16Z</time>
      </trkpt>
      <trkpt lat="43.1665" lon="6.62549">
        <ele>71.8</ele>
        <time>2012-12-09T10:30:20Z</time>
      </trkpt>
      <trkpt lat="43.16655" lon="6.62552">
        <ele>72.1</ele>
        <time>2012-12-09T10:30:25Z</time>
      </trkpt>
      <trkpt lat="43.1666" lon="6.62556">
        <ele>73</ele>
        <time>2012-12-09T10:30:30Z</time>
      </trkpt>
      <trkpt lat="43.16663" lon="6.62561">
        <ele>74.6</ele>
        <time>2012-12-09T10:30:37Z</time>
      </trkpt>
      <trkpt lat="43.16665" lon="6.62567">
        <ele>74.6</ele>
        <time>2012-12-09T10:30:42Z</time>
      </trkpt>
      <trkpt lat="43.16668" lon="6.62572">
        <ele>75.2</ele>
        <time>2012-12-09T10:30:46Z</time>
      </trkpt>
      <trkpt lat="43.16672" lon="6.62577">
        <ele>75.8</ele>
        <time>2012-12-09T10:30:51Z</time>
      </trkpt>
      <trkpt lat="43.16676" lon="6.62581">
        <ele>76.3</ele>
        <time>2012-12-09T10:30:55Z</time>
      </trkpt>
      <trkpt lat="43.1668" lon="6.62586">
        <ele>76.6</ele>
        <time>2012-12-09T10:31:00Z</time>
      </trkpt>
      <trkpt lat="43.16684" lon="6.62589">
        <ele>77.2</ele>
        <time>2012-12-09T10:31:05Z</time>
      </trkpt>
      <trkpt lat="43.16689" lon="6.62594">
        <ele>77.5</ele>
        <time>2012-12-09T10:31:10Z</time>
      </trkpt>
      <trkpt lat="43.16694" lon="6.62597">
        <ele>79.7</ele>
        <time>2012-12-09T10:31:14Z</time>
      </trkpt>
      <trkpt lat="43.16698" lon="6.62601">
        <ele>79.6</ele>
        <time>2012-12-09T10:31:24Z</time>
      </trkpt>
      <trkpt lat="43.16702" lon="6.62604">
        <ele>80.4</ele>
        <time>2012-12-09T10:31:29Z</time>
      </trkpt>
      <trkpt lat="43.16706" lon="6.62608">
        <ele>82.8</ele>
        <time>2012-12-09T10:31:34Z</time>
      </trkpt>
      <trkpt lat="43.16709" lon="6.62613">
        <ele>83</ele>
        <time>2012-12-09T10:31:39Z</time>
      </trkpt>
      <trkpt lat="43.16706" lon="6.62617">
        <ele>81.5</ele>
        <time>2012-12-09T10:32:14Z</time>
      </trkpt>
      <trkpt lat="43.16704" lon="6.62623">
        <ele>79.3</ele>
        <time>2012-12-09T10:32:20Z</time>
      </trkpt>
      <trkpt lat="43.16707" lon="6.62628">
        <ele>81.1</ele>
        <time>2012-12-09T10:32:25Z</time>
      </trkpt>
      <trkpt lat="43.16711" lon="6.62631">
        <ele>82</ele>
        <time>2012-12-09T10:32:30Z</time>
      </trkpt>
      <trkpt lat="43.16716" lon="6.6263">
        <ele>82.1</ele>
        <time>2012-12-09T10:32:35Z</time>
      </trkpt>
      <trkpt lat="43.1672" lon="6.62634">
        <ele>82.1</ele>
        <time>2012-12-09T10:32:40Z</time>
      </trkpt>
      <trkpt lat="43.16724" lon="6.62634">
        <ele>82.5</ele>
        <time>2012-12-09T10:32:47Z</time>
      </trkpt>
      <trkpt lat="43.16729" lon="6.62632">
        <ele>81.5</ele>
        <time>2012-12-09T10:32:52Z</time>
      </trkpt>
      <trkpt lat="43.16734" lon="6.62632">
        <ele>81.8</ele>
        <time>2012-12-09T10:32:56Z</time>
      </trkpt>
      <trkpt lat="43.16739" lon="6.62631">
        <ele>82.3</ele>
        <time>2012-12-09T10:33:00Z</time>
      </trkpt>
      <trkpt lat="43.16744" lon="6.62631">
        <ele>83.6</ele>
        <time>2012-12-09T10:33:04Z</time>
      </trkpt>
      <trkpt lat="43.16749" lon="6.6263">
        <ele>83.8</ele>
        <time>2012-12-09T10:33:09Z</time>
      </trkpt>
      <trkpt lat="43.16754" lon="6.62632">
        <ele>84.1</ele>
        <time>2012-12-09T10:33:14Z</time>
      </trkpt>
      <trkpt lat="43.16758" lon="6.6263">
        <ele>85.2</ele>
        <time>2012-12-09T10:33:23Z</time>
      </trkpt>
      <trkpt lat="43.16763" lon="6.62629">
        <ele>85.1</ele>
        <time>2012-12-09T10:33:28Z</time>
      </trkpt>
      <trkpt lat="43.16768" lon="6.62631">
        <ele>86</ele>
        <time>2012-12-09T10:33:32Z</time>
      </trkpt>
      <trkpt lat="43.16772" lon="6.62634">
        <ele>85.4</ele>
        <time>2012-12-09T10:33:36Z</time>
      </trkpt>
      <trkpt lat="43.16775" lon="6.62639">
        <ele>84.5</ele>
        <time>2012-12-09T10:33:41Z</time>
      </trkpt>
      <trkpt lat="43.16779" lon="6.62644">
        <ele>84.2</ele>
        <time>2012-12-09T10:33:46Z</time>
      </trkpt>
      <trkpt lat="43.16782" lon="6.62649">
        <ele>83.6</ele>
        <time>2012-12-09T10:33:50Z</time>
      </trkpt>
      <trkpt lat="43.16784" lon="6.62655">
        <ele>81.4</ele>
        <time>2012-12-09T10:33:55Z</time>
      </trkpt>
      <trkpt lat="43.16788" lon="6.6266">
        <ele>77</ele>
        <time>2012-12-09T10:33:59Z</time>
      </trkpt>
      <trkpt lat="43.16792" lon="6.62665">
        <ele>75.5</ele>
        <time>2012-12-09T10:34:03Z</time>
      </trkpt>
      <trkpt lat="43.16797" lon="6.62668">
        <ele>73.2</ele>
        <time>2012-12-09T10:34:07Z</time>
      </trkpt>
      <trkpt lat="43.16801" lon="6.62673">
        <ele>74.9</ele>
        <time>2012-12-09T10:34:11Z</time>
      </trkpt>
      <trkpt lat="43.16806" lon="6.62678">
        <ele>74.3</ele>
        <time>2012-12-09T10:34:15Z</time>
      </trkpt>
      <trkpt lat="43.1681" lon="6.6268">
        <ele>72</ele>
        <time>2012-12-09T10:34:19Z</time>
      </trkpt>
      <trkpt lat="43.16813" lon="6.62686">
        <ele>70.9</ele>
        <time>2012-12-09T10:34:24Z</time>
      </trkpt>
      <trkpt lat="43.16814" lon="6.62692">
        <ele>68.9</ele>
        <time>2012-12-09T10:34:31Z</time>
      </trkpt>
      <trkpt lat="43.16815" lon="6.62699">
        <ele>71.7</ele>
        <time>2012-12-09T10:34:36Z</time>
      </trkpt>
      <trkpt lat="43.16818" lon="6.62704">
        <ele>73</ele>
        <time>2012-12-09T10:34:39Z</time>
      </trkpt>
      <trkpt lat="43.16822" lon="6.6271">
        <ele>73.3</ele>
        <time>2012-12-09T10:34:43Z</time>
      </trkpt>
      <trkpt lat="43.16828" lon="6.62709">
        <ele>66.8</ele>
        <time>2012-12-09T10:35:45Z</time>
      </trkpt>
      <trkpt lat="43.16832" lon="6.62712">
        <ele>64.5</ele>
        <time>2012-12-09T10:35:49Z</time>
      </trkpt>
      <trkpt lat="43.16837" lon="6.62714">
        <ele>65</ele>
        <time>2012-12-09T10:35:53Z</time>
      </trkpt>
      <trkpt lat="43.16841" lon="6.62718">
        <ele>64.3</ele>
        <time>2012-12-09T10:35:57Z</time>
      </trkpt>
      <trkpt lat="43.16845" lon="6.62722">
        <ele>64.1</ele>
        <time>2012-12-09T10:36:01Z</time>
      </trkpt>
      <trkpt lat="43.16849" lon="6.62725">
        <ele>62.6</ele>
        <time>2012-12-09T10:36:06Z</time>
      </trkpt>
      <trkpt lat="43.16854" lon="6.62728">
        <ele>61.7</ele>
        <time>2012-12-09T10:36:11Z</time>
      </trkpt>
      <trkpt lat="43.16859" lon="6.62728">
        <ele>61.1</ele>
        <time>2012-12-09T10:36:15Z</time>
      </trkpt>
      <trkpt lat="43.16864" lon="6.62729">
        <ele>61.1</ele>
        <time>2012-12-09T10:36:20Z</time>
      </trkpt>
      <trkpt lat="43.16867" lon="6.62734">
        <ele>62.2</ele>
        <time>2012-12-09T10:36:27Z</time>
      </trkpt>
      <trkpt lat="43.1687" lon="6.62738">
        <ele>62.9</ele>
        <time>2012-12-09T10:36:31Z</time>
      </trkpt>
      <trkpt lat="43.16873" lon="6.62744">
        <ele>62.2</ele>
        <time>2012-12-09T10:36:36Z</time>
      </trkpt>
      <trkpt lat="43.16877" lon="6.62747">
        <ele>60.5</ele>
        <time>2012-12-09T10:36:40Z</time>
      </trkpt>
      <trkpt lat="43.16883" lon="6.62749">
        <ele>59.3</ele>
        <time>2012-12-09T10:36:44Z</time>
      </trkpt>
      <trkpt lat="43.16887" lon="6.62752">
        <ele>60.4</ele>
        <time>2012-12-09T10:36:48Z</time>
      </trkpt>
      <trkpt lat="43.16891" lon="6.62756">
        <ele>59.9</ele>
        <time>2012-12-09T10:37:11Z</time>
      </trkpt>
      <trkpt lat="43.16894" lon="6.6276">
        <ele>59.8</ele>
        <time>2012-12-09T10:37:17Z</time>
      </trkpt>
      <trkpt lat="43.16899" lon="6.62763">
        <ele>59.7</ele>
        <time>2012-12-09T10:37:22Z</time>
      </trkpt>
      <trkpt lat="43.16903" lon="6.62767">
        <ele>60.6</ele>
        <time>2012-12-09T10:37:27Z</time>
      </trkpt>
      <trkpt lat="43.16906" lon="6.62772">
        <ele>60.8</ele>
        <time>2012-12-09T10:37:34Z</time>
      </trkpt>
      <trkpt lat="43.1691" lon="6.62775">
        <ele>62.5</ele>
        <time>2012-12-09T10:37:44Z</time>
      </trkpt>
      <trkpt lat="43.16914" lon="6.6278">
        <ele>62.4</ele>
        <time>2012-12-09T10:37:55Z</time>
      </trkpt>
      <trkpt lat="43.16916" lon="6.62786">
        <ele>62.7</ele>
        <time>2012-12-09T10:38:00Z</time>
      </trkpt>
      <trkpt lat="43.16919" lon="6.62792">
        <ele>63.1</ele>
        <time>2012-12-09T10:38:04Z</time>
      </trkpt>
      <trkpt lat="43.16922" lon="6.62797">
        <ele>63.8</ele>
        <time>2012-12-09T10:38:08Z</time>
      </trkpt>
      <trkpt lat="43.16924" lon="6.62804">
        <ele>65.2</ele>
        <time>2012-12-09T10:38:16Z</time>
      </trkpt>
      <trkpt lat="43.16927" lon="6.62809">
        <ele>67.6</ele>
        <time>2012-12-09T10:38:23Z</time>
      </trkpt>
      <trkpt lat="43.16932" lon="6.62808">
        <ele>69.8</ele>
        <time>2012-12-09T10:39:14Z</time>
      </trkpt>
      <trkpt lat="43.16936" lon="6.6281">
        <ele>72.3</ele>
        <time>2012-12-09T10:39:22Z</time>
      </trkpt>
      <trkpt lat="43.16936" lon="6.62803">
        <ele>75.3</ele>
        <time>2012-12-09T10:39:32Z</time>
      </trkpt>
      <trkpt lat="43.16941" lon="6.62801">
        <ele>78.9</ele>
        <time>2012-12-09T10:39:40Z</time>
      </trkpt>
      <trkpt lat="43.16945" lon="6.62798">
        <ele>80.9</ele>
        <time>2012-12-09T10:39:47Z</time>
      </trkpt>
      <trkpt lat="43.1695" lon="6.62798">
        <ele>83.1</ele>
        <time>2012-12-09T10:39:58Z</time>
      </trkpt>
      <trkpt lat="43.16952" lon="6.62792">
        <ele>85.9</ele>
        <time>2012-12-09T10:40:06Z</time>
      </trkpt>
      <trkpt lat="43.16956" lon="6.62788">
        <ele>83.3</ele>
        <time>2012-12-09T10:40:14Z</time>
      </trkpt>
      <trkpt lat="43.16957" lon="6.62794">
        <ele>84.2</ele>
        <time>2012-12-09T10:40:21Z</time>
      </trkpt>
      <trkpt lat="43.1696" lon="6.62799">
        <ele>87.4</ele>
        <time>2012-12-09T10:40:28Z</time>
      </trkpt>
      <trkpt lat="43.16963" lon="6.62804">
        <ele>87.8</ele>
        <time>2012-12-09T10:40:37Z</time>
      </trkpt>
      <trkpt lat="43.16965" lon="6.6281">
        <ele>90.2</ele>
        <time>2012-12-09T10:40:45Z</time>
      </trkpt>
      <trkpt lat="43.16966" lon="6.62816">
        <ele>91.6</ele>
        <time>2012-12-09T10:40:52Z</time>
      </trkpt>
      <trkpt lat="43.16968" lon="6.62822">
        <ele>93.3</ele>
        <time>2012-12-09T10:40:58Z</time>
      </trkpt>
      <trkpt lat="43.1697" lon="6.62828">
        <ele>93.4</ele>
        <time>2012-12-09T10:41:03Z</time>
      </trkpt>
      <trkpt lat="43.16974" lon="6.62833">
        <ele>92.8</ele>
        <time>2012-12-09T10:41:10Z</time>
      </trkpt>
      <trkpt lat="43.16976" lon="6.62839">
        <ele>93.7</ele>
        <time>2012-12-09T10:41:15Z</time>
      </trkpt>
      <trkpt lat="43.16978" lon="6.62846">
        <ele>94</ele>
        <time>2012-12-09T10:41:19Z</time>
      </trkpt>
      <trkpt lat="43.16979" lon="6.62853">
        <ele>94.7</ele>
        <time>2012-12-09T10:41:23Z</time>
      </trkpt>
      <trkpt lat="43.16977" lon="6.6286">
        <ele>94.7</ele>
        <time>2012-12-09T10:41:27Z</time>
      </trkpt>
      <trkpt lat="43.1698" lon="6.62866">
        <ele>91.4</ele>
        <time>2012-12-09T10:41:31Z</time>
      </trkpt>
      <trkpt lat="43.16982" lon="6.62872">
        <ele>90.7</ele>
        <time>2012-12-09T10:41:35Z</time>
      </trkpt>
      <trkpt lat="43.16982" lon="6.62879">
        <ele>87.8</ele>
        <time>2012-12-09T10:41:41Z</time>
      </trkpt>
      <trkpt lat="43.16984" lon="6.62884">
        <ele>83.8</ele>
        <time>2012-12-09T10:41:46Z</time>
      </trkpt>
      <trkpt lat="43.16987" lon="6.6289">
        <ele>83</ele>
        <time>2012-12-09T10:41:51Z</time>
      </trkpt>
      <trkpt lat="43.1699" lon="6.62897">
        <ele>81.3</ele>
        <time>2012-12-09T10:41:55Z</time>
      </trkpt>
      <trkpt lat="43.16994" lon="6.62901">
        <ele>83.3</ele>
        <time>2012-12-09T10:41:58Z</time>
      </trkpt>
      <trkpt lat="43.16998" lon="6.62905">
        <ele>85.1</ele>
        <time>2012-12-09T10:42:02Z</time>
      </trkpt>
      <trkpt lat="43.17002" lon="6.62908">
        <ele>84.8</ele>
        <time>2012-12-09T10:42:07Z</time>
      </trkpt>
      <trkpt lat="43.17007" lon="6.62912">
        <ele>85.2</ele>
        <time>2012-12-09T10:42:14Z</time>
      </trkpt>
      <trkpt lat="43.17011" lon="6.62916">
        <ele>85.9</ele>
        <time>2012-12-09T10:42:18Z</time>
      </trkpt>
      <trkpt lat="43.17015" lon="6.6292">
        <ele>85.5</ele>
        <time>2012-12-09T10:42:23Z</time>
      </trkpt>
      <trkpt lat="43.17018" lon="6.62926">
        <ele>82.7</ele>
        <time>2012-12-09T10:42:30Z</time>
      </trkpt>
      <trkpt lat="43.17015" lon="6.6293">
        <ele>81.2</ele>
        <time>2012-12-09T10:42:39Z</time>
      </trkpt>
      <trkpt lat="43.1701" lon="6.62934">
        <ele>80.8</ele>
        <time>2012-12-09T10:42:44Z</time>
      </trkpt>
      <trkpt lat="43.17009" lon="6.6294">
        <ele>82</ele>
        <time>2012-12-09T10:42:52Z</time>
      </trkpt>
      <trkpt lat="43.17009" lon="6.62947">
        <ele>83.4</ele>
        <time>2012-12-09T10:42:58Z</time>
      </trkpt>
      <trkpt lat="43.17004" lon="6.62949">
        <ele>80.9</ele>
        <time>2012-12-09T10:43:03Z</time>
      </trkpt>
      <trkpt lat="43.17" lon="6.62952">
        <ele>81.8</ele>
        <time>2012-12-09T10:43:11Z</time>
      </trkpt>
      <trkpt lat="43.16996" lon="6.62955">
        <ele>80.2</ele>
        <time>2012-12-09T10:43:18Z</time>
      </trkpt>
      <trkpt lat="43.16992" lon="6.62959">
        <ele>77.2</ele>
        <time>2012-12-09T10:43:31Z</time>
      </trkpt>
      <trkpt lat="43.1699" lon="6.62965">
        <ele>77</ele>
        <time>2012-12-09T10:43:35Z</time>
      </trkpt>
      <trkpt lat="43.16994" lon="6.62968">
        <ele>73</ele>
        <time>2012-12-09T10:43:44Z</time>
      </trkpt>
      <trkpt lat="43.16997" lon="6.62974">
        <ele>72.3</ele>
        <time>2012-12-09T10:43:48Z</time>
      </trkpt>
      <trkpt lat="43.16999" lon="6.62981">
        <ele>71.7</ele>
        <time>2012-12-09T10:43:51Z</time>
      </trkpt>
      <trkpt lat="43.17003" lon="6.62987">
        <ele>74.9</ele>
        <time>2012-12-09T10:43:54Z</time>
      </trkpt>
      <trkpt lat="43.17005" lon="6.62993">
        <ele>76.7</ele>
        <time>2012-12-09T10:43:57Z</time>
      </trkpt>
      <trkpt lat="43.1701" lon="6.62996">
        <ele>76.3</ele>
        <time>2012-12-09T10:44:01Z</time>
      </trkpt>
      <trkpt lat="43.17015" lon="6.62996">
        <ele>75.3</ele>
        <time>2012-12-09T10:44:05Z</time>
      </trkpt>
      <trkpt lat="43.17021" lon="6.62995">
        <ele>73.5</ele>
        <time>2012-12-09T10:44:09Z</time>
      </trkpt>
      <trkpt lat="43.17025" lon="6.62996">
        <ele>74.8</ele>
        <time>2012-12-09T10:44:13Z</time>
      </trkpt>
      <trkpt lat="43.1703" lon="6.63001">
        <ele>74.5</ele>
        <time>2012-12-09T10:44:17Z</time>
      </trkpt>
      <trkpt lat="43.17034" lon="6.63004">
        <ele>72.6</ele>
        <time>2012-12-09T10:44:21Z</time>
      </trkpt>
      <trkpt lat="43.17039" lon="6.63004">
        <ele>71.1</ele>
        <time>2012-12-09T10:44:25Z</time>
      </trkpt>
      <trkpt lat="43.17043" lon="6.63001">
        <ele>69.7</ele>
        <time>2012-12-09T10:44:28Z</time>
      </trkpt>
      <trkpt lat="43.17048" lon="6.63001">
        <ele>71.3</ele>
        <time>2012-12-09T10:44:32Z</time>
      </trkpt>
      <trkpt lat="43.17052" lon="6.63004">
        <ele>71.5</ele>
        <time>2012-12-09T10:44:37Z</time>
      </trkpt>
      <trkpt lat="43.17057" lon="6.63003">
        <ele>66.5</ele>
        <time>2012-12-09T10:44:41Z</time>
      </trkpt>
      <trkpt lat="43.17062" lon="6.63001">
        <ele>64.2</ele>
        <time>2012-12-09T10:44:46Z</time>
      </trkpt>
      <trkpt lat="43.17066" lon="6.63004">
        <ele>61.6</ele>
        <time>2012-12-09T10:44:52Z</time>
      </trkpt>
      <trkpt lat="43.17066" lon="6.63011">
        <ele>64.4</ele>
        <time>2012-12-09T10:45:00Z</time>
      </trkpt>
      <trkpt lat="43.17068" lon="6.63017">
        <ele>64.3</ele>
        <time>2012-12-09T10:45:04Z</time>
      </trkpt>
      <trkpt lat="43.17071" lon="6.63022">
        <ele>63.8</ele>
        <time>2012-12-09T10:45:08Z</time>
      </trkpt>
      <trkpt lat="43.17076" lon="6.63025">
        <ele>62.2</ele>
        <time>2012-12-09T10:45:12Z</time>
      </trkpt>
      <trkpt lat="43.17081" lon="6.63028">
        <ele>61.4</ele>
        <time>2012-12-09T10:45:16Z</time>
      </trkpt>
      <trkpt lat="43.17085" lon="6.6303">
        <ele>59.3</ele>
        <time>2012-12-09T10:45:19Z</time>
      </trkpt>
      <trkpt lat="43.1709" lon="6.63033">
        <ele>60.5</ele>
        <time>2012-12-09T10:45:23Z</time>
      </trkpt>
      <trkpt lat="43.17094" lon="6.63035">
        <ele>63.7</ele>
        <time>2012-12-09T10:45:30Z</time>
      </trkpt>
      <trkpt lat="43.17099" lon="6.63039">
        <ele>64.8</ele>
        <time>2012-12-09T10:45:36Z</time>
      </trkpt>
      <trkpt lat="43.17103" lon="6.63044">
        <ele>64.3</ele>
        <time>2012-12-09T10:45:40Z</time>
      </trkpt>
      <trkpt lat="43.17107" lon="6.63048">
        <ele>63.6</ele>
        <time>2012-12-09T10:45:43Z</time>
      </trkpt>
      <trkpt lat="43.1711" lon="6.63053">
        <ele>63.1</ele>
        <time>2012-12-09T10:45:48Z</time>
      </trkpt>
      <trkpt lat="43.17113" lon="6.63059">
        <ele>64.7</ele>
        <time>2012-12-09T10:45:55Z</time>
      </trkpt>
      <trkpt lat="43.17115" lon="6.63065">
        <ele>65.1</ele>
        <time>2012-12-09T10:46:01Z</time>
      </trkpt>
      <trkpt lat="43.17119" lon="6.6307">
        <ele>63.2</ele>
        <time>2012-12-09T10:46:06Z</time>
      </trkpt>
      <trkpt lat="43.17122" lon="6.63076">
        <ele>60.6</ele>
        <time>2012-12-09T10:46:09Z</time>
      </trkpt>
      <trkpt lat="43.17123" lon="6.63084">
        <ele>60</ele>
        <time>2012-12-09T10:46:13Z</time>
      </trkpt>
      <trkpt lat="43.17125" lon="6.6309">
        <ele>59.6</ele>
        <time>2012-12-09T10:46:17Z</time>
      </trkpt>
      <trkpt lat="43.17124" lon="6.63097">
        <ele>56.8</ele>
        <time>2012-12-09T10:46:25Z</time>
      </trkpt>
      <trkpt lat="43.17122" lon="6.63103">
        <ele>59.7</ele>
        <time>2012-12-09T10:46:28Z</time>
      </trkpt>
      <trkpt lat="43.17122" lon="6.6311">
        <ele>62.1</ele>
        <time>2012-12-09T10:46:33Z</time>
      </trkpt>
      <trkpt lat="43.17122" lon="6.63117">
        <ele>58.2</ele>
        <time>2012-12-09T10:46:38Z</time>
      </trkpt>
      <trkpt lat="43.17123" lon="6.63124">
        <ele>57.4</ele>
        <time>2012-12-09T10:46:42Z</time>
      </trkpt>
      <trkpt lat="43.17124" lon="6.63129">
        <ele>57.3</ele>
        <time>2012-12-09T10:46:45Z</time>
      </trkpt>
      <trkpt lat="43.17123" lon="6.63136">
        <ele>57.1</ele>
        <time>2012-12-09T10:46:49Z</time>
      </trkpt>
      <trkpt lat="43.17123" lon="6.63143">
        <ele>59.9</ele>
        <time>2012-12-09T10:46:53Z</time>
      </trkpt>
      <trkpt lat="43.17119" lon="6.63146">
        <ele>62.5</ele>
        <time>2012-12-09T10:46:57Z</time>
      </trkpt>
      <trkpt lat="43.17117" lon="6.63152">
        <ele>60.6</ele>
        <time>2012-12-09T10:47:01Z</time>
      </trkpt>
      <trkpt lat="43.17114" lon="6.63157">
        <ele>60</ele>
        <time>2012-12-09T10:47:05Z</time>
      </trkpt>
      <trkpt lat="43.1711" lon="6.63161">
        <ele>59.4</ele>
        <time>2012-12-09T10:47:09Z</time>
      </trkpt>
      <trkpt lat="43.17107" lon="6.63166">
        <ele>58</ele>
        <time>2012-12-09T10:47:13Z</time>
      </trkpt>
      <trkpt lat="43.17105" lon="6.63172">
        <ele>55.2</ele>
        <time>2012-12-09T10:47:17Z</time>
      </trkpt>
      <trkpt lat="43.17105" lon="6.6318">
        <ele>52.8</ele>
        <time>2012-12-09T10:47:21Z</time>
      </trkpt>
      <trkpt lat="43.17106" lon="6.63186">
        <ele>52.4</ele>
        <time>2012-12-09T10:47:25Z</time>
      </trkpt>
      <trkpt lat="43.17108" lon="6.63191">
        <ele>52.7</ele>
        <time>2012-12-09T10:47:30Z</time>
      </trkpt>
      <trkpt lat="43.17112" lon="6.63197">
        <ele>51.6</ele>
        <time>2012-12-09T10:47:35Z</time>
      </trkpt>
      <trkpt lat="43.17115" lon="6.63202">
        <ele>52.7</ele>
        <time>2012-12-09T10:47:39Z</time>
      </trkpt>
      <trkpt lat="43.1712" lon="6.63204">
        <ele>49.9</ele>
        <time>2012-12-09T10:47:43Z</time>
      </trkpt>
      <trkpt lat="43.17125" lon="6.63202">
        <ele>49.5</ele>
        <time>2012-12-09T10:47:47Z</time>
      </trkpt>
      <trkpt lat="43.1713" lon="6.63202">
        <ele>51.1</ele>
        <time>2012-12-09T10:47:51Z</time>
      </trkpt>
      <trkpt lat="43.17135" lon="6.63202">
        <ele>52.4</ele>
        <time>2012-12-09T10:47:56Z</time>
      </trkpt>
      <trkpt lat="43.17139" lon="6.63202">
        <ele>53.7</ele>
        <time>2012-12-09T10:48:00Z</time>
      </trkpt>
      <trkpt lat="43.17143" lon="6.63206">
        <ele>58</ele>
        <time>2012-12-09T10:48:04Z</time>
      </trkpt>
      <trkpt lat="43.17148" lon="6.63207">
        <ele>58.2</ele>
        <time>2012-12-09T10:48:09Z</time>
      </trkpt>
      <trkpt lat="43.17153" lon="6.63206">
        <ele>56</ele>
        <time>2012-12-09T10:49:05Z</time>
      </trkpt>
      <trkpt lat="43.17158" lon="6.63205">
        <ele>54.8</ele>
        <time>2012-12-09T10:49:09Z</time>
      </trkpt>
      <trkpt lat="43.17164" lon="6.63206">
        <ele>57.3</ele>
        <time>2012-12-09T10:49:13Z</time>
      </trkpt>
      <trkpt lat="43.17167" lon="6.63211">
        <ele>55</ele>
        <time>2012-12-09T10:49:18Z</time>
      </trkpt>
      <trkpt lat="43.17172" lon="6.63212">
        <ele>55</ele>
        <time>2012-12-09T10:49:23Z</time>
      </trkpt>
      <trkpt lat="43.17177" lon="6.63213">
        <ele>53.9</ele>
        <time>2012-12-09T10:49:27Z</time>
      </trkpt>
      <trkpt lat="43.17181" lon="6.63217">
        <ele>54.3</ele>
        <time>2012-12-09T10:49:32Z</time>
      </trkpt>
      <trkpt lat="43.17186" lon="6.63221">
        <ele>54.6</ele>
        <time>2012-12-09T10:49:38Z</time>
      </trkpt>
      <trkpt lat="43.17191" lon="6.63223">
        <ele>53.2</ele>
        <time>2012-12-09T10:49:42Z</time>
      </trkpt>
      <trkpt lat="43.17195" lon="6.63227">
        <ele>52.4</ele>
        <time>2012-12-09T10:49:46Z</time>
      </trkpt>
      <trkpt lat="43.17199" lon="6.63232">
        <ele>50.7</ele>
        <time>2012-12-09T10:49:50Z</time>
      </trkpt>
      <trkpt lat="43.17203" lon="6.63235">
        <ele>50.2</ele>
        <time>2012-12-09T10:49:55Z</time>
      </trkpt>
      <trkpt lat="43.17209" lon="6.63234">
        <ele>49.4</ele>
        <time>2012-12-09T10:50:00Z</time>
      </trkpt>
      <trkpt lat="43.17212" lon="6.6323">
        <ele>47.9</ele>
        <time>2012-12-09T10:50:04Z</time>
      </trkpt>
      <trkpt lat="43.17215" lon="6.63234">
        <ele>48.2</ele>
        <time>2012-12-09T10:50:11Z</time>
      </trkpt>
      <trkpt lat="43.17217" lon="6.6324">
        <ele>47.8</ele>
        <time>2012-12-09T10:50:19Z</time>
      </trkpt>
      <trkpt lat="43.17219" lon="6.63246">
        <ele>47.2</ele>
        <time>2012-12-09T10:52:39Z</time>
      </trkpt>
      <trkpt lat="43.17224" lon="6.63249">
        <ele>48.9</ele>
        <time>2012-12-09T10:52:51Z</time>
      </trkpt>
      <trkpt lat="43.17227" lon="6.63254">
        <ele>49.8</ele>
        <time>2012-12-09T10:52:57Z</time>
      </trkpt>
      <trkpt lat="43.17228" lon="6.63261">
        <ele>48.9</ele>
        <time>2012-12-09T10:53:01Z</time>
      </trkpt>
      <trkpt lat="43.17229" lon="6.63268">
        <ele>48.8</ele>
        <time>2012-12-09T10:53:06Z</time>
      </trkpt>
      <trkpt lat="43.17231" lon="6.63273">
        <ele>48.4</ele>
        <time>2012-12-09T10:53:11Z</time>
      </trkpt>
      <trkpt lat="43.17234" lon="6.63278">
        <ele>49.2</ele>
        <time>2012-12-09T10:53:16Z</time>
      </trkpt>
      <trkpt lat="43.17239" lon="6.63283">
        <ele>48.4</ele>
        <time>2012-12-09T10:53:21Z</time>
      </trkpt>
      <trkpt lat="43.17241" lon="6.63288">
        <ele>48</ele>
        <time>2012-12-09T10:53:25Z</time>
      </trkpt>
      <trkpt lat="43.17242" lon="6.63295">
        <ele>47.7</ele>
        <time>2012-12-09T10:53:29Z</time>
      </trkpt>
      <trkpt lat="43.17243" lon="6.63302">
        <ele>47.3</ele>
        <time>2012-12-09T10:53:33Z</time>
      </trkpt>
      <trkpt lat="43.17245" lon="6.63308">
        <ele>48.2</ele>
        <time>2012-12-09T10:53:37Z</time>
      </trkpt>
      <trkpt lat="43.17246" lon="6.63314">
        <ele>47</ele>
        <time>2012-12-09T10:53:41Z</time>
      </trkpt>
      <trkpt lat="43.17248" lon="6.63321">
        <ele>47.3</ele>
        <time>2012-12-09T10:53:46Z</time>
      </trkpt>
      <trkpt lat="43.17249" lon="6.63328">
        <ele>47.4</ele>
        <time>2012-12-09T10:53:50Z</time>
      </trkpt>
      <trkpt lat="43.1725" lon="6.63334">
        <ele>47.5</ele>
        <time>2012-12-09T10:53:54Z</time>
      </trkpt>
      <trkpt lat="43.17252" lon="6.6334">
        <ele>47.2</ele>
        <time>2012-12-09T10:53:58Z</time>
      </trkpt>
      <trkpt lat="43.17253" lon="6.63347">
        <ele>48.4</ele>
        <time>2012-12-09T10:54:02Z</time>
      </trkpt>
      <trkpt lat="43.17254" lon="6.63354">
        <ele>49.1</ele>
        <time>2012-12-09T10:54:07Z</time>
      </trkpt>
      <trkpt lat="43.17256" lon="6.63361">
        <ele>48.7</ele>
        <time>2012-12-09T10:54:12Z</time>
      </trkpt>
      <trkpt lat="43.17257" lon="6.63367">
        <ele>48.3</ele>
        <time>2012-12-09T10:54:16Z</time>
      </trkpt>
      <trkpt lat="43.17258" lon="6.63374">
        <ele>48.4</ele>
        <time>2012-12-09T10:54:20Z</time>
      </trkpt>
      <trkpt lat="43.17259" lon="6.6338">
        <ele>49</ele>
        <time>2012-12-09T10:54:24Z</time>
      </trkpt>
      <trkpt lat="43.1726" lon="6.63386">
        <ele>48.4</ele>
        <time>2012-12-09T10:54:28Z</time>
      </trkpt>
      <trkpt lat="43.17262" lon="6.63394">
        <ele>49.2</ele>
        <time>2012-12-09T10:54:33Z</time>
      </trkpt>
      <trkpt lat="43.17263" lon="6.634">
        <ele>49.7</ele>
        <time>2012-12-09T10:54:38Z</time>
      </trkpt>
      <trkpt lat="43.17264" lon="6.63406">
        <ele>48.4</ele>
        <time>2012-12-09T10:54:42Z</time>
      </trkpt>
      <trkpt lat="43.17266" lon="6.63413">
        <ele>48.9</ele>
        <time>2012-12-09T10:54:46Z</time>
      </trkpt>
      <trkpt lat="43.17267" lon="6.63419">
        <ele>49.4</ele>
        <time>2012-12-09T10:54:50Z</time>
      </trkpt>
      <trkpt lat="43.17268" lon="6.63426">
        <ele>49.8</ele>
        <time>2012-12-09T10:54:55Z</time>
      </trkpt>
      <trkpt lat="43.1727" lon="6.63433">
        <ele>48.3</ele>
        <time>2012-12-09T10:54:59Z</time>
      </trkpt>
      <trkpt lat="43.17271" lon="6.63439">
        <ele>48.1</ele>
        <time>2012-12-09T10:55:03Z</time>
      </trkpt>
      <trkpt lat="43.17272" lon="6.63446">
        <ele>47.7</ele>
        <time>2012-12-09T10:55:07Z</time>
      </trkpt>
      <trkpt lat="43.17273" lon="6.63453">
        <ele>48.8</ele>
        <time>2012-12-09T10:55:11Z</time>
      </trkpt>
      <trkpt lat="43.17274" lon="6.6346">
        <ele>48.2</ele>
        <time>2012-12-09T10:55:15Z</time>
      </trkpt>
      <trkpt lat="43.17274" lon="6.63467">
        <ele>48.2</ele>
        <time>2012-12-09T10:55:19Z</time>
      </trkpt>
      <trkpt lat="43.17275" lon="6.63474">
        <ele>46.5</ele>
        <time>2012-12-09T10:55:23Z</time>
      </trkpt>
      <trkpt lat="43.17275" lon="6.6348">
        <ele>46.9</ele>
        <time>2012-12-09T10:55:27Z</time>
      </trkpt>
      <trkpt lat="43.17276" lon="6.63488">
        <ele>47.8</ele>
        <time>2012-12-09T10:55:31Z</time>
      </trkpt>
      <trkpt lat="43.17276" lon="6.63495">
        <ele>46.5</ele>
        <time>2012-12-09T10:55:35Z</time>
      </trkpt>
      <trkpt lat="43.17276" lon="6.63502">
        <ele>46.2</ele>
        <time>2012-12-09T10:55:39Z</time>
      </trkpt>
      <trkpt lat="43.17277" lon="6.63509">
        <ele>46.8</ele>
        <time>2012-12-09T10:55:43Z</time>
      </trkpt>
      <trkpt lat="43.17277" lon="6.63516">
        <ele>46</ele>
        <time>2012-12-09T10:55:47Z</time>
      </trkpt>
      <trkpt lat="43.17278" lon="6.63523">
        <ele>45</ele>
        <time>2012-12-09T10:55:51Z</time>
      </trkpt>
      <trkpt lat="43.17279" lon="6.6353">
        <ele>46.6</ele>
        <time>2012-12-09T10:55:56Z</time>
      </trkpt>
      <trkpt lat="43.17279" lon="6.63537">
        <ele>46.5</ele>
        <time>2012-12-09T10:56:22Z</time>
      </trkpt>
      <trkpt lat="43.1728" lon="6.63544">
        <ele>47.9</ele>
        <time>2012-12-09T10:56:26Z</time>
      </trkpt>
      <trkpt lat="43.1728" lon="6.6355">
        <ele>47</ele>
        <time>2012-12-09T10:56:30Z</time>
      </trkpt>
      <trkpt lat="43.1728" lon="6.63557">
        <ele>45.1</ele>
        <time>2012-12-09T10:56:34Z</time>
      </trkpt>
      <trkpt lat="43.17279" lon="6.63563">
        <ele>47.9</ele>
        <time>2012-12-09T10:56:39Z</time>
      </trkpt>
      <trkpt lat="43.1728" lon="6.6357">
        <ele>48.7</ele>
        <time>2012-12-09T10:56:44Z</time>
      </trkpt>
      <trkpt lat="43.17281" lon="6.63576">
        <ele>47.6</ele>
        <time>2012-12-09T10:56:49Z</time>
      </trkpt>
      <trkpt lat="43.17282" lon="6.63582">
        <ele>46.5</ele>
        <time>2012-12-09T10:56:53Z</time>
      </trkpt>
      <trkpt lat="43.17282" lon="6.63589">
        <ele>47.7</ele>
        <time>2012-12-09T10:56:58Z</time>
      </trkpt>
      <trkpt lat="43.17282" lon="6.63596">
        <ele>49.6</ele>
        <time>2012-12-09T10:57:04Z</time>
      </trkpt>
      <trkpt lat="43.17283" lon="6.63604">
        <ele>49.4</ele>
        <time>2012-12-09T10:57:09Z</time>
      </trkpt>
      <trkpt lat="43.17282" lon="6.63611">
        <ele>51</ele>
        <time>2012-12-09T10:57:14Z</time>
      </trkpt>
      <trkpt lat="43.17281" lon="6.63618">
        <ele>50.7</ele>
        <time>2012-12-09T10:57:18Z</time>
      </trkpt>
      <trkpt lat="43.17281" lon="6.63624">
        <ele>49.6</ele>
        <time>2012-12-09T10:57:22Z</time>
      </trkpt>
      <trkpt lat="43.1728" lon="6.63631">
        <ele>51.8</ele>
        <time>2012-12-09T10:57:26Z</time>
      </trkpt>
      <trkpt lat="43.17278" lon="6.63636">
        <ele>51</ele>
        <time>2012-12-09T10:57:30Z</time>
      </trkpt>
      <trkpt lat="43.17278" lon="6.63644">
        <ele>51.9</ele>
        <time>2012-12-09T10:57:35Z</time>
      </trkpt>
      <trkpt lat="43.17278" lon="6.6365">
        <ele>50.5</ele>
        <time>2012-12-09T10:57:40Z</time>
      </trkpt>
      <trkpt lat="43.17278" lon="6.63656">
        <ele>49.5</ele>
        <time>2012-12-09T10:57:44Z</time>
      </trkpt>
      <trkpt lat="43.17277" lon="6.63664">
        <ele>49.1</ele>
        <time>2012-12-09T10:57:49Z</time>
      </trkpt>
      <trkpt lat="43.17276" lon="6.6367">
        <ele>49</ele>
        <time>2012-12-09T10:57:54Z</time>
      </trkpt>
      <trkpt lat="43.17274" lon="6.63677">
        <ele>47.5</ele>
        <time>2012-12-09T10:57:59Z</time>
      </trkpt>
      <trkpt lat="43.17273" lon="6.63684">
        <ele>48.5</ele>
        <time>2012-12-09T10:58:04Z</time>
      </trkpt>
      <trkpt lat="43.17274" lon="6.63691">
        <ele>45.6</ele>
        <time>2012-12-09T10:58:08Z</time>
      </trkpt>
      <trkpt lat="43.17273" lon="6.63698">
        <ele>44.3</ele>
        <time>2012-12-09T10:58:12Z</time>
      </trkpt>
      <trkpt lat="43.1727" lon="6.63704">
        <ele>44.6</ele>
        <time>2012-12-09T10:58:16Z</time>
      </trkpt>
      <trkpt lat="43.17267" lon="6.6371">
        <ele>48.3</ele>
        <time>2012-12-09T10:58:22Z</time>
      </trkpt>
      <trkpt lat="43.17264" lon="6.63714">
        <ele>50</ele>
        <time>2012-12-09T10:58:27Z</time>
      </trkpt>
      <trkpt lat="43.17261" lon="6.63719">
        <ele>50.2</ele>
        <time>2012-12-09T10:58:31Z</time>
      </trkpt>
      <trkpt lat="43.17258" lon="6.63725">
        <ele>51.7</ele>
        <time>2012-12-09T10:58:36Z</time>
      </trkpt>
      <trkpt lat="43.17256" lon="6.63731">
        <ele>52.2</ele>
        <time>2012-12-09T10:58:42Z</time>
      </trkpt>
      <trkpt lat="43.17255" lon="6.63737">
        <ele>53.4</ele>
        <time>2012-12-09T10:58:48Z</time>
      </trkpt>
      <trkpt lat="43.1725" lon="6.63742">
        <ele>53.1</ele>
        <time>2012-12-09T10:58:53Z</time>
      </trkpt>
      <trkpt lat="43.17249" lon="6.63748">
        <ele>53.9</ele>
        <time>2012-12-09T10:58:57Z</time>
      </trkpt>
      <trkpt lat="43.17249" lon="6.63754">
        <ele>56.4</ele>
        <time>2012-12-09T10:59:01Z</time>
      </trkpt>
      <trkpt lat="43.1725" lon="6.6376">
        <ele>58.9</ele>
        <time>2012-12-09T10:59:07Z</time>
      </trkpt>
      <trkpt lat="43.17249" lon="6.63768">
        <ele>57.7</ele>
        <time>2012-12-09T10:59:13Z</time>
      </trkpt>
      <trkpt lat="43.17246" lon="6.63774">
        <ele>57.6</ele>
        <time>2012-12-09T10:59:17Z</time>
      </trkpt>
      <trkpt lat="43.17246" lon="6.6378">
        <ele>59</ele>
        <time>2012-12-09T10:59:25Z</time>
      </trkpt>
      <trkpt lat="43.17245" lon="6.63787">
        <ele>57.8</ele>
        <time>2012-12-09T10:59:30Z</time>
      </trkpt>
      <trkpt lat="43.17243" lon="6.63794">
        <ele>58.8</ele>
        <time>2012-12-09T10:59:35Z</time>
      </trkpt>
      <trkpt lat="43.17247" lon="6.63796">
        <ele>61.6</ele>
        <time>2012-12-09T10:59:46Z</time>
      </trkpt>
      <trkpt lat="43.17247" lon="6.63804">
        <ele>61.8</ele>
        <time>2012-12-09T10:59:53Z</time>
      </trkpt>
      <trkpt lat="43.17248" lon="6.6381">
        <ele>62.1</ele>
        <time>2012-12-09T10:59:58Z</time>
      </trkpt>
      <trkpt lat="43.17248" lon="6.63817">
        <ele>65.2</ele>
        <time>2012-12-09T11:00:09Z</time>
      </trkpt>
      <trkpt lat="43.17246" lon="6.63824">
        <ele>64.9</ele>
        <time>2012-12-09T11:00:15Z</time>
      </trkpt>
      <trkpt lat="43.17248" lon="6.63831">
        <ele>62.7</ele>
        <time>2012-12-09T11:00:21Z</time>
      </trkpt>
      <trkpt lat="43.17253" lon="6.63834">
        <ele>61.7</ele>
        <time>2012-12-09T11:00:25Z</time>
      </trkpt>
      <trkpt lat="43.17256" lon="6.63839">
        <ele>59.5</ele>
        <time>2012-12-09T11:00:30Z</time>
      </trkpt>
      <trkpt lat="43.17257" lon="6.63845">
        <ele>58</ele>
        <time>2012-12-09T11:00:33Z</time>
      </trkpt>
      <trkpt lat="43.1726" lon="6.63851">
        <ele>57.5</ele>
        <time>2012-12-09T11:00:37Z</time>
      </trkpt>
      <trkpt lat="43.17262" lon="6.63856">
        <ele>55.7</ele>
        <time>2012-12-09T11:00:41Z</time>
      </trkpt>
      <trkpt lat="43.17264" lon="6.63863">
        <ele>54.7</ele>
        <time>2012-12-09T11:00:45Z</time>
      </trkpt>
      <trkpt lat="43.17266" lon="6.6387">
        <ele>54.1</ele>
        <time>2012-12-09T11:00:50Z</time>
      </trkpt>
      <trkpt lat="43.17268" lon="6.63876">
        <ele>55</ele>
        <time>2012-12-09T11:00:59Z</time>
      </trkpt>
      <trkpt lat="43.17271" lon="6.63882">
        <ele>55.2</ele>
        <time>2012-12-09T11:01:04Z</time>
      </trkpt>
      <trkpt lat="43.17272" lon="6.63888">
        <ele>54.8</ele>
        <time>2012-12-09T11:01:10Z</time>
      </trkpt>
      <trkpt lat="43.17273" lon="6.63895">
        <ele>52.2</ele>
        <time>2012-12-09T11:01:15Z</time>
      </trkpt>
      <trkpt lat="43.17271" lon="6.63901">
        <ele>52.8</ele>
        <time>2012-12-09T11:01:19Z</time>
      </trkpt>
      <trkpt lat="43.1727" lon="6.63908">
        <ele>54.2</ele>
        <time>2012-12-09T11:01:24Z</time>
      </trkpt>
      <trkpt lat="43.17266" lon="6.63912">
        <ele>51.8</ele>
        <time>2012-12-09T11:02:38Z</time>
      </trkpt>
      <trkpt lat="43.17267" lon="6.63918">
        <ele>50.9</ele>
        <time>2012-12-09T11:02:43Z</time>
      </trkpt>
      <trkpt lat="43.17266" lon="6.63925">
        <ele>49.5</ele>
        <time>2012-12-09T11:02:48Z</time>
      </trkpt>
      <trkpt lat="43.17264" lon="6.63932">
        <ele>52.3</ele>
        <time>2012-12-09T11:02:53Z</time>
      </trkpt>
      <trkpt lat="43.17261" lon="6.63938">
        <ele>52</ele>
        <time>2012-12-09T11:02:57Z</time>
      </trkpt>
      <trkpt lat="43.17258" lon="6.63943">
        <ele>53.1</ele>
        <time>2012-12-09T11:03:01Z</time>
      </trkpt>
      <trkpt lat="43.17255" lon="6.63949">
        <ele>54</ele>
        <time>2012-12-09T11:03:05Z</time>
      </trkpt>
      <trkpt lat="43.17251" lon="6.63953">
        <ele>54.6</ele>
        <time>2012-12-09T11:03:10Z</time>
      </trkpt>
      <trkpt lat="43.17247" lon="6.63956">
        <ele>52.4</ele>
        <time>2012-12-09T11:03:14Z</time>
      </trkpt>
      <trkpt lat="43.17244" lon="6.63961">
        <ele>52.1</ele>
        <time>2012-12-09T11:03:18Z</time>
      </trkpt>
      <trkpt lat="43.17241" lon="6.63966">
        <ele>52.2</ele>
        <time>2012-12-09T11:03:23Z</time>
      </trkpt>
      <trkpt lat="43.17238" lon="6.63971">
        <ele>51.7</ele>
        <time>2012-12-09T11:03:28Z</time>
      </trkpt>
      <trkpt lat="43.17235" lon="6.63977">
        <ele>53.1</ele>
        <time>2012-12-09T11:03:33Z</time>
      </trkpt>
      <trkpt lat="43.17233" lon="6.63983">
        <ele>52.1</ele>
        <time>2012-12-09T11:03:38Z</time>
      </trkpt>
      <trkpt lat="43.17232" lon="6.6399">
        <ele>52.7</ele>
        <time>2012-12-09T11:03:43Z</time>
      </trkpt>
      <trkpt lat="43.1723" lon="6.63995">
        <ele>52.5</ele>
        <time>2012-12-09T11:03:47Z</time>
      </trkpt>
      <trkpt lat="43.17227" lon="6.64001">
        <ele>53.7</ele>
        <time>2012-12-09T11:03:52Z</time>
      </trkpt>
      <trkpt lat="43.17224" lon="6.64006">
        <ele>55.9</ele>
        <time>2012-12-09T11:04:00Z</time>
      </trkpt>
      <trkpt lat="43.1722" lon="6.6401">
        <ele>56.4</ele>
        <time>2012-12-09T11:04:06Z</time>
      </trkpt>
      <trkpt lat="43.17217" lon="6.64015">
        <ele>55</ele>
        <time>2012-12-09T11:04:11Z</time>
      </trkpt>
      <trkpt lat="43.17214" lon="6.64021">
        <ele>53.8</ele>
        <time>2012-12-09T11:04:15Z</time>
      </trkpt>
      <trkpt lat="43.17214" lon="6.64029">
        <ele>54.3</ele>
        <time>2012-12-09T11:04:19Z</time>
      </trkpt>
      <trkpt lat="43.17214" lon="6.64029">
        <ele>54.3</ele>
        <time>2012-12-09T11:04:19Z</time>
      </trkpt>
      <trkpt lat="43.17214" lon="6.64036">
        <ele>54.9</ele>
        <time>2012-12-09T11:04:23Z</time>
      </trkpt>
      <trkpt lat="43.17214" lon="6.64042">
        <ele>55.2</ele>
        <time>2012-12-09T11:04:27Z</time>
      </trkpt>
      <trkpt lat="43.17214" lon="6.64049">
        <ele>54.3</ele>
        <time>2012-12-09T11:04:31Z</time>
      </trkpt>
      <trkpt lat="43.17216" lon="6.64056">
        <ele>54</ele>
        <time>2012-12-09T11:04:35Z</time>
      </trkpt>
      <trkpt lat="43.17217" lon="6.64062">
        <ele>54</ele>
        <time>2012-12-09T11:04:39Z</time>
      </trkpt>
      <trkpt lat="43.17218" lon="6.64069">
        <ele>53.3</ele>
        <time>2012-12-09T11:04:43Z</time>
      </trkpt>
      <trkpt lat="43.17222" lon="6.64073">
        <ele>52.2</ele>
        <time>2012-12-09T11:04:47Z</time>
      </trkpt>
      <trkpt lat="43.17222" lon="6.6408">
        <ele>51.9</ele>
        <time>2012-12-09T11:04:51Z</time>
      </trkpt>
      <trkpt lat="43.17221" lon="6.64086">
        <ele>52</ele>
        <time>2012-12-09T11:04:55Z</time>
      </trkpt>
      <trkpt lat="43.1722" lon="6.64093">
        <ele>54.1</ele>
        <time>2012-12-09T11:05:00Z</time>
      </trkpt>
      <trkpt lat="43.17216" lon="6.64098">
        <ele>54.9</ele>
        <time>2012-12-09T11:05:05Z</time>
      </trkpt>
      <trkpt lat="43.17213" lon="6.64104">
        <ele>55.9</ele>
        <time>2012-12-09T11:05:10Z</time>
      </trkpt>
      <trkpt lat="43.17209" lon="6.64109">
        <ele>56.8</ele>
        <time>2012-12-09T11:05:16Z</time>
      </trkpt>
      <trkpt lat="43.17206" lon="6.64115">
        <ele>56.1</ele>
        <time>2012-12-09T11:05:21Z</time>
      </trkpt>
      <trkpt lat="43.17204" lon="6.64121">
        <ele>54.5</ele>
        <time>2012-12-09T11:05:26Z</time>
      </trkpt>
      <trkpt lat="43.17203" lon="6.64128">
        <ele>55.4</ele>
        <time>2012-12-09T11:05:31Z</time>
      </trkpt>
      <trkpt lat="43.17202" lon="6.64134">
        <ele>55.6</ele>
        <time>2012-12-09T11:05:36Z</time>
      </trkpt>
      <trkpt lat="43.172" lon="6.64141">
        <ele>57.5</ele>
        <time>2012-12-09T11:05:42Z</time>
      </trkpt>
      <trkpt lat="43.17197" lon="6.64145">
        <ele>58.6</ele>
        <time>2012-12-09T11:05:48Z</time>
      </trkpt>
      <trkpt lat="43.17198" lon="6.64152">
        <ele>61.1</ele>
        <time>2012-12-09T11:05:56Z</time>
      </trkpt>
      <trkpt lat="43.17199" lon="6.64158">
        <ele>62.1</ele>
        <time>2012-12-09T11:06:01Z</time>
      </trkpt>
      <trkpt lat="43.17196" lon="6.64164">
        <ele>63</ele>
        <time>2012-12-09T11:06:07Z</time>
      </trkpt>
      <trkpt lat="43.17194" lon="6.6417">
        <ele>62.8</ele>
        <time>2012-12-09T11:06:14Z</time>
      </trkpt>
      <trkpt lat="43.17192" lon="6.64176">
        <ele>65.1</ele>
        <time>2012-12-09T11:06:21Z</time>
      </trkpt>
      <trkpt lat="43.17192" lon="6.64182">
        <ele>65.5</ele>
        <time>2012-12-09T11:06:27Z</time>
      </trkpt>
      <trkpt lat="43.17189" lon="6.64188">
        <ele>66.7</ele>
        <time>2012-12-09T11:06:34Z</time>
      </trkpt>
      <trkpt lat="43.17185" lon="6.64182">
        <ele>66.9</ele>
        <time>2012-12-09T11:06:40Z</time>
      </trkpt>
      <trkpt lat="43.17184" lon="6.64176">
        <ele>65.3</ele>
        <time>2012-12-09T11:06:44Z</time>
      </trkpt>
      <trkpt lat="43.17181" lon="6.6417">
        <ele>63</ele>
        <time>2012-12-09T11:06:50Z</time>
      </trkpt>
      <trkpt lat="43.17176" lon="6.6417">
        <ele>60.8</ele>
        <time>2012-12-09T11:06:55Z</time>
      </trkpt>
      <trkpt lat="43.17173" lon="6.64175">
        <ele>63.3</ele>
        <time>2012-12-09T11:07:33Z</time>
      </trkpt>
      <trkpt lat="43.17169" lon="6.6418">
        <ele>62.6</ele>
        <time>2012-12-09T11:07:54Z</time>
      </trkpt>
      <trkpt lat="43.17164" lon="6.64183">
        <ele>63.2</ele>
        <time>2012-12-09T11:07:58Z</time>
      </trkpt>
      <trkpt lat="43.17159" lon="6.64186">
        <ele>64</ele>
        <time>2012-12-09T11:08:02Z</time>
      </trkpt>
      <trkpt lat="43.17154" lon="6.64188">
        <ele>65</ele>
        <time>2012-12-09T11:08:06Z</time>
      </trkpt>
      <trkpt lat="43.1715" lon="6.64192">
        <ele>65.3</ele>
        <time>2012-12-09T11:08:10Z</time>
      </trkpt>
      <trkpt lat="43.17145" lon="6.64194">
        <ele>65.7</ele>
        <time>2012-12-09T11:08:15Z</time>
      </trkpt>
      <trkpt lat="43.1714" lon="6.64195">
        <ele>65.7</ele>
        <time>2012-12-09T11:08:19Z</time>
      </trkpt>
      <trkpt lat="43.17137" lon="6.64199">
        <ele>65.2</ele>
        <time>2012-12-09T11:08:23Z</time>
      </trkpt>
      <trkpt lat="43.17133" lon="6.64202">
        <ele>65.9</ele>
        <time>2012-12-09T11:08:27Z</time>
      </trkpt>
      <trkpt lat="43.1713" lon="6.64206">
        <ele>65.5</ele>
        <time>2012-12-09T11:08:32Z</time>
      </trkpt>
      <trkpt lat="43.17126" lon="6.64211">
        <ele>65.2</ele>
        <time>2012-12-09T11:08:39Z</time>
      </trkpt>
      <trkpt lat="43.17121" lon="6.64211">
        <ele>66</ele>
        <time>2012-12-09T11:08:47Z</time>
      </trkpt>
      <trkpt lat="43.17118" lon="6.64214">
        <ele>65.6</ele>
        <time>2012-12-09T11:08:51Z</time>
      </trkpt>
      <trkpt lat="43.17115" lon="6.6422">
        <ele>66.1</ele>
        <time>2012-12-09T11:08:56Z</time>
      </trkpt>
      <trkpt lat="43.17117" lon="6.64226">
        <ele>64.8</ele>
        <time>2012-12-09T11:09:02Z</time>
      </trkpt>
      <trkpt lat="43.17113" lon="6.64231">
        <ele>66.9</ele>
        <time>2012-12-09T11:09:11Z</time>
      </trkpt>
      <trkpt lat="43.17111" lon="6.64237">
        <ele>70.5</ele>
        <time>2012-12-09T11:09:17Z</time>
      </trkpt>
      <trkpt lat="43.17109" lon="6.64243">
        <ele>71.1</ele>
        <time>2012-12-09T11:09:29Z</time>
      </trkpt>
      <trkpt lat="43.17109" lon="6.64249">
        <ele>73.2</ele>
        <time>2012-12-09T11:09:41Z</time>
      </trkpt>
      <trkpt lat="43.17111" lon="6.64255">
        <ele>73.5</ele>
        <time>2012-12-09T11:09:48Z</time>
      </trkpt>
      <trkpt lat="43.17113" lon="6.6426">
        <ele>76.3</ele>
        <time>2012-12-09T11:10:01Z</time>
      </trkpt>
      <trkpt lat="43.17111" lon="6.64267">
        <ele>76.8</ele>
        <time>2012-12-09T11:10:09Z</time>
      </trkpt>
      <trkpt lat="43.1711" lon="6.64273">
        <ele>79.1</ele>
        <time>2012-12-09T11:10:24Z</time>
      </trkpt>
      <trkpt lat="43.17108" lon="6.64279">
        <ele>83.4</ele>
        <time>2012-12-09T11:10:38Z</time>
      </trkpt>
      <trkpt lat="43.17107" lon="6.64286">
        <ele>87.7</ele>
        <time>2012-12-09T11:10:45Z</time>
      </trkpt>
      <trkpt lat="43.17104" lon="6.64291">
        <ele>89.7</ele>
        <time>2012-12-09T11:10:56Z</time>
      </trkpt>
      <trkpt lat="43.17102" lon="6.64296">
        <ele>91.3</ele>
        <time>2012-12-09T11:11:02Z</time>
      </trkpt>
      <trkpt lat="43.171" lon="6.64302">
        <ele>94.4</ele>
        <time>2012-12-09T11:11:15Z</time>
      </trkpt>
      <trkpt lat="43.17097" lon="6.64308">
        <ele>97</ele>
        <time>2012-12-09T11:11:22Z</time>
      </trkpt>
      <trkpt lat="43.17093" lon="6.64308">
        <ele>94.4</ele>
        <time>2012-12-09T11:11:27Z</time>
      </trkpt>
      <trkpt lat="43.17088" lon="6.64308">
        <ele>93.4</ele>
        <time>2012-12-09T11:11:32Z</time>
      </trkpt>
      <trkpt lat="43.17084" lon="6.64313">
        <ele>94.8</ele>
        <time>2012-12-09T11:11:37Z</time>
      </trkpt>
      <trkpt lat="43.17082" lon="6.64319">
        <ele>95.9</ele>
        <time>2012-12-09T11:11:45Z</time>
      </trkpt>
      <trkpt lat="43.17079" lon="6.64322">
        <ele>96.2</ele>
        <time>2012-12-09T11:11:50Z</time>
      </trkpt>
      <trkpt lat="43.17074" lon="6.64326">
        <ele>97.5</ele>
        <time>2012-12-09T11:11:56Z</time>
      </trkpt>
      <trkpt lat="43.17071" lon="6.64331">
        <ele>99.6</ele>
        <time>2012-12-09T11:12:02Z</time>
      </trkpt>
      <trkpt lat="43.17068" lon="6.64336">
        <ele>99.1</ele>
        <time>2012-12-09T11:12:16Z</time>
      </trkpt>
      <trkpt lat="43.17064" lon="6.6434">
        <ele>100.6</ele>
        <time>2012-12-09T11:12:21Z</time>
      </trkpt>
      <trkpt lat="43.1706" lon="6.64344">
        <ele>102</ele>
        <time>2012-12-09T11:12:27Z</time>
      </trkpt>
      <trkpt lat="43.17055" lon="6.64346">
        <ele>100.5</ele>
        <time>2012-12-09T11:12:31Z</time>
      </trkpt>
      <trkpt lat="43.17052" lon="6.64351">
        <ele>100.8</ele>
        <time>2012-12-09T11:12:38Z</time>
      </trkpt>
      <trkpt lat="43.17049" lon="6.64356">
        <ele>102.9</ele>
        <time>2012-12-09T11:12:53Z</time>
      </trkpt>
      <trkpt lat="43.17049" lon="6.64363">
        <ele>103.2</ele>
        <time>2012-12-09T11:12:59Z</time>
      </trkpt>
      <trkpt lat="43.17053" lon="6.64367">
        <ele>108</ele>
        <time>2012-12-09T11:13:14Z</time>
      </trkpt>
      <trkpt lat="43.1705" lon="6.64372">
        <ele>109.3</ele>
        <time>2012-12-09T11:13:23Z</time>
      </trkpt>
      <trkpt lat="43.1705" lon="6.64378">
        <ele>109.2</ele>
        <time>2012-12-09T11:13:30Z</time>
      </trkpt>
      <trkpt lat="43.17046" lon="6.64382">
        <ele>109.1</ele>
        <time>2012-12-09T11:13:37Z</time>
      </trkpt>
      <trkpt lat="43.17042" lon="6.64384">
        <ele>110.5</ele>
        <time>2012-12-09T11:13:43Z</time>
      </trkpt>
      <trkpt lat="43.17038" lon="6.64387">
        <ele>110.5</ele>
        <time>2012-12-09T11:13:49Z</time>
      </trkpt>
      <trkpt lat="43.17032" lon="6.64388">
        <ele>109.6</ele>
        <time>2012-12-09T11:13:56Z</time>
      </trkpt>
      <trkpt lat="43.17028" lon="6.64389">
        <ele>108.7</ele>
        <time>2012-12-09T11:14:00Z</time>
      </trkpt>
      <trkpt lat="43.17025" lon="6.64395">
        <ele>107.4</ele>
        <time>2012-12-09T11:14:04Z</time>
      </trkpt>
      <trkpt lat="43.17022" lon="6.64402">
        <ele>107.2</ele>
        <time>2012-12-09T11:14:08Z</time>
      </trkpt>
      <trkpt lat="43.17021" lon="6.64408">
        <ele>106.1</ele>
        <time>2012-12-09T11:14:12Z</time>
      </trkpt>
      <trkpt lat="43.17015" lon="6.64412">
        <ele>105.7</ele>
        <time>2012-12-09T11:14:17Z</time>
      </trkpt>
      <trkpt lat="43.1701" lon="6.64412">
        <ele>104.2</ele>
        <time>2012-12-09T11:14:22Z</time>
      </trkpt>
      <trkpt lat="43.17005" lon="6.64412">
        <ele>103.3</ele>
        <time>2012-12-09T11:14:26Z</time>
      </trkpt>
      <trkpt lat="43.17" lon="6.64414">
        <ele>101.5</ele>
        <time>2012-12-09T11:14:32Z</time>
      </trkpt>
      <trkpt lat="43.16997" lon="6.64419">
        <ele>99.1</ele>
        <time>2012-12-09T11:14:38Z</time>
      </trkpt>
      <trkpt lat="43.16994" lon="6.64425">
        <ele>98.5</ele>
        <time>2012-12-09T11:14:47Z</time>
      </trkpt>
      <trkpt lat="43.1699" lon="6.64427">
        <ele>98.9</ele>
        <time>2012-12-09T11:14:51Z</time>
      </trkpt>
      <trkpt lat="43.16984" lon="6.64428">
        <ele>98.6</ele>
        <time>2012-12-09T11:14:55Z</time>
      </trkpt>
      <trkpt lat="43.16978" lon="6.64428">
        <ele>96.6</ele>
        <time>2012-12-09T11:14:59Z</time>
      </trkpt>
      <trkpt lat="43.16973" lon="6.64431">
        <ele>96.6</ele>
        <time>2012-12-09T11:15:03Z</time>
      </trkpt>
      <trkpt lat="43.1697" lon="6.64438">
        <ele>94.3</ele>
        <time>2012-12-09T11:15:07Z</time>
      </trkpt>
      <trkpt lat="43.16967" lon="6.64443">
        <ele>93.7</ele>
        <time>2012-12-09T11:15:10Z</time>
      </trkpt>
      <trkpt lat="43.16964" lon="6.64449">
        <ele>94.5</ele>
        <time>2012-12-09T11:15:14Z</time>
      </trkpt>
      <trkpt lat="43.16962" lon="6.64456">
        <ele>94.9</ele>
        <time>2012-12-09T11:15:19Z</time>
      </trkpt>
      <trkpt lat="43.16957" lon="6.64453">
        <ele>93.5</ele>
        <time>2012-12-09T11:15:34Z</time>
      </trkpt>
      <trkpt lat="43.16952" lon="6.6445">
        <ele>93.2</ele>
        <time>2012-12-09T11:15:39Z</time>
      </trkpt>
      <trkpt lat="43.16948" lon="6.64453">
        <ele>93.1</ele>
        <time>2012-12-09T11:15:43Z</time>
      </trkpt>
      <trkpt lat="43.16943" lon="6.64455">
        <ele>93.1</ele>
        <time>2012-12-09T11:15:47Z</time>
      </trkpt>
      <trkpt lat="43.16939" lon="6.64458">
        <ele>93</ele>
        <time>2012-12-09T11:15:52Z</time>
      </trkpt>
      <trkpt lat="43.16935" lon="6.6446">
        <ele>94.2</ele>
        <time>2012-12-09T11:15:57Z</time>
      </trkpt>
      <trkpt lat="43.16932" lon="6.64466">
        <ele>94.9</ele>
        <time>2012-12-09T11:16:02Z</time>
      </trkpt>
      <trkpt lat="43.16928" lon="6.64468">
        <ele>94.3</ele>
        <time>2012-12-09T11:16:07Z</time>
      </trkpt>
      <trkpt lat="43.16923" lon="6.64469">
        <ele>94.4</ele>
        <time>2012-12-09T11:16:12Z</time>
      </trkpt>
      <trkpt lat="43.16917" lon="6.6447">
        <ele>94</ele>
        <time>2012-12-09T11:16:17Z</time>
      </trkpt>
      <trkpt lat="43.16912" lon="6.64471">
        <ele>93.7</ele>
        <time>2012-12-09T11:16:22Z</time>
      </trkpt>
      <trkpt lat="43.16907" lon="6.64472">
        <ele>93.4</ele>
        <time>2012-12-09T11:16:27Z</time>
      </trkpt>
      <trkpt lat="43.16903" lon="6.64477">
        <ele>94.2</ele>
        <time>2012-12-09T11:16:34Z</time>
      </trkpt>
      <trkpt lat="43.16901" lon="6.64483">
        <ele>94.2</ele>
        <time>2012-12-09T11:16:40Z</time>
      </trkpt>
      <trkpt lat="43.16896" lon="6.64484">
        <ele>93</ele>
        <time>2012-12-09T11:16:45Z</time>
      </trkpt>
      <trkpt lat="43.16895" lon="6.64491">
        <ele>94.6</ele>
        <time>2012-12-09T11:16:52Z</time>
      </trkpt>
      <trkpt lat="43.16896" lon="6.64497">
        <ele>95.6</ele>
        <time>2012-12-09T11:16:58Z</time>
      </trkpt>
      <trkpt lat="43.16894" lon="6.64503">
        <ele>97.9</ele>
        <time>2012-12-09T11:17:04Z</time>
      </trkpt>
      <trkpt lat="43.16894" lon="6.64509">
        <ele>101.2</ele>
        <time>2012-12-09T11:17:12Z</time>
      </trkpt>
      <trkpt lat="43.16894" lon="6.64515">
        <ele>102.1</ele>
        <time>2012-12-09T11:17:24Z</time>
      </trkpt>
      <trkpt lat="43.16897" lon="6.64521">
        <ele>102.9</ele>
        <time>2012-12-09T11:17:32Z</time>
      </trkpt>
      <trkpt lat="43.16898" lon="6.64528">
        <ele>107.5</ele>
        <time>2012-12-09T11:17:41Z</time>
      </trkpt>
      <trkpt lat="43.16898" lon="6.64534">
        <ele>107.7</ele>
        <time>2012-12-09T11:17:50Z</time>
      </trkpt>
      <trkpt lat="43.16898" lon="6.64541">
        <ele>109.7</ele>
        <time>2012-12-09T11:17:57Z</time>
      </trkpt>
      <trkpt lat="43.16896" lon="6.64547">
        <ele>112.1</ele>
        <time>2012-12-09T11:18:05Z</time>
      </trkpt>
      <trkpt lat="43.16893" lon="6.64553">
        <ele>112.9</ele>
        <time>2012-12-09T11:18:13Z</time>
      </trkpt>
      <trkpt lat="43.16888" lon="6.64558">
        <ele>114</ele>
        <time>2012-12-09T11:18:17Z</time>
      </trkpt>
      <trkpt lat="43.16885" lon="6.64563">
        <ele>115.4</ele>
        <time>2012-12-09T11:18:23Z</time>
      </trkpt>
      <trkpt lat="43.16884" lon="6.6457">
        <ele>116.8</ele>
        <time>2012-12-09T11:18:28Z</time>
      </trkpt>
      <trkpt lat="43.16883" lon="6.64577">
        <ele>116.8</ele>
        <time>2012-12-09T11:18:33Z</time>
      </trkpt>
      <trkpt lat="43.16884" lon="6.64584">
        <ele>116.7</ele>
        <time>2012-12-09T11:18:38Z</time>
      </trkpt>
      <trkpt lat="43.16884" lon="6.64584">
        <ele>116.7</ele>
        <time>2012-12-09T11:18:38Z</time>
      </trkpt>
      <trkpt lat="43.16886" lon="6.64578">
        <ele>110.8</ele>
        <time>2012-12-09T11:29:16Z</time>
      </trkpt>
      <trkpt lat="43.16886" lon="6.64571">
        <ele>108.8</ele>
        <time>2012-12-09T11:30:07Z</time>
      </trkpt>
      <trkpt lat="43.16888" lon="6.64564">
        <ele>110.2</ele>
        <time>2012-12-09T11:30:13Z</time>
      </trkpt>
      <trkpt lat="43.16891" lon="6.64559">
        <ele>110.1</ele>
        <time>2012-12-09T11:30:18Z</time>
      </trkpt>
      <trkpt lat="43.16895" lon="6.64556">
        <ele>110.6</ele>
        <time>2012-12-09T11:30:36Z</time>
      </trkpt>
      <trkpt lat="43.16897" lon="6.64561">
        <ele>109</ele>
        <time>2012-12-09T11:30:48Z</time>
      </trkpt>
      <trkpt lat="43.169" lon="6.64566">
        <ele>109.3</ele>
        <time>2012-12-09T11:30:55Z</time>
      </trkpt>
      <trkpt lat="43.16904" lon="6.64569">
        <ele>107.7</ele>
        <time>2012-12-09T11:31:02Z</time>
      </trkpt>
      <trkpt lat="43.16903" lon="6.64563">
        <ele>108.7</ele>
        <time>2012-12-09T11:31:46Z</time>
      </trkpt>
      <trkpt lat="43.16905" lon="6.64556">
        <ele>109.5</ele>
        <time>2012-12-09T11:31:53Z</time>
      </trkpt>
      <trkpt lat="43.16909" lon="6.64553">
        <ele>108.8</ele>
        <time>2012-12-09T11:31:57Z</time>
      </trkpt>
      <trkpt lat="43.16913" lon="6.64549">
        <ele>109.2</ele>
        <time>2012-12-09T11:32:03Z</time>
      </trkpt>
      <trkpt lat="43.16918" lon="6.64547">
        <ele>107.3</ele>
        <time>2012-12-09T11:32:10Z</time>
      </trkpt>
      <trkpt lat="43.16923" lon="6.64544">
        <ele>106</ele>
        <time>2012-12-09T11:32:16Z</time>
      </trkpt>
      <trkpt lat="43.16926" lon="6.6454">
        <ele>106.8</ele>
        <time>2012-12-09T11:32:20Z</time>
      </trkpt>
      <trkpt lat="43.1693" lon="6.64536">
        <ele>105.9</ele>
        <time>2012-12-09T11:32:25Z</time>
      </trkpt>
      <trkpt lat="43.16933" lon="6.64531">
        <ele>103.6</ele>
        <time>2012-12-09T11:32:30Z</time>
      </trkpt>
      <trkpt lat="43.16934" lon="6.64524">
        <ele>101.8</ele>
        <time>2012-12-09T11:32:36Z</time>
      </trkpt>
      <trkpt lat="43.16936" lon="6.64518">
        <ele>101.7</ele>
        <time>2012-12-09T11:32:41Z</time>
      </trkpt>
      <trkpt lat="43.16939" lon="6.64513">
        <ele>102.9</ele>
        <time>2012-12-09T11:32:47Z</time>
      </trkpt>
      <trkpt lat="43.16941" lon="6.64507">
        <ele>100.4</ele>
        <time>2012-12-09T11:32:55Z</time>
      </trkpt>
      <trkpt lat="43.16945" lon="6.64503">
        <ele>99.1</ele>
        <time>2012-12-09T11:33:05Z</time>
      </trkpt>
      <trkpt lat="43.16946" lon="6.64496">
        <ele>96.4</ele>
        <time>2012-12-09T11:33:12Z</time>
      </trkpt>
      <trkpt lat="43.16946" lon="6.64489">
        <ele>93.8</ele>
        <time>2012-12-09T11:33:18Z</time>
      </trkpt>
      <trkpt lat="43.1695" lon="6.64482">
        <ele>90.2</ele>
        <time>2012-12-09T11:33:28Z</time>
      </trkpt>
      <trkpt lat="43.16952" lon="6.64476">
        <ele>89.1</ele>
        <time>2012-12-09T11:33:33Z</time>
      </trkpt>
      <trkpt lat="43.16955" lon="6.6447">
        <ele>88.1</ele>
        <time>2012-12-09T11:33:39Z</time>
      </trkpt>
      <trkpt lat="43.16958" lon="6.64465">
        <ele>86.6</ele>
        <time>2012-12-09T11:33:50Z</time>
      </trkpt>
      <trkpt lat="43.1696" lon="6.64459">
        <ele>87.9</ele>
        <time>2012-12-09T11:33:54Z</time>
      </trkpt>
      <trkpt lat="43.16963" lon="6.64453">
        <ele>86.6</ele>
        <time>2012-12-09T11:33:58Z</time>
      </trkpt>
      <trkpt lat="43.16966" lon="6.64446">
        <ele>86.8</ele>
        <time>2012-12-09T11:34:02Z</time>
      </trkpt>
      <trkpt lat="43.16969" lon="6.6444">
        <ele>86.9</ele>
        <time>2012-12-09T11:34:06Z</time>
      </trkpt>
      <trkpt lat="43.16972" lon="6.64436">
        <ele>87.6</ele>
        <time>2012-12-09T11:34:10Z</time>
      </trkpt>
      <trkpt lat="43.16976" lon="6.64431">
        <ele>88.7</ele>
        <time>2012-12-09T11:34:16Z</time>
      </trkpt>
      <trkpt lat="43.16981" lon="6.6443">
        <ele>92.1</ele>
        <time>2012-12-09T11:34:21Z</time>
      </trkpt>
      <trkpt lat="43.16985" lon="6.64429">
        <ele>91.5</ele>
        <time>2012-12-09T11:34:26Z</time>
      </trkpt>
      <trkpt lat="43.16987" lon="6.64423">
        <ele>94.6</ele>
        <time>2012-12-09T11:34:41Z</time>
      </trkpt>
      <trkpt lat="43.16987" lon="6.64416">
        <ele>95.3</ele>
        <time>2012-12-09T11:34:46Z</time>
      </trkpt>
      <trkpt lat="43.16988" lon="6.6441">
        <ele>96</ele>
        <time>2012-12-09T11:34:50Z</time>
      </trkpt>
      <trkpt lat="43.16988" lon="6.64404">
        <ele>97.9</ele>
        <time>2012-12-09T11:34:55Z</time>
      </trkpt>
      <trkpt lat="43.16988" lon="6.64397">
        <ele>94.9</ele>
        <time>2012-12-09T11:35:03Z</time>
      </trkpt>
      <trkpt lat="43.16988" lon="6.64391">
        <ele>92.1</ele>
        <time>2012-12-09T11:35:10Z</time>
      </trkpt>
      <trkpt lat="43.16989" lon="6.64385">
        <ele>89.5</ele>
        <time>2012-12-09T11:35:23Z</time>
      </trkpt>
      <trkpt lat="43.16992" lon="6.64379">
        <ele>88.6</ele>
        <time>2012-12-09T11:35:29Z</time>
      </trkpt>
      <trkpt lat="43.16996" lon="6.64377">
        <ele>89.2</ele>
        <time>2012-12-09T11:35:34Z</time>
      </trkpt>
      <trkpt lat="43.16998" lon="6.6437">
        <ele>87.7</ele>
        <time>2012-12-09T11:35:44Z</time>
      </trkpt>
      <trkpt lat="43.17" lon="6.64365">
        <ele>85.4</ele>
        <time>2012-12-09T11:36:00Z</time>
      </trkpt>
      <trkpt lat="43.17003" lon="6.6436">
        <ele>84.6</ele>
        <time>2012-12-09T11:36:08Z</time>
      </trkpt>
      <trkpt lat="43.17007" lon="6.64356">
        <ele>84.1</ele>
        <time>2012-12-09T11:36:12Z</time>
      </trkpt>
      <trkpt lat="43.1701" lon="6.64351">
        <ele>83.1</ele>
        <time>2012-12-09T11:36:18Z</time>
      </trkpt>
      <trkpt lat="43.17008" lon="6.64344">
        <ele>81.8</ele>
        <time>2012-12-09T11:36:28Z</time>
      </trkpt>
      <trkpt lat="43.17012" lon="6.64343">
        <ele>82.8</ele>
        <time>2012-12-09T11:36:40Z</time>
      </trkpt>
      <trkpt lat="43.17016" lon="6.6434">
        <ele>83.6</ele>
        <time>2012-12-09T11:36:53Z</time>
      </trkpt>
      <trkpt lat="43.1702" lon="6.64344">
        <ele>85.9</ele>
        <time>2012-12-09T11:37:18Z</time>
      </trkpt>
      <trkpt lat="43.17024" lon="6.64347">
        <ele>84.6</ele>
        <time>2012-12-09T11:37:35Z</time>
      </trkpt>
      <trkpt lat="43.17028" lon="6.6435">
        <ele>86.6</ele>
        <time>2012-12-09T11:37:57Z</time>
      </trkpt>
      <trkpt lat="43.17032" lon="6.64353">
        <ele>90.3</ele>
        <time>2012-12-09T11:38:11Z</time>
      </trkpt>
      <trkpt lat="43.17037" lon="6.64353">
        <ele>93</ele>
        <time>2012-12-09T11:38:16Z</time>
      </trkpt>
      <trkpt lat="43.17042" lon="6.64356">
        <ele>95.2</ele>
        <time>2012-12-09T11:38:24Z</time>
      </trkpt>
      <trkpt lat="43.17046" lon="6.64357">
        <ele>97.5</ele>
        <time>2012-12-09T11:38:40Z</time>
      </trkpt>
      <trkpt lat="43.1705" lon="6.64353">
        <ele>99.4</ele>
        <time>2012-12-09T11:38:48Z</time>
      </trkpt>
      <trkpt lat="43.17054" lon="6.64349">
        <ele>98.1</ele>
        <time>2012-12-09T11:38:54Z</time>
      </trkpt>
      <trkpt lat="43.17059" lon="6.64347">
        <ele>96.9</ele>
        <time>2012-12-09T11:38:59Z</time>
      </trkpt>
      <trkpt lat="43.17063" lon="6.64343">
        <ele>95.2</ele>
        <time>2012-12-09T11:39:06Z</time>
      </trkpt>
      <trkpt lat="43.17067" lon="6.6434">
        <ele>92.6</ele>
        <time>2012-12-09T11:39:12Z</time>
      </trkpt>
      <trkpt lat="43.17071" lon="6.64336">
        <ele>93.2</ele>
        <time>2012-12-09T11:39:27Z</time>
      </trkpt>
      <trkpt lat="43.17074" lon="6.64332">
        <ele>94</ele>
        <time>2012-12-09T11:39:34Z</time>
      </trkpt>
      <trkpt lat="43.17078" lon="6.64328">
        <ele>94.4</ele>
        <time>2012-12-09T11:39:40Z</time>
      </trkpt>
      <trkpt lat="43.17082" lon="6.64324">
        <ele>94.7</ele>
        <time>2012-12-09T11:39:47Z</time>
      </trkpt>
      <trkpt lat="43.17084" lon="6.64318">
        <ele>96.6</ele>
        <time>2012-12-09T11:39:55Z</time>
      </trkpt>
      <trkpt lat="43.17088" lon="6.64313">
        <ele>96.6</ele>
        <time>2012-12-09T11:40:01Z</time>
      </trkpt>
      <trkpt lat="43.17093" lon="6.64314">
        <ele>98.5</ele>
        <time>2012-12-09T11:40:06Z</time>
      </trkpt>
      <trkpt lat="43.17098" lon="6.64315">
        <ele>98.4</ele>
        <time>2012-12-09T11:40:11Z</time>
      </trkpt>
      <trkpt lat="43.17101" lon="6.64311">
        <ele>96.9</ele>
        <time>2012-12-09T11:40:16Z</time>
      </trkpt>
      <trkpt lat="43.17103" lon="6.64304">
        <ele>93.1</ele>
        <time>2012-12-09T11:40:24Z</time>
      </trkpt>
      <trkpt lat="43.17106" lon="6.64299">
        <ele>93</ele>
        <time>2012-12-09T11:40:35Z</time>
      </trkpt>
      <trkpt lat="43.17109" lon="6.64293">
        <ele>88.9</ele>
        <time>2012-12-09T11:40:43Z</time>
      </trkpt>
      <trkpt lat="43.1711" lon="6.64286">
        <ele>85.8</ele>
        <time>2012-12-09T11:40:50Z</time>
      </trkpt>
      <trkpt lat="43.17113" lon="6.64281">
        <ele>84.8</ele>
        <time>2012-12-09T11:40:59Z</time>
      </trkpt>
      <trkpt lat="43.17113" lon="6.64274">
        <ele>83.1</ele>
        <time>2012-12-09T11:41:09Z</time>
      </trkpt>
      <trkpt lat="43.17113" lon="6.64267">
        <ele>81.8</ele>
        <time>2012-12-09T11:41:19Z</time>
      </trkpt>
      <trkpt lat="43.17113" lon="6.6426">
        <ele>79.6</ele>
        <time>2012-12-09T11:41:30Z</time>
      </trkpt>
      <trkpt lat="43.17113" lon="6.64254">
        <ele>76</ele>
        <time>2012-12-09T11:41:41Z</time>
      </trkpt>
      <trkpt lat="43.17109" lon="6.64249">
        <ele>72.3</ele>
        <time>2012-12-09T11:41:46Z</time>
      </trkpt>
      <trkpt lat="43.17107" lon="6.64241">
        <ele>70.5</ele>
        <time>2012-12-09T11:41:52Z</time>
      </trkpt>
      <trkpt lat="43.1711" lon="6.64236">
        <ele>71.5</ele>
        <time>2012-12-09T11:42:00Z</time>
      </trkpt>
      <trkpt lat="43.17111" lon="6.64229">
        <ele>70</ele>
        <time>2012-12-09T11:42:07Z</time>
      </trkpt>
      <trkpt lat="43.17113" lon="6.64224">
        <ele>72.9</ele>
        <time>2012-12-09T11:42:14Z</time>
      </trkpt>
      <trkpt lat="43.17118" lon="6.64222">
        <ele>74.2</ele>
        <time>2012-12-09T11:42:19Z</time>
      </trkpt>
      <trkpt lat="43.17122" lon="6.6422">
        <ele>71.8</ele>
        <time>2012-12-09T11:42:24Z</time>
      </trkpt>
      <trkpt lat="43.17127" lon="6.64219">
        <ele>74.1</ele>
        <time>2012-12-09T11:42:29Z</time>
      </trkpt>
      <trkpt lat="43.17131" lon="6.64215">
        <ele>73.1</ele>
        <time>2012-12-09T11:42:34Z</time>
      </trkpt>
      <trkpt lat="43.17134" lon="6.6421">
        <ele>72.4</ele>
        <time>2012-12-09T11:42:37Z</time>
      </trkpt>
      <trkpt lat="43.17137" lon="6.64206">
        <ele>72.8</ele>
        <time>2012-12-09T11:42:40Z</time>
      </trkpt>
      <trkpt lat="43.17142" lon="6.64202">
        <ele>69.8</ele>
        <time>2012-12-09T11:42:44Z</time>
      </trkpt>
      <trkpt lat="43.17147" lon="6.64198">
        <ele>68.7</ele>
        <time>2012-12-09T11:42:48Z</time>
      </trkpt>
      <trkpt lat="43.17151" lon="6.64193">
        <ele>70.3</ele>
        <time>2012-12-09T11:42:52Z</time>
      </trkpt>
      <trkpt lat="43.17156" lon="6.64189">
        <ele>66.4</ele>
        <time>2012-12-09T11:42:58Z</time>
      </trkpt>
      <trkpt lat="43.1716" lon="6.64186">
        <ele>66.2</ele>
        <time>2012-12-09T11:43:02Z</time>
      </trkpt>
      <trkpt lat="43.17164" lon="6.64184">
        <ele>65.9</ele>
        <time>2012-12-09T11:43:05Z</time>
      </trkpt>
      <trkpt lat="43.17169" lon="6.64182">
        <ele>64.2</ele>
        <time>2012-12-09T11:43:08Z</time>
      </trkpt>
      <trkpt lat="43.17174" lon="6.64179">
        <ele>62.4</ele>
        <time>2012-12-09T11:43:12Z</time>
      </trkpt>
      <trkpt lat="43.17179" lon="6.64176">
        <ele>59.4</ele>
        <time>2012-12-09T11:43:17Z</time>
      </trkpt>
      <trkpt lat="43.17184" lon="6.64174">
        <ele>58.2</ele>
        <time>2012-12-09T11:43:22Z</time>
      </trkpt>
      <trkpt lat="43.17187" lon="6.64171">
        <ele>59.9</ele>
        <time>2012-12-09T11:45:54Z</time>
      </trkpt>
      <trkpt lat="43.1719" lon="6.64165">
        <ele>62</ele>
        <time>2012-12-09T11:46:32Z</time>
      </trkpt>
      <trkpt lat="43.17193" lon="6.6416">
        <ele>61.1</ele>
        <time>2012-12-09T11:46:40Z</time>
      </trkpt>
      <trkpt lat="43.17194" lon="6.64153">
        <ele>58.2</ele>
        <time>2012-12-09T11:46:45Z</time>
      </trkpt>
      <trkpt lat="43.17196" lon="6.64146">
        <ele>55.9</ele>
        <time>2012-12-09T11:46:50Z</time>
      </trkpt>
      <trkpt lat="43.17199" lon="6.64141">
        <ele>56.3</ele>
        <time>2012-12-09T11:46:54Z</time>
      </trkpt>
      <trkpt lat="43.17203" lon="6.64137">
        <ele>54.2</ele>
        <time>2012-12-09T11:46:58Z</time>
      </trkpt>
      <trkpt lat="43.17204" lon="6.64129">
        <ele>51.4</ele>
        <time>2012-12-09T11:47:03Z</time>
      </trkpt>
      <trkpt lat="43.17205" lon="6.64123">
        <ele>51.7</ele>
        <time>2012-12-09T11:47:07Z</time>
      </trkpt>
      <trkpt lat="43.17207" lon="6.64116">
        <ele>52.1</ele>
        <time>2012-12-09T11:47:11Z</time>
      </trkpt>
      <trkpt lat="43.17209" lon="6.6411">
        <ele>52.1</ele>
        <time>2012-12-09T11:47:15Z</time>
      </trkpt>
      <trkpt lat="43.17212" lon="6.64104">
        <ele>49.5</ele>
        <time>2012-12-09T11:47:19Z</time>
      </trkpt>
      <trkpt lat="43.17216" lon="6.64098">
        <ele>50.3</ele>
        <time>2012-12-09T11:47:23Z</time>
      </trkpt>
      <trkpt lat="43.17219" lon="6.64092">
        <ele>49.2</ele>
        <time>2012-12-09T11:47:27Z</time>
      </trkpt>
      <trkpt lat="43.17223" lon="6.64086">
        <ele>50.2</ele>
        <time>2012-12-09T11:47:31Z</time>
      </trkpt>
      <trkpt lat="43.17224" lon="6.6408">
        <ele>50.9</ele>
        <time>2012-12-09T11:47:35Z</time>
      </trkpt>
      <trkpt lat="43.17224" lon="6.64073">
        <ele>50.1</ele>
        <time>2012-12-09T11:47:39Z</time>
      </trkpt>
      <trkpt lat="43.17225" lon="6.64066">
        <ele>50.1</ele>
        <time>2012-12-09T11:47:43Z</time>
      </trkpt>
      <trkpt lat="43.17228" lon="6.6406">
        <ele>47.7</ele>
        <time>2012-12-09T11:47:47Z</time>
      </trkpt>
      <trkpt lat="43.17229" lon="6.64053">
        <ele>46.7</ele>
        <time>2012-12-09T11:47:51Z</time>
      </trkpt>
      <trkpt lat="43.17223" lon="6.64052">
        <ele>49.6</ele>
        <time>2012-12-09T11:48:00Z</time>
      </trkpt>
      <trkpt lat="43.17218" lon="6.64054">
        <ele>48.9</ele>
        <time>2012-12-09T11:48:04Z</time>
      </trkpt>
      <trkpt lat="43.17215" lon="6.64048">
        <ele>48.1</ele>
        <time>2012-12-09T11:48:09Z</time>
      </trkpt>
      <trkpt lat="43.17214" lon="6.64042">
        <ele>47.3</ele>
        <time>2012-12-09T11:48:13Z</time>
      </trkpt>
      <trkpt lat="43.17215" lon="6.64035">
        <ele>47.1</ele>
        <time>2012-12-09T11:48:20Z</time>
      </trkpt>
      <trkpt lat="43.1721" lon="6.64038">
        <ele>47.2</ele>
        <time>2012-12-09T11:48:42Z</time>
      </trkpt>
      <trkpt lat="43.17207" lon="6.64037">
        <ele>0.9882813</ele>
      </trkpt>
      <trkpt lat="43.17213" lon="6.6403">
        <ele>0.8632813</ele>
      </trkpt>
      <trkpt lat="43.17214" lon="6.64029">
        <ele>54.3</ele>
        <time>2012-12-09T11:04:19Z</time>
      </trkpt>
      <trkpt lat="43.17214" lon="6.64021">
        <ele>53.8</ele>
        <time>2012-12-09T11:04:15Z</time>
      </trkpt>
      <trkpt lat="43.17217" lon="6.64015">
        <ele>55</ele>
        <time>2012-12-09T11:04:11Z</time>
      </trkpt>
      <trkpt lat="43.1722" lon="6.6401">
        <ele>56.4</ele>
        <time>2012-12-09T11:04:06Z</time>
      </trkpt>
      <trkpt lat="43.17224" lon="6.64006">
        <ele>55.9</ele>
        <time>2012-12-09T11:04:00Z</time>
      </trkpt>
      <trkpt lat="43.17227" lon="6.64001">
        <ele>53.7</ele>
        <time>2012-12-09T11:03:52Z</time>
      </trkpt>
      <trkpt lat="43.1723" lon="6.63995">
        <ele>52.5</ele>
        <time>2012-12-09T11:03:47Z</time>
      </trkpt>
      <trkpt lat="43.17232" lon="6.6399">
        <ele>52.7</ele>
        <time>2012-12-09T11:03:43Z</time>
      </trkpt>
      <trkpt lat="43.17233" lon="6.63983">
        <ele>52.1</ele>
        <time>2012-12-09T11:03:38Z</time>
      </trkpt>
      <trkpt lat="43.17235" lon="6.63977">
        <ele>53.1</ele>
        <time>2012-12-09T11:03:33Z</time>
      </trkpt>
      <trkpt lat="43.17238" lon="6.63971">
        <ele>51.7</ele>
        <time>2012-12-09T11:03:28Z</time>
      </trkpt>
      <trkpt lat="43.17241" lon="6.63966">
        <ele>52.2</ele>
        <time>2012-12-09T11:03:23Z</time>
      </trkpt>
      <trkpt lat="43.17244" lon="6.63961">
        <ele>52.1</ele>
        <time>2012-12-09T11:03:18Z</time>
      </trkpt>
      <trkpt lat="43.17247" lon="6.63956">
        <ele>52.4</ele>
        <time>2012-12-09T11:03:14Z</time>
      </trkpt>
      <trkpt lat="43.17251" lon="6.63953">
        <ele>54.6</ele>
        <time>2012-12-09T11:03:10Z</time>
      </trkpt>
      <trkpt lat="43.17255" lon="6.63949">
        <ele>54</ele>
        <time>2012-12-09T11:03:05Z</time>
      </trkpt>
      <trkpt lat="43.17258" lon="6.63943">
        <ele>53.1</ele>
        <time>2012-12-09T11:03:01Z</time>
      </trkpt>
      <trkpt lat="43.17261" lon="6.63938">
        <ele>52</ele>
        <time>2012-12-09T11:02:57Z</time>
      </trkpt>
      <trkpt lat="43.17264" lon="6.63932">
        <ele>52.3</ele>
        <time>2012-12-09T11:02:53Z</time>
      </trkpt>
      <trkpt lat="43.17266" lon="6.63925">
        <ele>49.5</ele>
        <time>2012-12-09T11:02:48Z</time>
      </trkpt>
      <trkpt lat="43.17267" lon="6.63918">
        <ele>50.9</ele>
        <time>2012-12-09T11:02:43Z</time>
      </trkpt>
      <trkpt lat="43.17266" lon="6.63912">
        <ele>51.8</ele>
        <time>2012-12-09T11:02:38Z</time>
      </trkpt>
      <trkpt lat="43.1727" lon="6.63908">
        <ele>54.2</ele>
        <time>2012-12-09T11:01:24Z</time>
      </trkpt>
      <trkpt lat="43.17271" lon="6.63901">
        <ele>52.8</ele>
        <time>2012-12-09T11:01:19Z</time>
      </trkpt>
      <trkpt lat="43.17273" lon="6.63895">
        <ele>52.2</ele>
        <time>2012-12-09T11:01:15Z</time>
      </trkpt>
      <trkpt lat="43.17272" lon="6.63888">
        <ele>54.8</ele>
        <time>2012-12-09T11:01:10Z</time>
      </trkpt>
      <trkpt lat="43.17271" lon="6.63882">
        <ele>55.2</ele>
        <time>2012-12-09T11:01:04Z</time>
      </trkpt>
      <trkpt lat="43.17268" lon="6.63876">
        <ele>55</ele>
        <time>2012-12-09T11:00:59Z</time>
      </trkpt>
      <trkpt lat="43.17266" lon="6.6387">
        <ele>54.1</ele>
        <time>2012-12-09T11:00:50Z</time>
      </trkpt>
      <trkpt lat="43.17264" lon="6.63863">
        <ele>54.7</ele>
        <time>2012-12-09T11:00:45Z</time>
      </trkpt>
      <trkpt lat="43.17262" lon="6.63856">
        <ele>55.7</ele>
        <time>2012-12-09T11:00:41Z</time>
      </trkpt>
      <trkpt lat="43.1726" lon="6.63851">
        <ele>57.5</ele>
        <time>2012-12-09T11:00:37Z</time>
      </trkpt>
      <trkpt lat="43.17257" lon="6.63845">
        <ele>58</ele>
        <time>2012-12-09T11:00:33Z</time>
      </trkpt>
      <trkpt lat="43.17256" lon="6.63839">
        <ele>59.5</ele>
        <time>2012-12-09T11:00:30Z</time>
      </trkpt>
      <trkpt lat="43.17253" lon="6.63834">
        <ele>61.7</ele>
        <time>2012-12-09T11:00:25Z</time>
      </trkpt>
      <trkpt lat="43.17248" lon="6.63831">
        <ele>62.7</ele>
        <time>2012-12-09T11:00:21Z</time>
      </trkpt>
      <trkpt lat="43.17246" lon="6.63824">
        <ele>64.9</ele>
        <time>2012-12-09T11:00:15Z</time>
      </trkpt>
      <trkpt lat="43.17248" lon="6.63817">
        <ele>65.2</ele>
        <time>2012-12-09T11:00:09Z</time>
      </trkpt>
      <trkpt lat="43.17248" lon="6.6381">
        <ele>62.1</ele>
        <time>2012-12-09T10:59:58Z</time>
      </trkpt>
      <trkpt lat="43.17247" lon="6.63804">
        <ele>61.8</ele>
        <time>2012-12-09T10:59:53Z</time>
      </trkpt>
      <trkpt lat="43.17247" lon="6.63796">
        <ele>61.6</ele>
        <time>2012-12-09T10:59:46Z</time>
      </trkpt>
      <trkpt lat="43.17243" lon="6.63794">
        <ele>58.8</ele>
        <time>2012-12-09T10:59:35Z</time>
      </trkpt>
      <trkpt lat="43.17245" lon="6.63787">
        <ele>57.8</ele>
        <time>2012-12-09T10:59:30Z</time>
      </trkpt>
      <trkpt lat="43.17246" lon="6.6378">
        <ele>59</ele>
        <time>2012-12-09T10:59:25Z</time>
      </trkpt>
      <trkpt lat="43.17246" lon="6.63774">
        <ele>57.6</ele>
        <time>2012-12-09T10:59:17Z</time>
      </trkpt>
      <trkpt lat="43.17249" lon="6.63768">
        <ele>57.7</ele>
        <time>2012-12-09T10:59:13Z</time>
      </trkpt>
      <trkpt lat="43.1725" lon="6.6376">
        <ele>58.9</ele>
        <time>2012-12-09T10:59:07Z</time>
      </trkpt>
      <trkpt lat="43.17249" lon="6.63754">
        <ele>56.4</ele>
        <time>2012-12-09T10:59:01Z</time>
      </trkpt>
      <trkpt lat="43.17249" lon="6.63748">
        <ele>53.9</ele>
        <time>2012-12-09T10:58:57Z</time>
      </trkpt>
      <trkpt lat="43.1725" lon="6.63742">
        <ele>53.1</ele>
        <time>2012-12-09T10:58:53Z</time>
      </trkpt>
      <trkpt lat="43.17255" lon="6.63737">
        <ele>53.4</ele>
        <time>2012-12-09T10:58:48Z</time>
      </trkpt>
      <trkpt lat="43.17256" lon="6.63731">
        <ele>52.2</ele>
        <time>2012-12-09T10:58:42Z</time>
      </trkpt>
      <trkpt lat="43.17258" lon="6.63725">
        <ele>51.7</ele>
        <time>2012-12-09T10:58:36Z</time>
      </trkpt>
      <trkpt lat="43.17261" lon="6.63719">
        <ele>50.2</ele>
        <time>2012-12-09T10:58:31Z</time>
      </trkpt>
      <trkpt lat="43.17264" lon="6.63714">
        <ele>50</ele>
        <time>2012-12-09T10:58:27Z</time>
      </trkpt>
      <trkpt lat="43.17267" lon="6.6371">
        <ele>48.3</ele>
        <time>2012-12-09T10:58:22Z</time>
      </trkpt>
      <trkpt lat="43.1727" lon="6.63704">
        <ele>44.6</ele>
        <time>2012-12-09T10:58:16Z</time>
      </trkpt>
      <trkpt lat="43.17273" lon="6.63698">
        <ele>44.3</ele>
        <time>2012-12-09T10:58:12Z</time>
      </trkpt>
      <trkpt lat="43.17274" lon="6.63691">
        <ele>45.6</ele>
        <time>2012-12-09T10:58:08Z</time>
      </trkpt>
      <trkpt lat="43.17273" lon="6.63684">
        <ele>48.5</ele>
        <time>2012-12-09T10:58:04Z</time>
      </trkpt>
      <trkpt lat="43.17274" lon="6.63677">
        <ele>47.5</ele>
        <time>2012-12-09T10:57:59Z</time>
      </trkpt>
      <trkpt lat="43.17276" lon="6.6367">
        <ele>49</ele>
        <time>2012-12-09T10:57:54Z</time>
      </trkpt>
      <trkpt lat="43.17277" lon="6.63664">
        <ele>49.1</ele>
        <time>2012-12-09T10:57:49Z</time>
      </trkpt>
      <trkpt lat="43.17278" lon="6.63656">
        <ele>49.5</ele>
        <time>2012-12-09T10:57:44Z</time>
      </trkpt>
      <trkpt lat="43.17278" lon="6.6365">
        <ele>50.5</ele>
        <time>2012-12-09T10:57:40Z</time>
      </trkpt>
      <trkpt lat="43.17278" lon="6.63644">
        <ele>51.9</ele>
        <time>2012-12-09T10:57:35Z</time>
      </trkpt>
      <trkpt lat="43.17278" lon="6.63636">
        <ele>51</ele>
        <time>2012-12-09T10:57:30Z</time>
      </trkpt>
      <trkpt lat="43.1728" lon="6.63631">
        <ele>51.8</ele>
        <time>2012-12-09T10:57:26Z</time>
      </trkpt>
      <trkpt lat="43.17281" lon="6.63624">
        <ele>49.6</ele>
        <time>2012-12-09T10:57:22Z</time>
      </trkpt>
      <trkpt lat="43.17281" lon="6.63618">
        <ele>50.7</ele>
        <time>2012-12-09T10:57:18Z</time>
      </trkpt>
      <trkpt lat="43.17282" lon="6.63611">
        <ele>51</ele>
        <time>2012-12-09T10:57:14Z</time>
      </trkpt>
      <trkpt lat="43.17283" lon="6.63604">
        <ele>49.4</ele>
        <time>2012-12-09T10:57:09Z</time>
      </trkpt>
      <trkpt lat="43.17282" lon="6.63596">
        <ele>49.6</ele>
        <time>2012-12-09T10:57:04Z</time>
      </trkpt>
      <trkpt lat="43.17282" lon="6.63589">
        <ele>47.7</ele>
        <time>2012-12-09T10:56:58Z</time>
      </trkpt>
      <trkpt lat="43.17282" lon="6.63582">
        <ele>46.5</ele>
        <time>2012-12-09T10:56:53Z</time>
      </trkpt>
      <trkpt lat="43.17281" lon="6.63576">
        <ele>47.6</ele>
        <time>2012-12-09T10:56:49Z</time>
      </trkpt>
      <trkpt lat="43.1728" lon="6.6357">
        <ele>48.7</ele>
        <time>2012-12-09T10:56:44Z</time>
      </trkpt>
      <trkpt lat="43.17279" lon="6.63563">
        <ele>47.9</ele>
        <time>2012-12-09T10:56:39Z</time>
      </trkpt>
      <trkpt lat="43.1728" lon="6.63557">
        <ele>45.1</ele>
        <time>2012-12-09T10:56:34Z</time>
      </trkpt>
      <trkpt lat="43.1728" lon="6.6355">
        <ele>47</ele>
        <time>2012-12-09T10:56:30Z</time>
      </trkpt>
      <trkpt lat="43.1728" lon="6.63544">
        <ele>47.9</ele>
        <time>2012-12-09T10:56:26Z</time>
      </trkpt>
      <trkpt lat="43.17279" lon="6.63537">
        <ele>46.5</ele>
        <time>2012-12-09T10:56:22Z</time>
      </trkpt>
      <trkpt lat="43.17279" lon="6.6353">
        <ele>46.6</ele>
        <time>2012-12-09T10:55:56Z</time>
      </trkpt>
      <trkpt lat="43.17278" lon="6.63523">
        <ele>45</ele>
        <time>2012-12-09T10:55:51Z</time>
      </trkpt>
      <trkpt lat="43.17277" lon="6.63516">
        <ele>46</ele>
        <time>2012-12-09T10:55:47Z</time>
      </trkpt>
      <trkpt lat="43.17277" lon="6.63509">
        <ele>46.8</ele>
        <time>2012-12-09T10:55:43Z</time>
      </trkpt>
      <trkpt lat="43.17276" lon="6.63502">
        <ele>46.2</ele>
        <time>2012-12-09T10:55:39Z</time>
      </trkpt>
      <trkpt lat="43.17276" lon="6.63495">
        <ele>46.5</ele>
        <time>2012-12-09T10:55:35Z</time>
      </trkpt>
      <trkpt lat="43.17276" lon="6.63488">
        <ele>47.8</ele>
        <time>2012-12-09T10:55:31Z</time>
      </trkpt>
      <trkpt lat="43.17275" lon="6.6348">
        <ele>46.9</ele>
        <time>2012-12-09T10:55:27Z</time>
      </trkpt>
      <trkpt lat="43.17275" lon="6.63474">
        <ele>46.5</ele>
        <time>2012-12-09T10:55:23Z</time>
      </trkpt>
      <trkpt lat="43.17274" lon="6.63467">
        <ele>48.2</ele>
        <time>2012-12-09T10:55:19Z</time>
      </trkpt>
      <trkpt lat="43.17274" lon="6.6346">
        <ele>48.2</ele>
        <time>2012-12-09T10:55:15Z</time>
      </trkpt>
      <trkpt lat="43.17273" lon="6.63453">
        <ele>48.8</ele>
        <time>2012-12-09T10:55:11Z</time>
      </trkpt>
      <trkpt lat="43.17272" lon="6.63446">
        <ele>47.7</ele>
        <time>2012-12-09T10:55:07Z</time>
      </trkpt>
      <trkpt lat="43.17271" lon="6.63439">
        <ele>48.1</ele>
        <time>2012-12-09T10:55:03Z</time>
      </trkpt>
      <trkpt lat="43.1727" lon="6.63433">
        <ele>48.3</ele>
        <time>2012-12-09T10:54:59Z</time>
      </trkpt>
      <trkpt lat="43.17268" lon="6.63426">
        <ele>49.8</ele>
        <time>2012-12-09T10:54:55Z</time>
      </trkpt>
      <trkpt lat="43.17267" lon="6.63419">
        <ele>49.4</ele>
        <time>2012-12-09T10:54:50Z</time>
      </trkpt>
      <trkpt lat="43.17266" lon="6.63413">
        <ele>48.9</ele>
        <time>2012-12-09T10:54:46Z</time>
      </trkpt>
      <trkpt lat="43.17264" lon="6.63406">
        <ele>48.4</ele>
        <time>2012-12-09T10:54:42Z</time>
      </trkpt>
      <trkpt lat="43.17263" lon="6.634">
        <ele>49.7</ele>
        <time>2012-12-09T10:54:38Z</time>
      </trkpt>
      <trkpt lat="43.17262" lon="6.63394">
        <ele>49.2</ele>
        <time>2012-12-09T10:54:33Z</time>
      </trkpt>
      <trkpt lat="43.1726" lon="6.63386">
        <ele>48.4</ele>
        <time>2012-12-09T10:54:28Z</time>
      </trkpt>
      <trkpt lat="43.17259" lon="6.6338">
        <ele>49</ele>
        <time>2012-12-09T10:54:24Z</time>
      </trkpt>
      <trkpt lat="43.17258" lon="6.63374">
        <ele>48.4</ele>
        <time>2012-12-09T10:54:20Z</time>
      </trkpt>
      <trkpt lat="43.17257" lon="6.63367">
        <ele>48.3</ele>
        <time>2012-12-09T10:54:16Z</time>
      </trkpt>
      <trkpt lat="43.17256" lon="6.63361">
        <ele>48.7</ele>
        <time>2012-12-09T10:54:12Z</time>
      </trkpt>
      <trkpt lat="43.17254" lon="6.63354">
        <ele>49.1</ele>
        <time>2012-12-09T10:54:07Z</time>
      </trkpt>
      <trkpt lat="43.17253" lon="6.63347">
        <ele>48.4</ele>
        <time>2012-12-09T10:54:02Z</time>
      </trkpt>
      <trkpt lat="43.17252" lon="6.6334">
        <ele>47.2</ele>
        <time>2012-12-09T10:53:58Z</time>
      </trkpt>
      <trkpt lat="43.1725" lon="6.63334">
        <ele>47.5</ele>
        <time>2012-12-09T10:53:54Z</time>
      </trkpt>
      <trkpt lat="43.17249" lon="6.63328">
        <ele>47.4</ele>
        <time>2012-12-09T10:53:50Z</time>
      </trkpt>
      <trkpt lat="43.17248" lon="6.63321">
        <ele>47.3</ele>
        <time>2012-12-09T10:53:46Z</time>
      </trkpt>
      <trkpt lat="43.17246" lon="6.63314">
        <ele>47</ele>
        <time>2012-12-09T10:53:41Z</time>
      </trkpt>
      <trkpt lat="43.17245" lon="6.63308">
        <ele>48.2</ele>
        <time>2012-12-09T10:53:37Z</time>
      </trkpt>
      <trkpt lat="43.17243" lon="6.63302">
        <ele>47.3</ele>
        <time>2012-12-09T10:53:33Z</time>
      </trkpt>
      <trkpt lat="43.17242" lon="6.63295">
        <ele>47.7</ele>
        <time>2012-12-09T10:53:29Z</time>
      </trkpt>
      <trkpt lat="43.17241" lon="6.63288">
        <ele>48</ele>
        <time>2012-12-09T10:53:25Z</time>
      </trkpt>
      <trkpt lat="43.17239" lon="6.63283">
        <ele>48.4</ele>
        <time>2012-12-09T10:53:21Z</time>
      </trkpt>
      <trkpt lat="43.17234" lon="6.63278">
        <ele>49.2</ele>
        <time>2012-12-09T10:53:16Z</time>
      </trkpt>
      <trkpt lat="43.17231" lon="6.63273">
        <ele>48.4</ele>
        <time>2012-12-09T10:53:11Z</time>
      </trkpt>
      <trkpt lat="43.17229" lon="6.63268">
        <ele>48.8</ele>
        <time>2012-12-09T10:53:06Z</time>
      </trkpt>
      <trkpt lat="43.17228" lon="6.63261">
        <ele>48.9</ele>
        <time>2012-12-09T10:53:01Z</time>
      </trkpt>
      <trkpt lat="43.17227" lon="6.63254">
        <ele>49.8</ele>
        <time>2012-12-09T10:52:57Z</time>
      </trkpt>
      <trkpt lat="43.17224" lon="6.63249">
        <ele>48.9</ele>
        <time>2012-12-09T10:52:51Z</time>
      </trkpt>
      <trkpt lat="43.17219" lon="6.63246">
        <ele>47.2</ele>
        <time>2012-12-09T10:52:39Z</time>
      </trkpt>
      <trkpt lat="43.17217" lon="6.6324">
        <ele>47.8</ele>
        <time>2012-12-09T10:50:19Z</time>
      </trkpt>
      <trkpt lat="43.17215" lon="6.63234">
        <ele>48.2</ele>
        <time>2012-12-09T10:50:11Z</time>
      </trkpt>
      <trkpt lat="43.17212" lon="6.6323">
        <ele>47.9</ele>
        <time>2012-12-09T10:50:04Z</time>
      </trkpt>
      <trkpt lat="43.17209" lon="6.63234">
        <ele>49.4</ele>
        <time>2012-12-09T10:50:00Z</time>
      </trkpt>
      <trkpt lat="43.17203" lon="6.63235">
        <ele>50.2</ele>
        <time>2012-12-09T10:49:55Z</time>
      </trkpt>
      <trkpt lat="43.17199" lon="6.63232">
        <ele>50.7</ele>
        <time>2012-12-09T10:49:50Z</time>
      </trkpt>
      <trkpt lat="43.17195" lon="6.63227">
        <ele>52.4</ele>
        <time>2012-12-09T10:49:46Z</time>
      </trkpt>
      <trkpt lat="43.17191" lon="6.63223">
        <ele>53.2</ele>
        <time>2012-12-09T10:49:42Z</time>
      </trkpt>
      <trkpt lat="43.17186" lon="6.63221">
        <ele>54.6</ele>
        <time>2012-12-09T10:49:38Z</time>
      </trkpt>
      <trkpt lat="43.17181" lon="6.63217">
        <ele>54.3</ele>
        <time>2012-12-09T10:49:32Z</time>
      </trkpt>
      <trkpt lat="43.17177" lon="6.63213">
        <ele>53.9</ele>
        <time>2012-12-09T10:49:27Z</time>
      </trkpt>
      <trkpt lat="43.17172" lon="6.63212">
        <ele>55</ele>
        <time>2012-12-09T10:49:23Z</time>
      </trkpt>
      <trkpt lat="43.17167" lon="6.63211">
        <ele>55</ele>
        <time>2012-12-09T10:49:18Z</time>
      </trkpt>
      <trkpt lat="43.17164" lon="6.63206">
        <ele>57.3</ele>
        <time>2012-12-09T10:49:13Z</time>
      </trkpt>
      <trkpt lat="43.17158" lon="6.63205">
        <ele>54.8</ele>
        <time>2012-12-09T10:49:09Z</time>
      </trkpt>
      <trkpt lat="43.17153" lon="6.63206">
        <ele>56</ele>
        <time>2012-12-09T10:49:05Z</time>
      </trkpt>
      <trkpt lat="43.17148" lon="6.63207">
        <ele>58.2</ele>
        <time>2012-12-09T10:48:09Z</time>
      </trkpt>
      <trkpt lat="43.17143" lon="6.63206">
        <ele>58</ele>
        <time>2012-12-09T10:48:04Z</time>
      </trkpt>
      <trkpt lat="43.17139" lon="6.63202">
        <ele>53.7</ele>
        <time>2012-12-09T10:48:00Z</time>
      </trkpt>
      <trkpt lat="43.17135" lon="6.63202">
        <ele>52.4</ele>
        <time>2012-12-09T10:47:56Z</time>
      </trkpt>
      <trkpt lat="43.1713" lon="6.63202">
        <ele>51.1</ele>
        <time>2012-12-09T10:47:51Z</time>
      </trkpt>
      <trkpt lat="43.17125" lon="6.63202">
        <ele>49.5</ele>
        <time>2012-12-09T10:47:47Z</time>
      </trkpt>
      <trkpt lat="43.1712" lon="6.63204">
        <ele>49.9</ele>
        <time>2012-12-09T10:47:43Z</time>
      </trkpt>
      <trkpt lat="43.17115" lon="6.63202">
        <ele>52.7</ele>
        <time>2012-12-09T10:47:39Z</time>
      </trkpt>
      <trkpt lat="43.17112" lon="6.63197">
        <ele>51.6</ele>
        <time>2012-12-09T10:47:35Z</time>
      </trkpt>
      <trkpt lat="43.17108" lon="6.63191">
        <ele>52.7</ele>
        <time>2012-12-09T10:47:30Z</time>
      </trkpt>
      <trkpt lat="43.17106" lon="6.63186">
        <ele>52.4</ele>
        <time>2012-12-09T10:47:25Z</time>
      </trkpt>
      <trkpt lat="43.17105" lon="6.6318">
        <ele>52.8</ele>
        <time>2012-12-09T10:47:21Z</time>
      </trkpt>
      <trkpt lat="43.17105" lon="6.63172">
        <ele>55.2</ele>
        <time>2012-12-09T10:47:17Z</time>
      </trkpt>
      <trkpt lat="43.17107" lon="6.63166">
        <ele>58</ele>
        <time>2012-12-09T10:47:13Z</time>
      </trkpt>
      <trkpt lat="43.1711" lon="6.63161">
        <ele>59.4</ele>
        <time>2012-12-09T10:47:09Z</time>
      </trkpt>
      <trkpt lat="43.17114" lon="6.63157">
        <ele>60</ele>
        <time>2012-12-09T10:47:05Z</time>
      </trkpt>
      <trkpt lat="43.17117" lon="6.63152">
        <ele>60.6</ele>
        <time>2012-12-09T10:47:01Z</time>
      </trkpt>
      <trkpt lat="43.17119" lon="6.63146">
        <ele>62.5</ele>
        <time>2012-12-09T10:46:57Z</time>
      </trkpt>
      <trkpt lat="43.17123" lon="6.63143">
        <ele>59.9</ele>
        <time>2012-12-09T10:46:53Z</time>
      </trkpt>
      <trkpt lat="43.17123" lon="6.63136">
        <ele>57.1</ele>
        <time>2012-12-09T10:46:49Z</time>
      </trkpt>
      <trkpt lat="43.17124" lon="6.63129">
        <ele>57.3</ele>
        <time>2012-12-09T10:46:45Z</time>
      </trkpt>
      <trkpt lat="43.17123" lon="6.63124">
        <ele>57.4</ele>
        <time>2012-12-09T10:46:42Z</time>
      </trkpt>
      <trkpt lat="43.17122" lon="6.63117">
        <ele>58.2</ele>
        <time>2012-12-09T10:46:38Z</time>
      </trkpt>
      <trkpt lat="43.17122" lon="6.6311">
        <ele>62.1</ele>
        <time>2012-12-09T10:46:33Z</time>
      </trkpt>
      <trkpt lat="43.17122" lon="6.63103">
        <ele>59.7</ele>
        <time>2012-12-09T10:46:28Z</time>
      </trkpt>
      <trkpt lat="43.17124" lon="6.63097">
        <ele>56.8</ele>
        <time>2012-12-09T10:46:25Z</time>
      </trkpt>
      <trkpt lat="43.17125" lon="6.6309">
        <ele>59.6</ele>
        <time>2012-12-09T10:46:17Z</time>
      </trkpt>
      <trkpt lat="43.17123" lon="6.63084">
        <ele>60</ele>
        <time>2012-12-09T10:46:13Z</time>
      </trkpt>
      <trkpt lat="43.17122" lon="6.63076">
        <ele>60.6</ele>
        <time>2012-12-09T10:46:09Z</time>
      </trkpt>
      <trkpt lat="43.17119" lon="6.6307">
        <ele>63.2</ele>
        <time>2012-12-09T10:46:06Z</time>
      </trkpt>
      <trkpt lat="43.17115" lon="6.63065">
        <ele>65.1</ele>
        <time>2012-12-09T10:46:01Z</time>
      </trkpt>
      <trkpt lat="43.17113" lon="6.63059">
        <ele>64.7</ele>
        <time>2012-12-09T10:45:55Z</time>
      </trkpt>
      <trkpt lat="43.1711" lon="6.63053">
        <ele>63.1</ele>
        <time>2012-12-09T10:45:48Z</time>
      </trkpt>
      <trkpt lat="43.17107" lon="6.63048">
        <ele>63.6</ele>
        <time>2012-12-09T10:45:43Z</time>
      </trkpt>
      <trkpt lat="43.17103" lon="6.63044">
        <ele>64.3</ele>
        <time>2012-12-09T10:45:40Z</time>
      </trkpt>
      <trkpt lat="43.17099" lon="6.63039">
        <ele>64.8</ele>
        <time>2012-12-09T10:45:36Z</time>
      </trkpt>
      <trkpt lat="43.17094" lon="6.63035">
        <ele>63.7</ele>
        <time>2012-12-09T10:45:30Z</time>
      </trkpt>
      <trkpt lat="43.1709" lon="6.63033">
        <ele>60.5</ele>
        <time>2012-12-09T10:45:23Z</time>
      </trkpt>
      <trkpt lat="43.17085" lon="6.6303">
        <ele>59.3</ele>
        <time>2012-12-09T10:45:19Z</time>
      </trkpt>
      <trkpt lat="43.17081" lon="6.63028">
        <ele>61.4</ele>
        <time>2012-12-09T10:45:16Z</time>
      </trkpt>
      <trkpt lat="43.17076" lon="6.63025">
        <ele>62.2</ele>
        <time>2012-12-09T10:45:12Z</time>
      </trkpt>
      <trkpt lat="43.17071" lon="6.63022">
        <ele>63.8</ele>
        <time>2012-12-09T10:45:08Z</time>
      </trkpt>
      <trkpt lat="43.17068" lon="6.63017">
        <ele>64.3</ele>
        <time>2012-12-09T10:45:04Z</time>
      </trkpt>
      <trkpt lat="43.17066" lon="6.63011">
        <ele>64.4</ele>
        <time>2012-12-09T10:45:00Z</time>
      </trkpt>
      <trkpt lat="43.17066" lon="6.63004">
        <ele>61.6</ele>
        <time>2012-12-09T10:44:52Z</time>
      </trkpt>
      <trkpt lat="43.17062" lon="6.63001">
        <ele>64.2</ele>
        <time>2012-12-09T10:44:46Z</time>
      </trkpt>
      <trkpt lat="43.17057" lon="6.63003">
        <ele>66.5</ele>
        <time>2012-12-09T10:44:41Z</time>
      </trkpt>
      <trkpt lat="43.17052" lon="6.63004">
        <ele>71.5</ele>
        <time>2012-12-09T10:44:37Z</time>
      </trkpt>
      <trkpt lat="43.17048" lon="6.63001">
        <ele>71.3</ele>
        <time>2012-12-09T10:44:32Z</time>
      </trkpt>
      <trkpt lat="43.17043" lon="6.63001">
        <ele>69.7</ele>
        <time>2012-12-09T10:44:28Z</time>
      </trkpt>
      <trkpt lat="43.17039" lon="6.63004">
        <ele>71.1</ele>
        <time>2012-12-09T10:44:25Z</time>
      </trkpt>
      <trkpt lat="43.17034" lon="6.63004">
        <ele>72.6</ele>
        <time>2012-12-09T10:44:21Z</time>
      </trkpt>
      <trkpt lat="43.1703" lon="6.63001">
        <ele>74.5</ele>
        <time>2012-12-09T10:44:17Z</time>
      </trkpt>
      <trkpt lat="43.17025" lon="6.62996">
        <ele>74.8</ele>
        <time>2012-12-09T10:44:13Z</time>
      </trkpt>
      <trkpt lat="43.17021" lon="6.62995">
        <ele>73.5</ele>
        <time>2012-12-09T10:44:09Z</time>
      </trkpt>
      <trkpt lat="43.17015" lon="6.62996">
        <ele>75.3</ele>
        <time>2012-12-09T10:44:05Z</time>
      </trkpt>
      <trkpt lat="43.1701" lon="6.62996">
        <ele>76.3</ele>
        <time>2012-12-09T10:44:01Z</time>
      </trkpt>
      <trkpt lat="43.17005" lon="6.62993">
        <ele>76.7</ele>
        <time>2012-12-09T10:43:57Z</time>
      </trkpt>
      <trkpt lat="43.17003" lon="6.62987">
        <ele>74.9</ele>
        <time>2012-12-09T10:43:54Z</time>
      </trkpt>
      <trkpt lat="43.16999" lon="6.62981">
        <ele>71.7</ele>
        <time>2012-12-09T10:43:51Z</time>
      </trkpt>
      <trkpt lat="43.16997" lon="6.62974">
        <ele>72.3</ele>
        <time>2012-12-09T10:43:48Z</time>
      </trkpt>
      <trkpt lat="43.16994" lon="6.62968">
        <ele>73</ele>
        <time>2012-12-09T10:43:44Z</time>
      </trkpt>
      <trkpt lat="43.1699" lon="6.62965">
        <ele>77</ele>
        <time>2012-12-09T10:43:35Z</time>
      </trkpt>
      <trkpt lat="43.16992" lon="6.62959">
        <ele>77.2</ele>
        <time>2012-12-09T10:43:31Z</time>
      </trkpt>
      <trkpt lat="43.16996" lon="6.62955">
        <ele>80.2</ele>
        <time>2012-12-09T10:43:18Z</time>
      </trkpt>
      <trkpt lat="43.17" lon="6.62952">
        <ele>81.8</ele>
        <time>2012-12-09T10:43:11Z</time>
      </trkpt>
      <trkpt lat="43.17004" lon="6.62949">
        <ele>80.9</ele>
        <time>2012-12-09T10:43:03Z</time>
      </trkpt>
      <trkpt lat="43.17009" lon="6.62947">
        <ele>83.4</ele>
        <time>2012-12-09T10:42:58Z</time>
      </trkpt>
      <trkpt lat="43.17009" lon="6.6294">
        <ele>82</ele>
        <time>2012-12-09T10:42:52Z</time>
      </trkpt>
      <trkpt lat="43.1701" lon="6.62934">
        <ele>80.8</ele>
        <time>2012-12-09T10:42:44Z</time>
      </trkpt>
      <trkpt lat="43.17015" lon="6.6293">
        <ele>81.2</ele>
        <time>2012-12-09T10:42:39Z</time>
      </trkpt>
      <trkpt lat="43.17018" lon="6.62926">
        <ele>82.7</ele>
        <time>2012-12-09T10:42:30Z</time>
      </trkpt>
      <trkpt lat="43.17015" lon="6.6292">
        <ele>85.5</ele>
        <time>2012-12-09T10:42:23Z</time>
      </trkpt>
      <trkpt lat="43.17011" lon="6.62916">
        <ele>85.9</ele>
        <time>2012-12-09T10:42:18Z</time>
      </trkpt>
      <trkpt lat="43.17007" lon="6.62912">
        <ele>85.2</ele>
        <time>2012-12-09T10:42:14Z</time>
      </trkpt>
      <trkpt lat="43.17002" lon="6.62908">
        <ele>84.8</ele>
        <time>2012-12-09T10:42:07Z</time>
      </trkpt>
      <trkpt lat="43.16998" lon="6.62905">
        <ele>85.1</ele>
        <time>2012-12-09T10:42:02Z</time>
      </trkpt>
      <trkpt lat="43.16994" lon="6.62901">
        <ele>83.3</ele>
        <time>2012-12-09T10:41:58Z</time>
      </trkpt>
      <trkpt lat="43.1699" lon="6.62897">
        <ele>81.3</ele>
        <time>2012-12-09T10:41:55Z</time>
      </trkpt>
      <trkpt lat="43.16987" lon="6.6289">
        <ele>83</ele>
        <time>2012-12-09T10:41:51Z</time>
      </trkpt>
      <trkpt lat="43.16984" lon="6.62884">
        <ele>83.8</ele>
        <time>2012-12-09T10:41:46Z</time>
      </trkpt>
      <trkpt lat="43.16982" lon="6.62879">
        <ele>87.8</ele>
        <time>2012-12-09T10:41:41Z</time>
      </trkpt>
      <trkpt lat="43.16982" lon="6.62872">
        <ele>90.7</ele>
        <time>2012-12-09T10:41:35Z</time>
      </trkpt>
      <trkpt lat="43.1698" lon="6.62866">
        <ele>91.4</ele>
        <time>2012-12-09T10:41:31Z</time>
      </trkpt>
      <trkpt lat="43.16977" lon="6.6286">
        <ele>94.7</ele>
        <time>2012-12-09T10:41:27Z</time>
      </trkpt>
      <trkpt lat="43.16979" lon="6.62853">
        <ele>94.7</ele>
        <time>2012-12-09T10:41:23Z</time>
      </trkpt>
      <trkpt lat="43.16978" lon="6.62846">
        <ele>94</ele>
        <time>2012-12-09T10:41:19Z</time>
      </trkpt>
      <trkpt lat="43.16976" lon="6.62839">
        <ele>93.7</ele>
        <time>2012-12-09T10:41:15Z</time>
      </trkpt>
      <trkpt lat="43.16974" lon="6.62833">
        <ele>92.8</ele>
        <time>2012-12-09T10:41:10Z</time>
      </trkpt>
      <trkpt lat="43.1697" lon="6.62828">
        <ele>93.4</ele>
        <time>2012-12-09T10:41:03Z</time>
      </trkpt>
      <trkpt lat="43.16968" lon="6.62822">
        <ele>93.3</ele>
        <time>2012-12-09T10:40:58Z</time>
      </trkpt>
      <trkpt lat="43.16966" lon="6.62816">
        <ele>91.6</ele>
        <time>2012-12-09T10:40:52Z</time>
      </trkpt>
      <trkpt lat="43.16965" lon="6.6281">
        <ele>90.2</ele>
        <time>2012-12-09T10:40:45Z</time>
      </trkpt>
      <trkpt lat="43.16963" lon="6.62804">
        <ele>87.8</ele>
        <time>2012-12-09T10:40:37Z</time>
      </trkpt>
      <trkpt lat="43.1696" lon="6.62799">
        <ele>87.4</ele>
        <time>2012-12-09T10:40:28Z</time>
      </trkpt>
      <trkpt lat="43.16957" lon="6.62794">
        <ele>84.2</ele>
        <time>2012-12-09T10:40:21Z</time>
      </trkpt>
      <trkpt lat="43.16956" lon="6.62788">
        <ele>83.3</ele>
        <time>2012-12-09T10:40:14Z</time>
      </trkpt>
      <trkpt lat="43.16952" lon="6.62792">
        <ele>85.9</ele>
        <time>2012-12-09T10:40:06Z</time>
      </trkpt>
      <trkpt lat="43.1695" lon="6.62798">
        <ele>83.1</ele>
        <time>2012-12-09T10:39:58Z</time>
      </trkpt>
      <trkpt lat="43.16945" lon="6.62798">
        <ele>80.9</ele>
        <time>2012-12-09T10:39:47Z</time>
      </trkpt>
      <trkpt lat="43.16941" lon="6.62801">
        <ele>78.9</ele>
        <time>2012-12-09T10:39:40Z</time>
      </trkpt>
      <trkpt lat="43.16936" lon="6.62803">
        <ele>75.3</ele>
        <time>2012-12-09T10:39:32Z</time>
      </trkpt>
      <trkpt lat="43.16936" lon="6.6281">
        <ele>72.3</ele>
        <time>2012-12-09T10:39:22Z</time>
      </trkpt>
      <trkpt lat="43.16932" lon="6.62808">
        <ele>69.8</ele>
        <time>2012-12-09T10:39:14Z</time>
      </trkpt>
      <trkpt lat="43.16927" lon="6.62809">
        <ele>67.6</ele>
        <time>2012-12-09T10:38:23Z</time>
      </trkpt>
      <trkpt lat="43.16924" lon="6.62804">
        <ele>65.2</ele>
        <time>2012-12-09T10:38:16Z</time>
      </trkpt>
      <trkpt lat="43.16922" lon="6.62797">
        <ele>63.8</ele>
        <time>2012-12-09T10:38:08Z</time>
      </trkpt>
      <trkpt lat="43.16919" lon="6.62792">
        <ele>63.1</ele>
        <time>2012-12-09T10:38:04Z</time>
      </trkpt>
      <trkpt lat="43.16916" lon="6.62786">
        <ele>62.7</ele>
        <time>2012-12-09T10:38:00Z</time>
      </trkpt>
      <trkpt lat="43.16914" lon="6.6278">
        <ele>62.4</ele>
        <time>2012-12-09T10:37:55Z</time>
      </trkpt>
      <trkpt lat="43.1691" lon="6.62775">
        <ele>62.5</ele>
        <time>2012-12-09T10:37:44Z</time>
      </trkpt>
      <trkpt lat="43.16906" lon="6.62772">
        <ele>60.8</ele>
        <time>2012-12-09T10:37:34Z</time>
      </trkpt>
      <trkpt lat="43.16903" lon="6.62767">
        <ele>60.6</ele>
        <time>2012-12-09T10:37:27Z</time>
      </trkpt>
      <trkpt lat="43.16899" lon="6.62763">
        <ele>59.7</ele>
        <time>2012-12-09T10:37:22Z</time>
      </trkpt>
      <trkpt lat="43.16894" lon="6.6276">
        <ele>59.8</ele>
        <time>2012-12-09T10:37:17Z</time>
      </trkpt>
      <trkpt lat="43.16891" lon="6.62756">
        <ele>59.9</ele>
        <time>2012-12-09T10:37:11Z</time>
      </trkpt>
      <trkpt lat="43.16887" lon="6.62752">
        <ele>60.4</ele>
        <time>2012-12-09T10:36:48Z</time>
      </trkpt>
      <trkpt lat="43.16883" lon="6.62749">
        <ele>59.3</ele>
        <time>2012-12-09T10:36:44Z</time>
      </trkpt>
      <trkpt lat="43.16877" lon="6.62747">
        <ele>60.5</ele>
        <time>2012-12-09T10:36:40Z</time>
      </trkpt>
      <trkpt lat="43.16873" lon="6.62744">
        <ele>62.2</ele>
        <time>2012-12-09T10:36:36Z</time>
      </trkpt>
      <trkpt lat="43.1687" lon="6.62738">
        <ele>62.9</ele>
        <time>2012-12-09T10:36:31Z</time>
      </trkpt>
      <trkpt lat="43.16867" lon="6.62734">
        <ele>62.2</ele>
        <time>2012-12-09T10:36:27Z</time>
      </trkpt>
      <trkpt lat="43.16864" lon="6.62729">
        <ele>61.1</ele>
        <time>2012-12-09T10:36:20Z</time>
      </trkpt>
      <trkpt lat="43.16859" lon="6.62728">
        <ele>61.1</ele>
        <time>2012-12-09T10:36:15Z</time>
      </trkpt>
      <trkpt lat="43.16854" lon="6.62728">
        <ele>61.7</ele>
        <time>2012-12-09T10:36:11Z</time>
      </trkpt>
      <trkpt lat="43.16849" lon="6.62725">
        <ele>62.6</ele>
        <time>2012-12-09T10:36:06Z</time>
      </trkpt>
      <trkpt lat="43.16845" lon="6.62722">
        <ele>64.1</ele>
        <time>2012-12-09T10:36:01Z</time>
      </trkpt>
      <trkpt lat="43.16841" lon="6.62718">
        <ele>64.3</ele>
        <time>2012-12-09T10:35:57Z</time>
      </trkpt>
      <trkpt lat="43.16837" lon="6.62714">
        <ele>65</ele>
        <time>2012-12-09T10:35:53Z</time>
      </trkpt>
      <trkpt lat="43.16832" lon="6.62712">
        <ele>64.5</ele>
        <time>2012-12-09T10:35:49Z</time>
      </trkpt>
      <trkpt lat="43.16828" lon="6.62709">
        <ele>66.8</ele>
        <time>2012-12-09T10:35:45Z</time>
      </trkpt>
      <trkpt lat="43.16822" lon="6.6271">
        <ele>73.3</ele>
        <time>2012-12-09T10:34:43Z</time>
      </trkpt>
      <trkpt lat="43.16818" lon="6.62704">
        <ele>73</ele>
        <time>2012-12-09T10:34:39Z</time>
      </trkpt>
      <trkpt lat="43.16815" lon="6.62699">
        <ele>71.7</ele>
        <time>2012-12-09T10:34:36Z</time>
      </trkpt>
      <trkpt lat="43.16814" lon="6.62692">
        <ele>68.9</ele>
        <time>2012-12-09T10:34:31Z</time>
      </trkpt>
      <trkpt lat="43.16813" lon="6.62686">
        <ele>70.9</ele>
        <time>2012-12-09T10:34:24Z</time>
      </trkpt>
      <trkpt lat="43.1681" lon="6.6268">
        <ele>72</ele>
        <time>2012-12-09T10:34:19Z</time>
      </trkpt>
      <trkpt lat="43.16806" lon="6.62678">
        <ele>74.3</ele>
        <time>2012-12-09T10:34:15Z</time>
      </trkpt>
      <trkpt lat="43.16801" lon="6.62673">
        <ele>74.9</ele>
        <time>2012-12-09T10:34:11Z</time>
      </trkpt>
      <trkpt lat="43.16797" lon="6.62668">
        <ele>73.2</ele>
        <time>2012-12-09T10:34:07Z</time>
      </trkpt>
      <trkpt lat="43.16792" lon="6.62665">
        <ele>75.5</ele>
        <time>2012-12-09T10:34:03Z</time>
      </trkpt>
      <trkpt lat="43.16788" lon="6.6266">
        <ele>77</ele>
        <time>2012-12-09T10:33:59Z</time>
      </trkpt>
      <trkpt lat="43.16784" lon="6.62655">
        <ele>81.4</ele>
        <time>2012-12-09T10:33:55Z</time>
      </trkpt>
      <trkpt lat="43.16782" lon="6.62649">
        <ele>83.6</ele>
        <time>2012-12-09T10:33:50Z</time>
      </trkpt>
      <trkpt lat="43.16779" lon="6.62644">
        <ele>84.2</ele>
        <time>2012-12-09T10:33:46Z</time>
      </trkpt>
      <trkpt lat="43.16775" lon="6.62639">
        <ele>84.5</ele>
        <time>2012-12-09T10:33:41Z</time>
      </trkpt>
      <trkpt lat="43.16772" lon="6.62634">
        <ele>85.4</ele>
        <time>2012-12-09T10:33:36Z</time>
      </trkpt>
      <trkpt lat="43.16768" lon="6.62631">
        <ele>86</ele>
        <time>2012-12-09T10:33:32Z</time>
      </trkpt>
      <trkpt lat="43.16763" lon="6.62629">
        <ele>85.1</ele>
        <time>2012-12-09T10:33:28Z</time>
      </trkpt>
      <trkpt lat="43.16758" lon="6.6263">
        <ele>85.2</ele>
        <time>2012-12-09T10:33:23Z</time>
      </trkpt>
      <trkpt lat="43.16754" lon="6.62632">
        <ele>84.1</ele>
        <time>2012-12-09T10:33:14Z</time>
      </trkpt>
      <trkpt lat="43.16749" lon="6.6263">
        <ele>83.8</ele>
        <time>2012-12-09T10:33:09Z</time>
      </trkpt>
      <trkpt lat="43.16744" lon="6.62631">
        <ele>83.6</ele>
        <time>2012-12-09T10:33:04Z</time>
      </trkpt>
      <trkpt lat="43.16739" lon="6.62631">
        <ele>82.3</ele>
        <time>2012-12-09T10:33:00Z</time>
      </trkpt>
      <trkpt lat="43.16734" lon="6.62632">
        <ele>81.8</ele>
        <time>2012-12-09T10:32:56Z</time>
      </trkpt>
      <trkpt lat="43.16729" lon="6.62632">
        <ele>81.5</ele>
        <time>2012-12-09T10:32:52Z</time>
      </trkpt>
      <trkpt lat="43.16724" lon="6.62634">
        <ele>82.5</ele>
        <time>2012-12-09T10:32:47Z</time>
      </trkpt>
      <trkpt lat="43.1672" lon="6.62634">
        <ele>82.1</ele>
        <time>2012-12-09T10:32:40Z</time>
      </trkpt>
      <trkpt lat="43.16716" lon="6.6263">
        <ele>82.1</ele>
        <time>2012-12-09T10:32:35Z</time>
      </trkpt>
      <trkpt lat="43.16711" lon="6.62631">
        <ele>82</ele>
        <time>2012-12-09T10:32:30Z</time>
      </trkpt>
      <trkpt lat="43.16707" lon="6.62628">
        <ele>81.1</ele>
        <time>2012-12-09T10:32:25Z</time>
      </trkpt>
      <trkpt lat="43.16704" lon="6.62623">
        <ele>79.3</ele>
        <time>2012-12-09T10:32:20Z</time>
      </trkpt>
      <trkpt lat="43.16706" lon="6.62617">
        <ele>81.5</ele>
        <time>2012-12-09T10:32:14Z</time>
      </trkpt>
      <trkpt lat="43.16709" lon="6.62613">
        <ele>83</ele>
        <time>2012-12-09T10:31:39Z</time>
      </trkpt>
      <trkpt lat="43.16706" lon="6.62608">
        <ele>82.8</ele>
        <time>2012-12-09T10:31:34Z</time>
      </trkpt>
      <trkpt lat="43.16702" lon="6.62604">
        <ele>80.4</ele>
        <time>2012-12-09T10:31:29Z</time>
      </trkpt>
      <trkpt lat="43.16698" lon="6.62601">
        <ele>79.6</ele>
        <time>2012-12-09T10:31:24Z</time>
      </trkpt>
      <trkpt lat="43.16694" lon="6.62597">
        <ele>79.7</ele>
        <time>2012-12-09T10:31:14Z</time>
      </trkpt>
      <trkpt lat="43.16689" lon="6.62594">
        <ele>77.5</ele>
        <time>2012-12-09T10:31:10Z</time>
      </trkpt>
      <trkpt lat="43.16684" lon="6.62589">
        <ele>77.2</ele>
        <time>2012-12-09T10:31:05Z</time>
      </trkpt>
      <trkpt lat="43.1668" lon="6.62586">
        <ele>76.6</ele>
        <time>2012-12-09T10:31:00Z</time>
      </trkpt>
      <trkpt lat="43.16676" lon="6.62581">
        <ele>76.3</ele>
        <time>2012-12-09T10:30:55Z</time>
      </trkpt>
      <trkpt lat="43.16672" lon="6.62577">
        <ele>75.8</ele>
        <time>2012-12-09T10:30:51Z</time>
      </trkpt>
      <trkpt lat="43.16668" lon="6.62572">
        <ele>75.2</ele>
        <time>2012-12-09T10:30:46Z</time>
      </trkpt>
      <trkpt lat="43.16665" lon="6.62567">
        <ele>74.6</ele>
        <time>2012-12-09T10:30:42Z</time>
      </trkpt>
      <trkpt lat="43.16663" lon="6.62561">
        <ele>74.6</ele>
        <time>2012-12-09T10:30:37Z</time>
      </trkpt>
      <trkpt lat="43.1666" lon="6.62556">
        <ele>73</ele>
        <time>2012-12-09T10:30:30Z</time>
      </trkpt>
      <trkpt lat="43.16655" lon="6.62552">
        <ele>72.1</ele>
        <time>2012-12-09T10:30:25Z</time>
      </trkpt>
      <trkpt lat="43.1665" lon="6.62549">
        <ele>71.8</ele>
        <time>2012-12-09T10:30:20Z</time>
      </trkpt>
      <trkpt lat="43.16646" lon="6.62547">
        <ele>72.4</ele>
        <time>2012-12-09T10:30:16Z</time>
      </trkpt>
      <trkpt lat="43.16642" lon="6.62544">
        <ele>72.7</ele>
        <time>2012-12-09T10:30:12Z</time>
      </trkpt>
      <trkpt lat="43.1664" lon="6.62537">
        <ele>74.6</ele>
        <time>2012-12-09T10:30:08Z</time>
      </trkpt>
      <trkpt lat="43.1664" lon="6.6253">
        <ele>74.5</ele>
        <time>2012-12-09T10:30:03Z</time>
      </trkpt>
      <trkpt lat="43.16641" lon="6.62523">
        <ele>71.6</ele>
        <time>2012-12-09T10:29:58Z</time>
      </trkpt>
      <trkpt lat="43.16642" lon="6.62517">
        <ele>70.5</ele>
        <time>2012-12-09T10:29:54Z</time>
      </trkpt>
      <trkpt lat="43.16643" lon="6.6251">
        <ele>68.9</ele>
        <time>2012-12-09T10:29:50Z</time>
      </trkpt>
      <trkpt lat="43.16642" lon="6.62504">
        <ele>68.7</ele>
        <time>2012-12-09T10:29:46Z</time>
      </trkpt>
      <trkpt lat="43.16642" lon="6.62498">
        <ele>69.4</ele>
        <time>2012-12-09T10:29:42Z</time>
      </trkpt>
      <trkpt lat="43.16641" lon="6.6249">
        <ele>69.8</ele>
        <time>2012-12-09T10:29:38Z</time>
      </trkpt>
      <trkpt lat="43.16641" lon="6.62483">
        <ele>67.6</ele>
        <time>2012-12-09T10:29:34Z</time>
      </trkpt>
      <trkpt lat="43.1664" lon="6.62477">
        <ele>67.9</ele>
        <time>2012-12-09T10:29:30Z</time>
      </trkpt>
      <trkpt lat="43.16637" lon="6.6247">
        <ele>68.2</ele>
        <time>2012-12-09T10:29:25Z</time>
      </trkpt>
      <trkpt lat="43.16634" lon="6.62464">
        <ele>68.3</ele>
        <time>2012-12-09T10:29:21Z</time>
      </trkpt>
      <trkpt lat="43.16631" lon="6.6246">
        <ele>68.5</ele>
        <time>2012-12-09T10:29:17Z</time>
      </trkpt>
      <trkpt lat="43.1663" lon="6.62453">
        <ele>67.9</ele>
        <time>2012-12-09T10:29:12Z</time>
      </trkpt>
      <trkpt lat="43.16627" lon="6.62448">
        <ele>65.4</ele>
        <time>2012-12-09T10:29:03Z</time>
      </trkpt>
      <trkpt lat="43.16624" lon="6.62444">
        <ele>63.7</ele>
        <time>2012-12-09T10:28:54Z</time>
      </trkpt>
      <trkpt lat="43.1662" lon="6.62442">
        <ele>61.6</ele>
        <time>2012-12-09T10:28:47Z</time>
      </trkpt>
      <trkpt lat="43.16617" lon="6.62436">
        <ele>61.2</ele>
        <time>2012-12-09T10:28:41Z</time>
      </trkpt>
      <trkpt lat="43.16613" lon="6.62432">
        <ele>60.6</ele>
        <time>2012-12-09T10:28:35Z</time>
      </trkpt>
      <trkpt lat="43.16612" lon="6.62426">
        <ele>59.1</ele>
        <time>2012-12-09T10:28:28Z</time>
      </trkpt>
      <trkpt lat="43.16611" lon="6.62419">
        <ele>59</ele>
        <time>2012-12-09T10:28:24Z</time>
      </trkpt>
      <trkpt lat="43.16609" lon="6.62412">
        <ele>58.6</ele>
        <time>2012-12-09T10:28:16Z</time>
      </trkpt>
      <trkpt lat="43.16604" lon="6.6241">
        <ele>57.2</ele>
        <time>2012-12-09T10:28:10Z</time>
      </trkpt>
      <trkpt lat="43.16604" lon="6.62403">
        <ele>57.1</ele>
        <time>2012-12-09T10:28:02Z</time>
      </trkpt>
      <trkpt lat="43.16606" lon="6.62398">
        <ele>52.7</ele>
        <time>2012-12-09T10:27:54Z</time>
      </trkpt>
      <trkpt lat="43.16602" lon="6.62394">
        <ele>51.5</ele>
        <time>2012-12-09T10:27:47Z</time>
      </trkpt>
      <trkpt lat="43.16602" lon="6.62387">
        <ele>50.5</ele>
        <time>2012-12-09T10:27:42Z</time>
      </trkpt>
      <trkpt lat="43.16603" lon="6.62379">
        <ele>50.5</ele>
        <time>2012-12-09T10:27:38Z</time>
      </trkpt>
      <trkpt lat="43.16601" lon="6.62372">
        <ele>52.6</ele>
        <time>2012-12-09T10:27:34Z</time>
      </trkpt>
      <trkpt lat="43.16597" lon="6.62369">
        <ele>53.6</ele>
        <time>2012-12-09T10:27:30Z</time>
      </trkpt>
      <trkpt lat="43.16592" lon="6.62365">
        <ele>54.1</ele>
        <time>2012-12-09T10:27:26Z</time>
      </trkpt>
      <trkpt lat="43.16589" lon="6.62361">
        <ele>54.4</ele>
        <time>2012-12-09T10:27:23Z</time>
      </trkpt>
      <trkpt lat="43.16585" lon="6.62356">
        <ele>54.1</ele>
        <time>2012-12-09T10:27:20Z</time>
      </trkpt>
      <trkpt lat="43.16581" lon="6.62352">
        <ele>54.8</ele>
        <time>2012-12-09T10:27:17Z</time>
      </trkpt>
      <trkpt lat="43.16578" lon="6.62348">
        <ele>55</ele>
        <time>2012-12-09T10:27:14Z</time>
      </trkpt>
      <trkpt lat="43.16574" lon="6.62344">
        <ele>56</ele>
        <time>2012-12-09T10:27:11Z</time>
      </trkpt>
      <trkpt lat="43.16571" lon="6.6234">
        <ele>55</ele>
        <time>2012-12-09T10:27:08Z</time>
      </trkpt>
      <trkpt lat="43.16568" lon="6.62335">
        <ele>56.2</ele>
        <time>2012-12-09T10:27:05Z</time>
      </trkpt>
      <trkpt lat="43.16564" lon="6.62329">
        <ele>55.1</ele>
        <time>2012-12-09T10:27:01Z</time>
      </trkpt>
      <trkpt lat="43.1656" lon="6.62324">
        <ele>55.8</ele>
        <time>2012-12-09T10:26:57Z</time>
      </trkpt>
      <trkpt lat="43.16559" lon="6.62317">
        <ele>56.1</ele>
        <time>2012-12-09T10:26:52Z</time>
      </trkpt>
      <trkpt lat="43.16559" lon="6.6231">
        <ele>58.1</ele>
        <time>2012-12-09T10:26:48Z</time>
      </trkpt>
      <trkpt lat="43.16556" lon="6.62306">
        <ele>58.2</ele>
        <time>2012-12-09T10:26:44Z</time>
      </trkpt>
      <trkpt lat="43.16551" lon="6.62303">
        <ele>55.8</ele>
        <time>2012-12-09T10:26:39Z</time>
      </trkpt>
      <trkpt lat="43.16547" lon="6.62299">
        <ele>55</ele>
        <time>2012-12-09T10:26:35Z</time>
      </trkpt>
      <trkpt lat="43.16543" lon="6.62295">
        <ele>55.5</ele>
        <time>2012-12-09T10:26:32Z</time>
      </trkpt>
      <trkpt lat="43.1654" lon="6.62291">
        <ele>55.1</ele>
        <time>2012-12-09T10:26:29Z</time>
      </trkpt>
      <trkpt lat="43.16534" lon="6.62289">
        <ele>55.7</ele>
        <time>2012-12-09T10:26:25Z</time>
      </trkpt>
      <trkpt lat="43.16529" lon="6.62285">
        <ele>58.4</ele>
        <time>2012-12-09T10:26:21Z</time>
      </trkpt>
      <trkpt lat="43.16527" lon="6.62278">
        <ele>60.1</ele>
        <time>2012-12-09T10:26:16Z</time>
      </trkpt>
      <trkpt lat="43.16522" lon="6.62276">
        <ele>59.9</ele>
        <time>2012-12-09T10:26:06Z</time>
      </trkpt>
      <trkpt lat="43.16518" lon="6.62274">
        <ele>59.2</ele>
        <time>2012-12-09T10:26:02Z</time>
      </trkpt>
      <trkpt lat="43.16516" lon="6.62269">
        <ele>58.6</ele>
        <time>2012-12-09T10:25:57Z</time>
      </trkpt>
      <trkpt lat="43.16513" lon="6.62263">
        <ele>58.3</ele>
        <time>2012-12-09T10:25:52Z</time>
      </trkpt>
      <trkpt lat="43.16509" lon="6.6226">
        <ele>56.5</ele>
        <time>2012-12-09T10:25:48Z</time>
      </trkpt>
      <trkpt lat="43.16505" lon="6.62256">
        <ele>56.4</ele>
        <time>2012-12-09T10:25:43Z</time>
      </trkpt>
      <trkpt lat="43.16503" lon="6.62249">
        <ele>53.2</ele>
        <time>2012-12-09T10:25:38Z</time>
      </trkpt>
      <trkpt lat="43.165" lon="6.62243">
        <ele>53.5</ele>
        <time>2012-12-09T10:25:34Z</time>
      </trkpt>
      <trkpt lat="43.16496" lon="6.62241">
        <ele>55.1</ele>
        <time>2012-12-09T10:25:31Z</time>
      </trkpt>
      <trkpt lat="43.16491" lon="6.62238">
        <ele>55.8</ele>
        <time>2012-12-09T10:25:27Z</time>
      </trkpt>
      <trkpt lat="43.16487" lon="6.62235">
        <ele>55</ele>
        <time>2012-12-09T10:25:23Z</time>
      </trkpt>
      <trkpt lat="43.16484" lon="6.6223">
        <ele>55.8</ele>
        <time>2012-12-09T10:25:18Z</time>
      </trkpt>
      <trkpt lat="43.16481" lon="6.62226">
        <ele>54.3</ele>
        <time>2012-12-09T10:25:13Z</time>
      </trkpt>
      <trkpt lat="43.16477" lon="6.62223">
        <ele>55</ele>
        <time>2012-12-09T10:25:10Z</time>
      </trkpt>
      <trkpt lat="43.16472" lon="6.62219">
        <ele>54.1</ele>
        <time>2012-12-09T10:25:06Z</time>
      </trkpt>
      <trkpt lat="43.16469" lon="6.62215">
        <ele>54.3</ele>
        <time>2012-12-09T10:25:02Z</time>
      </trkpt>
      <trkpt lat="43.16464" lon="6.62211">
        <ele>53.8</ele>
        <time>2012-12-09T10:24:57Z</time>
      </trkpt>
      <trkpt lat="43.16459" lon="6.62208">
        <ele>53.9</ele>
        <time>2012-12-09T10:24:53Z</time>
      </trkpt>
      <trkpt lat="43.16455" lon="6.62204">
        <ele>53.5</ele>
        <time>2012-12-09T10:24:49Z</time>
      </trkpt>
      <trkpt lat="43.1645" lon="6.62201">
        <ele>53.8</ele>
        <time>2012-12-09T10:24:45Z</time>
      </trkpt>
      <trkpt lat="43.16445" lon="6.622">
        <ele>54.5</ele>
        <time>2012-12-09T10:24:42Z</time>
      </trkpt>
      <trkpt lat="43.16441" lon="6.62198">
        <ele>56.4</ele>
        <time>2012-12-09T10:24:38Z</time>
      </trkpt>
      <trkpt lat="43.16437" lon="6.62195">
        <ele>56.7</ele>
        <time>2012-12-09T10:24:34Z</time>
      </trkpt>
      <trkpt lat="43.16432" lon="6.62192">
        <ele>57.5</ele>
        <time>2012-12-09T10:24:30Z</time>
      </trkpt>
      <trkpt lat="43.16429" lon="6.62186">
        <ele>55.4</ele>
        <time>2012-12-09T10:24:25Z</time>
      </trkpt>
      <trkpt lat="43.16426" lon="6.62182">
        <ele>54</ele>
        <time>2012-12-09T10:24:18Z</time>
      </trkpt>
      <trkpt lat="43.16421" lon="6.62183">
        <ele>53.9</ele>
        <time>2012-12-09T10:24:14Z</time>
      </trkpt>
      <trkpt lat="43.16416" lon="6.62184">
        <ele>55.7</ele>
        <time>2012-12-09T10:24:10Z</time>
      </trkpt>
      <trkpt lat="43.16411" lon="6.62185">
        <ele>54.7</ele>
        <time>2012-12-09T10:24:04Z</time>
      </trkpt>
      <trkpt lat="43.16406" lon="6.62181">
        <ele>55.5</ele>
        <time>2012-12-09T10:24:00Z</time>
      </trkpt>
      <trkpt lat="43.16401" lon="6.62181">
        <ele>55.7</ele>
        <time>2012-12-09T10:23:56Z</time>
      </trkpt>
      <trkpt lat="43.16396" lon="6.62181">
        <ele>56.2</ele>
        <time>2012-12-09T10:23:52Z</time>
      </trkpt>
      <trkpt lat="43.16391" lon="6.6218">
        <ele>55.7</ele>
        <time>2012-12-09T10:23:46Z</time>
      </trkpt>
      <trkpt lat="43.16388" lon="6.62185">
        <ele>57.5</ele>
        <time>2012-12-09T10:21:29Z</time>
      </trkpt>
      <trkpt lat="43.16383" lon="6.62184">
        <ele>58.3</ele>
        <time>2012-12-09T10:21:17Z</time>
      </trkpt>
      <trkpt lat="43.16379" lon="6.6218">
        <ele>59.2</ele>
        <time>2012-12-09T10:21:11Z</time>
      </trkpt>
      <trkpt lat="43.16377" lon="6.62175">
        <ele>61.6</ele>
        <time>2012-12-09T10:21:04Z</time>
      </trkpt>
      <trkpt lat="43.16374" lon="6.62171">
        <ele>62.8</ele>
        <time>2012-12-09T10:21:00Z</time>
      </trkpt>
      <trkpt lat="43.16372" lon="6.62164">
        <ele>65.9</ele>
        <time>2012-12-09T10:20:54Z</time>
      </trkpt>
      <trkpt lat="43.16368" lon="6.62158">
        <ele>64.1</ele>
        <time>2012-12-09T10:20:50Z</time>
      </trkpt>
      <trkpt lat="43.16364" lon="6.62154">
        <ele>63.7</ele>
        <time>2012-12-09T10:20:46Z</time>
      </trkpt>
      <trkpt lat="43.1636" lon="6.6215">
        <ele>62.4</ele>
        <time>2012-12-09T10:20:42Z</time>
      </trkpt>
      <trkpt lat="43.16356" lon="6.62148">
        <ele>61.1</ele>
        <time>2012-12-09T10:20:38Z</time>
      </trkpt>
      <trkpt lat="43.16351" lon="6.62148">
        <ele>60.5</ele>
        <time>2012-12-09T10:20:33Z</time>
      </trkpt>
      <trkpt lat="43.16346" lon="6.62148">
        <ele>60.6</ele>
        <time>2012-12-09T10:20:29Z</time>
      </trkpt>
      <trkpt lat="43.16342" lon="6.62152">
        <ele>59.5</ele>
        <time>2012-12-09T10:20:24Z</time>
      </trkpt>
      <trkpt lat="43.16337" lon="6.62153">
        <ele>58.6</ele>
        <time>2012-12-09T10:20:19Z</time>
      </trkpt>
      <trkpt lat="43.16333" lon="6.62149">
        <ele>61.2</ele>
        <time>2012-12-09T10:20:14Z</time>
      </trkpt>
      <trkpt lat="43.16327" lon="6.62147">
        <ele>60.6</ele>
        <time>2012-12-09T10:20:09Z</time>
      </trkpt>
      <trkpt lat="43.16323" lon="6.62144">
        <ele>58.5</ele>
        <time>2012-12-09T10:20:01Z</time>
      </trkpt>
      <trkpt lat="43.16319" lon="6.62141">
        <ele>58.1</ele>
        <time>2012-12-09T10:19:56Z</time>
      </trkpt>
      <trkpt lat="43.16314" lon="6.6214">
        <ele>59.7</ele>
        <time>2012-12-09T10:19:53Z</time>
      </trkpt>
      <trkpt lat="43.16309" lon="6.62139">
        <ele>61.6</ele>
        <time>2012-12-09T10:19:49Z</time>
      </trkpt>
      <trkpt lat="43.16304" lon="6.62138">
        <ele>61.1</ele>
        <time>2012-12-09T10:19:45Z</time>
      </trkpt>
      <trkpt lat="43.16299" lon="6.62139">
        <ele>60.9</ele>
        <time>2012-12-09T10:19:41Z</time>
      </trkpt>
      <trkpt lat="43.16294" lon="6.62139">
        <ele>63.5</ele>
        <time>2012-12-09T10:19:37Z</time>
      </trkpt>
      <trkpt lat="43.16291" lon="6.62133">
        <ele>62.8</ele>
        <time>2012-12-09T10:19:31Z</time>
      </trkpt>
      <trkpt lat="43.16286" lon="6.62133">
        <ele>64.9</ele>
        <time>2012-12-09T10:19:26Z</time>
      </trkpt>
      <trkpt lat="43.16282" lon="6.62131">
        <ele>65.1</ele>
        <time>2012-12-09T10:19:18Z</time>
      </trkpt>
      <trkpt lat="43.16277" lon="6.62133">
        <ele>63</ele>
        <time>2012-12-09T10:19:12Z</time>
      </trkpt>
      <trkpt lat="43.16273" lon="6.6213">
        <ele>61.6</ele>
        <time>2012-12-09T10:19:09Z</time>
      </trkpt>
      <trkpt lat="43.16268" lon="6.62131">
        <ele>60.6</ele>
        <time>2012-12-09T10:18:45Z</time>
      </trkpt>
      <trkpt lat="43.16263" lon="6.62132">
        <ele>61.3</ele>
        <time>2012-12-09T10:18:41Z</time>
      </trkpt>
      <trkpt lat="43.16258" lon="6.62133">
        <ele>61.1</ele>
        <time>2012-12-09T10:18:37Z</time>
      </trkpt>
      <trkpt lat="43.16254" lon="6.62135">
        <ele>60.6</ele>
        <time>2012-12-09T10:18:33Z</time>
      </trkpt>
      <trkpt lat="43.16248" lon="6.62133">
        <ele>60.9</ele>
        <time>2012-12-09T10:18:28Z</time>
      </trkpt>
      <trkpt lat="43.16244" lon="6.62133">
        <ele>60.4</ele>
        <time>2012-12-09T10:18:23Z</time>
      </trkpt>
      <trkpt lat="43.16239" lon="6.62135">
        <ele>60.1</ele>
        <time>2012-12-09T10:18:20Z</time>
      </trkpt>
      <trkpt lat="43.16235" lon="6.62138">
        <ele>61.8</ele>
        <time>2012-12-09T10:18:16Z</time>
      </trkpt>
      <trkpt lat="43.16232" lon="6.62143">
        <ele>64.2</ele>
        <time>2012-12-09T10:18:12Z</time>
      </trkpt>
      <trkpt lat="43.16228" lon="6.62148">
        <ele>64.3</ele>
        <time>2012-12-09T10:18:08Z</time>
      </trkpt>
      <trkpt lat="43.16225" lon="6.62153">
        <ele>63.3</ele>
        <time>2012-12-09T10:18:02Z</time>
      </trkpt>
      <trkpt lat="43.16223" lon="6.62159">
        <ele>62.9</ele>
        <time>2012-12-09T10:17:58Z</time>
      </trkpt>
      <trkpt lat="43.16219" lon="6.62164">
        <ele>63.7</ele>
        <time>2012-12-09T10:17:23Z</time>
      </trkpt>
      <trkpt lat="43.16215" lon="6.62166">
        <ele>64.1</ele>
        <time>2012-12-09T10:17:19Z</time>
      </trkpt>
      <trkpt lat="43.16211" lon="6.62163">
        <ele>62.1</ele>
        <time>2012-12-09T10:17:15Z</time>
      </trkpt>
      <trkpt lat="43.16206" lon="6.62161">
        <ele>62.3</ele>
        <time>2012-12-09T10:17:12Z</time>
      </trkpt>
      <trkpt lat="43.16201" lon="6.6216">
        <ele>63.2</ele>
        <time>2012-12-09T10:17:09Z</time>
      </trkpt>
      <trkpt lat="43.16196" lon="6.62156">
        <ele>62.5</ele>
        <time>2012-12-09T10:17:04Z</time>
      </trkpt>
      <trkpt lat="43.16195" lon="6.62162">
        <ele>63.2</ele>
        <time>2012-12-09T10:16:58Z</time>
      </trkpt>
      <trkpt lat="43.16193" lon="6.62168">
        <ele>66.6</ele>
        <time>2012-12-09T10:16:54Z</time>
      </trkpt>
      <trkpt lat="43.16188" lon="6.62174">
        <ele>67</ele>
        <time>2012-12-09T10:16:49Z</time>
      </trkpt>
      <trkpt lat="43.16185" lon="6.62178">
        <ele>69.3</ele>
        <time>2012-12-09T10:16:45Z</time>
      </trkpt>
      <trkpt lat="43.16182" lon="6.62182">
        <ele>69.7</ele>
        <time>2012-12-09T10:16:41Z</time>
      </trkpt>
      <trkpt lat="43.16179" lon="6.62188">
        <ele>73.5</ele>
        <time>2012-12-09T10:16:36Z</time>
      </trkpt>
      <trkpt lat="43.16176" lon="6.62193">
        <ele>73</ele>
        <time>2012-12-09T10:16:32Z</time>
      </trkpt>
      <trkpt lat="43.16172" lon="6.62197">
        <ele>72.4</ele>
        <time>2012-12-09T10:16:29Z</time>
      </trkpt>
      <trkpt lat="43.16167" lon="6.62201">
        <ele>73.6</ele>
        <time>2012-12-09T10:16:25Z</time>
      </trkpt>
      <trkpt lat="43.16162" lon="6.62198">
        <ele>74.6</ele>
        <time>2012-12-09T10:16:20Z</time>
      </trkpt>
      <trkpt lat="43.16157" lon="6.62195">
        <ele>75</ele>
        <time>2012-12-09T10:16:16Z</time>
      </trkpt>
      <trkpt lat="43.16152" lon="6.62192">
        <ele>73.7</ele>
        <time>2012-12-09T10:16:13Z</time>
      </trkpt>
      <trkpt lat="43.16147" lon="6.62195">
        <ele>74.1</ele>
        <time>2012-12-09T10:16:08Z</time>
      </trkpt>
      <trkpt lat="43.16145" lon="6.62201">
        <ele>75</ele>
        <time>2012-12-09T10:16:04Z</time>
      </trkpt>
      <trkpt lat="43.16141" lon="6.62206">
        <ele>77</ele>
        <time>2012-12-09T10:16:00Z</time>
      </trkpt>
      <trkpt lat="43.16137" lon="6.62212">
        <ele>78.1</ele>
        <time>2012-12-09T10:15:56Z</time>
      </trkpt>
      <trkpt lat="43.16132" lon="6.62211">
        <ele>78.1</ele>
        <time>2012-12-09T10:15:52Z</time>
      </trkpt>
      <trkpt lat="43.16127" lon="6.62212">
        <ele>78.7</ele>
        <time>2012-12-09T10:15:48Z</time>
      </trkpt>
      <trkpt lat="43.16122" lon="6.62209">
        <ele>78.6</ele>
        <time>2012-12-09T10:15:44Z</time>
      </trkpt>
      <trkpt lat="43.16117" lon="6.62208">
        <ele>78.3</ele>
        <time>2012-12-09T10:15:40Z</time>
      </trkpt>
      <trkpt lat="43.16112" lon="6.62205">
        <ele>79.3</ele>
        <time>2012-12-09T10:15:35Z</time>
      </trkpt>
      <trkpt lat="43.16108" lon="6.62202">
        <ele>78.4</ele>
        <time>2012-12-09T10:15:30Z</time>
      </trkpt>
      <trkpt lat="43.16104" lon="6.62199">
        <ele>78.5</ele>
        <time>2012-12-09T10:15:26Z</time>
      </trkpt>
      <trkpt lat="43.161" lon="6.62197">
        <ele>80.4</ele>
        <time>2012-12-09T10:15:21Z</time>
      </trkpt>
      <trkpt lat="43.16096" lon="6.62192">
        <ele>80.4</ele>
        <time>2012-12-09T10:15:17Z</time>
      </trkpt>
      <trkpt lat="43.16093" lon="6.62186">
        <ele>80.8</ele>
        <time>2012-12-09T10:15:13Z</time>
      </trkpt>
      <trkpt lat="43.1609" lon="6.62182">
        <ele>80.6</ele>
        <time>2012-12-09T10:15:08Z</time>
      </trkpt>
      <trkpt lat="43.16085" lon="6.62179">
        <ele>78.6</ele>
        <time>2012-12-09T10:15:03Z</time>
      </trkpt>
      <trkpt lat="43.16081" lon="6.62176">
        <ele>78.9</ele>
        <time>2012-12-09T10:14:58Z</time>
      </trkpt>
      <trkpt lat="43.1608" lon="6.62169">
        <ele>81.7</ele>
        <time>2012-12-09T10:14:52Z</time>
      </trkpt>
      <trkpt lat="43.16078" lon="6.62163">
        <ele>82.6</ele>
        <time>2012-12-09T10:14:47Z</time>
      </trkpt>
      <trkpt lat="43.16075" lon="6.62157">
        <ele>83</ele>
        <time>2012-12-09T10:14:43Z</time>
      </trkpt>
      <trkpt lat="43.16073" lon="6.62152">
        <ele>82.7</ele>
        <time>2012-12-09T10:14:39Z</time>
      </trkpt>
      <trkpt lat="43.1607" lon="6.62146">
        <ele>83.4</ele>
        <time>2012-12-09T10:14:35Z</time>
      </trkpt>
      <trkpt lat="43.1607" lon="6.62139">
        <ele>83.6</ele>
        <time>2012-12-09T10:14:30Z</time>
      </trkpt>
      <trkpt lat="43.16071" lon="6.62133">
        <ele>84.8</ele>
        <time>2012-12-09T10:14:24Z</time>
      </trkpt>
      <trkpt lat="43.16072" lon="6.62126">
        <ele>87.8</ele>
        <time>2012-12-09T10:14:15Z</time>
      </trkpt>
      <trkpt lat="43.16071" lon="6.62119">
        <ele>90.2</ele>
        <time>2012-12-09T10:14:08Z</time>
      </trkpt>
      <trkpt lat="43.16069" lon="6.62113">
        <ele>91.2</ele>
        <time>2012-12-09T10:14:02Z</time>
      </trkpt>
      <trkpt lat="43.16067" lon="6.62107">
        <ele>92.7</ele>
        <time>2012-12-09T10:13:54Z</time>
      </trkpt>
      <trkpt lat="43.16065" lon="6.62102">
        <ele>93.4</ele>
        <time>2012-12-09T10:13:48Z</time>
      </trkpt>
      <trkpt lat="43.16063" lon="6.62096">
        <ele>95.8</ele>
        <time>2012-12-09T10:13:41Z</time>
      </trkpt>
      <trkpt lat="43.1606" lon="6.62092">
        <ele>98.3</ele>
        <time>2012-12-09T10:13:37Z</time>
      </trkpt>
      <trkpt lat="43.16057" lon="6.62087">
        <ele>98.3</ele>
        <time>2012-12-09T10:13:32Z</time>
      </trkpt>
      <trkpt lat="43.16053" lon="6.62083">
        <ele>98.4</ele>
        <time>2012-12-09T10:13:28Z</time>
      </trkpt>
      <trkpt lat="43.1605" lon="6.62077">
        <ele>99.6</ele>
        <time>2012-12-09T10:13:23Z</time>
      </trkpt>
      <trkpt lat="43.16048" lon="6.62071">
        <ele>101.8</ele>
        <time>2012-12-09T10:13:17Z</time>
      </trkpt>
      <trkpt lat="43.16044" lon="6.62067">
        <ele>103.2</ele>
        <time>2012-12-09T10:13:13Z</time>
      </trkpt>
      <trkpt lat="43.16041" lon="6.62062">
        <ele>104</ele>
        <time>2012-12-09T10:13:09Z</time>
      </trkpt>
      <trkpt lat="43.16037" lon="6.62057">
        <ele>101.9</ele>
        <time>2012-12-09T10:13:04Z</time>
      </trkpt>
      <trkpt lat="43.16035" lon="6.62051">
        <ele>105.4</ele>
        <time>2012-12-09T10:12:57Z</time>
      </trkpt>
      <trkpt lat="43.16032" lon="6.62046">
        <ele>106.1</ele>
        <time>2012-12-09T10:12:50Z</time>
      </trkpt>
      <trkpt lat="43.16032" lon="6.62039">
        <ele>109.8</ele>
        <time>2012-12-09T10:12:44Z</time>
      </trkpt>
      <trkpt lat="43.16031" lon="6.62033">
        <ele>115.3</ele>
        <time>2012-12-09T10:12:12Z</time>
      </trkpt>
      <trkpt lat="43.16028" lon="6.62028">
        <ele>116.4</ele>
        <time>2012-12-09T10:12:00Z</time>
      </trkpt>
      <trkpt lat="43.16024" lon="6.62025">
        <ele>115.9</ele>
        <time>2012-12-09T10:11:55Z</time>
      </trkpt>
      <trkpt lat="43.16018" lon="6.62024">
        <ele>115.6</ele>
        <time>2012-12-09T10:11:49Z</time>
      </trkpt>
      <trkpt lat="43.16014" lon="6.62023">
        <ele>114.5</ele>
        <time>2012-12-09T10:11:44Z</time>
      </trkpt>
      <trkpt lat="43.1601" lon="6.62019">
        <ele>113.7</ele>
        <time>2012-12-09T10:11:40Z</time>
      </trkpt>
      <trkpt lat="43.16008" lon="6.62013">
        <ele>113.2</ele>
        <time>2012-12-09T10:11:35Z</time>
      </trkpt>
      <trkpt lat="43.16003" lon="6.62009">
        <ele>111.4</ele>
        <time>2012-12-09T10:11:24Z</time>
      </trkpt>
      <trkpt lat="43.16" lon="6.62005">
        <ele>110.2</ele>
        <time>2012-12-09T10:03:53Z</time>
      </trkpt>
      <trkpt lat="43.16004" lon="6.62002">
        <ele>109.9</ele>
        <time>2012-12-09T09:48:39Z</time>
      </trkpt>
      <trkpt lat="43.16002" lon="6.61996">
        <ele>110</ele>
        <time>2012-12-09T09:44:38Z</time>
      </trkpt>
      <trkpt lat="43.16006" lon="6.61993">
        <ele>110.5</ele>
        <time>2012-12-09T09:44:32Z</time>
      </trkpt>
      <trkpt lat="43.1601" lon="6.61989">
        <ele>114.5</ele>
        <time>2012-12-09T09:44:27Z</time>
      </trkpt>
      <trkpt lat="43.16015" lon="6.61986">
        <ele>115.2</ele>
        <time>2012-12-09T09:44:22Z</time>
      </trkpt>
      <trkpt lat="43.16019" lon="6.6199">
        <ele>115.2</ele>
        <time>2012-12-09T09:44:18Z</time>
      </trkpt>
      <trkpt lat="43.16024" lon="6.61991">
        <ele>115.2</ele>
        <time>2012-12-09T09:44:14Z</time>
      </trkpt>
      <trkpt lat="43.16029" lon="6.6199">
        <ele>114.8</ele>
        <time>2012-12-09T09:44:11Z</time>
      </trkpt>
      <trkpt lat="43.16034" lon="6.61988">
        <ele>114.1</ele>
        <time>2012-12-09T09:44:07Z</time>
      </trkpt>
      <trkpt lat="43.16038" lon="6.61983">
        <ele>114.8</ele>
        <time>2012-12-09T09:44:01Z</time>
      </trkpt>
      <trkpt lat="43.16043" lon="6.61979">
        <ele>116</ele>
        <time>2012-12-09T09:43:56Z</time>
      </trkpt>
      <trkpt lat="43.16045" lon="6.61973">
        <ele>116.2</ele>
        <time>2012-12-09T09:43:51Z</time>
      </trkpt>
      <trkpt lat="43.1605" lon="6.6197">
        <ele>115.9</ele>
        <time>2012-12-09T09:43:47Z</time>
      </trkpt>
      <trkpt lat="43.16055" lon="6.61973">
        <ele>117</ele>
        <time>2012-12-09T09:43:43Z</time>
      </trkpt>
      <trkpt lat="43.16061" lon="6.61975">
        <ele>117.7</ele>
        <time>2012-12-09T09:43:39Z</time>
      </trkpt>
      <trkpt lat="43.16066" lon="6.61976">
        <ele>119.9</ele>
        <time>2012-12-09T09:43:34Z</time>
      </trkpt>
      <trkpt lat="43.16072" lon="6.61976">
        <ele>120.1</ele>
        <time>2012-12-09T09:43:30Z</time>
      </trkpt>
      <trkpt lat="43.16077" lon="6.61975">
        <ele>120.4</ele>
        <time>2012-12-09T09:43:26Z</time>
      </trkpt>
      <trkpt lat="43.16083" lon="6.61974">
        <ele>121</ele>
        <time>2012-12-09T09:43:22Z</time>
      </trkpt>
      <trkpt lat="43.16088" lon="6.61974">
        <ele>121.1</ele>
        <time>2012-12-09T09:43:18Z</time>
      </trkpt>
      <trkpt lat="43.16093" lon="6.61975">
        <ele>121.1</ele>
        <time>2012-12-09T09:43:14Z</time>
      </trkpt>
      <trkpt lat="43.16099" lon="6.61977">
        <ele>121.2</ele>
        <time>2012-12-09T09:43:10Z</time>
      </trkpt>
      <trkpt lat="43.16103" lon="6.61979">
        <ele>121.8</ele>
        <time>2012-12-09T09:43:07Z</time>
      </trkpt>
      <trkpt lat="43.16109" lon="6.61982">
        <ele>122.5</ele>
        <time>2012-12-09T09:43:03Z</time>
      </trkpt>
      <trkpt lat="43.16114" lon="6.61985">
        <ele>123</ele>
        <time>2012-12-09T09:42:59Z</time>
      </trkpt>
      <trkpt lat="43.1612" lon="6.61984">
        <ele>123.9</ele>
        <time>2012-12-09T09:42:55Z</time>
      </trkpt>
      <trkpt lat="43.16123" lon="6.61978">
        <ele>123.8</ele>
        <time>2012-12-09T09:42:51Z</time>
      </trkpt>
      <trkpt lat="43.16122" lon="6.6197">
        <ele>124.4</ele>
        <time>2012-12-09T09:42:47Z</time>
      </trkpt>
      <trkpt lat="43.16122" lon="6.61964">
        <ele>124.3</ele>
        <time>2012-12-09T09:42:43Z</time>
      </trkpt>
      <trkpt lat="43.16123" lon="6.61958">
        <ele>123.9</ele>
        <time>2012-12-09T09:42:39Z</time>
      </trkpt>
      <trkpt lat="43.16126" lon="6.61952">
        <ele>123.5</ele>
        <time>2012-12-09T09:42:34Z</time>
      </trkpt>
      <trkpt lat="43.16131" lon="6.61949">
        <ele>122.9</ele>
        <time>2012-12-09T09:42:30Z</time>
      </trkpt>
      <trkpt lat="43.16135" lon="6.61946">
        <ele>121.7</ele>
        <time>2012-12-09T09:42:26Z</time>
      </trkpt>
      <trkpt lat="43.16139" lon="6.61941">
        <ele>121.7</ele>
        <time>2012-12-09T09:42:22Z</time>
      </trkpt>
      <trkpt lat="43.16144" lon="6.61937">
        <ele>121</ele>
        <time>2012-12-09T09:42:18Z</time>
      </trkpt>
      <trkpt lat="43.1615" lon="6.61936">
        <ele>119.8</ele>
        <time>2012-12-09T09:42:14Z</time>
      </trkpt>
      <trkpt lat="43.16155" lon="6.61935">
        <ele>118.8</ele>
        <time>2012-12-09T09:42:10Z</time>
      </trkpt>
      <trkpt lat="43.1616" lon="6.61937">
        <ele>119.7</ele>
        <time>2012-12-09T09:42:06Z</time>
      </trkpt>
      <trkpt lat="43.16164" lon="6.6194">
        <ele>120.2</ele>
        <time>2012-12-09T09:42:02Z</time>
      </trkpt>
      <trkpt lat="43.16169" lon="6.61942">
        <ele>120.3</ele>
        <time>2012-12-09T09:41:58Z</time>
      </trkpt>
      <trkpt lat="43.16174" lon="6.61944">
        <ele>121.1</ele>
        <time>2012-12-09T09:41:54Z</time>
      </trkpt>
      <trkpt lat="43.16179" lon="6.61945">
        <ele>119.7</ele>
        <time>2012-12-09T09:41:50Z</time>
      </trkpt>
      <trkpt lat="43.16184" lon="6.61947">
        <ele>119.8</ele>
        <time>2012-12-09T09:41:46Z</time>
      </trkpt>
      <trkpt lat="43.16188" lon="6.61948">
        <ele>120.2</ele>
        <time>2012-12-09T09:41:42Z</time>
      </trkpt>
      <trkpt lat="43.16194" lon="6.61949">
        <ele>119.1</ele>
        <time>2012-12-09T09:41:37Z</time>
      </trkpt>
      <trkpt lat="43.16198" lon="6.61948">
        <ele>118.8</ele>
        <time>2012-12-09T09:41:33Z</time>
      </trkpt>
      <trkpt lat="43.16203" lon="6.61946">
        <ele>118.9</ele>
        <time>2012-12-09T09:41:29Z</time>
      </trkpt>
      <trkpt lat="43.16208" lon="6.61944">
        <ele>119.2</ele>
        <time>2012-12-09T09:41:24Z</time>
      </trkpt>
      <trkpt lat="43.16213" lon="6.61944">
        <ele>119.2</ele>
        <time>2012-12-09T09:41:18Z</time>
      </trkpt>
      <trkpt lat="43.16219" lon="6.61943">
        <ele>116.5</ele>
        <time>2012-12-09T09:41:12Z</time>
      </trkpt>
      <trkpt lat="43.16224" lon="6.61942">
        <ele>115.3</ele>
        <time>2012-12-09T09:41:07Z</time>
      </trkpt>
      <trkpt lat="43.16229" lon="6.61942">
        <ele>113.1</ele>
        <time>2012-12-09T09:41:02Z</time>
      </trkpt>
      <trkpt lat="43.16234" lon="6.61944">
        <ele>112</ele>
        <time>2012-12-09T09:40:37Z</time>
      </trkpt>
      <trkpt lat="43.16237" lon="6.6194">
        <ele>112.1</ele>
        <time>2012-12-09T09:39:35Z</time>
      </trkpt>
      <trkpt lat="43.16241" lon="6.61935">
        <ele>112.7</ele>
        <time>2012-12-09T09:39:30Z</time>
      </trkpt>
      <trkpt lat="43.16246" lon="6.61931">
        <ele>110.9</ele>
        <time>2012-12-09T09:39:25Z</time>
      </trkpt>
      <trkpt lat="43.1625" lon="6.61927">
        <ele>112.4</ele>
        <time>2012-12-09T09:39:21Z</time>
      </trkpt>
      <trkpt lat="43.16254" lon="6.61922">
        <ele>112.7</ele>
        <time>2012-12-09T09:39:17Z</time>
      </trkpt>
      <trkpt lat="43.16259" lon="6.61919">
        <ele>114.3</ele>
        <time>2012-12-09T09:39:13Z</time>
      </trkpt>
      <trkpt lat="43.16264" lon="6.61917">
        <ele>116.5</ele>
        <time>2012-12-09T09:39:09Z</time>
      </trkpt>
      <trkpt lat="43.16268" lon="6.61912">
        <ele>120.2</ele>
        <time>2012-12-09T09:39:05Z</time>
      </trkpt>
      <trkpt lat="43.16271" lon="6.61906">
        <ele>121.5</ele>
        <time>2012-12-09T09:39:01Z</time>
      </trkpt>
      <trkpt lat="43.16273" lon="6.619">
        <ele>123.1</ele>
        <time>2012-12-09T09:38:58Z</time>
      </trkpt>
      <trkpt lat="43.16276" lon="6.61896">
        <ele>125.3</ele>
        <time>2012-12-09T09:38:55Z</time>
      </trkpt>
      <trkpt lat="43.16282" lon="6.61894">
        <ele>124.7</ele>
        <time>2012-12-09T09:38:51Z</time>
      </trkpt>
      <trkpt lat="43.16287" lon="6.61895">
        <ele>124</ele>
        <time>2012-12-09T09:38:47Z</time>
      </trkpt>
      <trkpt lat="43.16292" lon="6.61897">
        <ele>123.7</ele>
        <time>2012-12-09T09:38:42Z</time>
      </trkpt>
      <trkpt lat="43.16297" lon="6.61898">
        <ele>123.6</ele>
        <time>2012-12-09T09:38:38Z</time>
      </trkpt>
      <trkpt lat="43.16302" lon="6.619">
        <ele>124</ele>
        <time>2012-12-09T09:38:34Z</time>
      </trkpt>
      <trkpt lat="43.16308" lon="6.61902">
        <ele>125.1</ele>
        <time>2012-12-09T09:38:30Z</time>
      </trkpt>
      <trkpt lat="43.16313" lon="6.61902">
        <ele>125.2</ele>
        <time>2012-12-09T09:38:27Z</time>
      </trkpt>
      <trkpt lat="43.16317" lon="6.61902">
        <ele>125.6</ele>
        <time>2012-12-09T09:38:24Z</time>
      </trkpt>
      <trkpt lat="43.16323" lon="6.61899">
        <ele>129.9</ele>
        <time>2012-12-09T09:38:20Z</time>
      </trkpt>
      <trkpt lat="43.16328" lon="6.61896">
        <ele>126.7</ele>
        <time>2012-12-09T09:38:16Z</time>
      </trkpt>
      <trkpt lat="43.16334" lon="6.61894">
        <ele>126.2</ele>
        <time>2012-12-09T09:38:12Z</time>
      </trkpt>
      <trkpt lat="43.16338" lon="6.61891">
        <ele>126.3</ele>
        <time>2012-12-09T09:38:09Z</time>
      </trkpt>
      <trkpt lat="43.16342" lon="6.61887">
        <ele>125.5</ele>
        <time>2012-12-09T09:38:06Z</time>
      </trkpt>
      <trkpt lat="43.16347" lon="6.61883">
        <ele>127.6</ele>
        <time>2012-12-09T09:38:02Z</time>
      </trkpt>
      <trkpt lat="43.16351" lon="6.61879">
        <ele>128.5</ele>
        <time>2012-12-09T09:37:59Z</time>
      </trkpt>
      <trkpt lat="43.16356" lon="6.61876">
        <ele>127.9</ele>
        <time>2012-12-09T09:37:55Z</time>
      </trkpt>
      <trkpt lat="43.16361" lon="6.61877">
        <ele>129.6</ele>
        <time>2012-12-09T09:37:50Z</time>
      </trkpt>
      <trkpt lat="43.16366" lon="6.61874">
        <ele>131.7</ele>
        <time>2012-12-09T09:37:46Z</time>
      </trkpt>
      <trkpt lat="43.1637" lon="6.61869">
        <ele>131.9</ele>
        <time>2012-12-09T09:37:42Z</time>
      </trkpt>
      <trkpt lat="43.16375" lon="6.61865">
        <ele>131.7</ele>
        <time>2012-12-09T09:37:38Z</time>
      </trkpt>
      <trkpt lat="43.16379" lon="6.61862">
        <ele>130.1</ele>
        <time>2012-12-09T09:37:35Z</time>
      </trkpt>
      <trkpt lat="43.16385" lon="6.61859">
        <ele>133.2</ele>
        <time>2012-12-09T09:37:31Z</time>
      </trkpt>
      <trkpt lat="43.1639" lon="6.61857">
        <ele>131</ele>
        <time>2012-12-09T09:37:27Z</time>
      </trkpt>
      <trkpt lat="43.16395" lon="6.61858">
        <ele>133</ele>
        <time>2012-12-09T09:37:23Z</time>
      </trkpt>
      <trkpt lat="43.164" lon="6.61857">
        <ele>135.7</ele>
        <time>2012-12-09T09:37:19Z</time>
      </trkpt>
      <trkpt lat="43.16406" lon="6.61857">
        <ele>136.6</ele>
        <time>2012-12-09T09:37:15Z</time>
      </trkpt>
      <trkpt lat="43.1641" lon="6.61858">
        <ele>139.5</ele>
        <time>2012-12-09T09:37:13Z</time>
      </trkpt>
      <trkpt lat="43.16415" lon="6.61857">
        <ele>141.4</ele>
        <time>2012-12-09T09:37:10Z</time>
      </trkpt>
      <trkpt lat="43.1642" lon="6.61854">
        <ele>137.3</ele>
        <time>2012-12-09T09:37:07Z</time>
      </trkpt>
      <trkpt lat="43.16425" lon="6.61852">
        <ele>136.1</ele>
        <time>2012-12-09T09:37:04Z</time>
      </trkpt>
      <trkpt lat="43.1643" lon="6.61849">
        <ele>134.5</ele>
        <time>2012-12-09T09:37:01Z</time>
      </trkpt>
      <trkpt lat="43.16435" lon="6.61846">
        <ele>130.7</ele>
        <time>2012-12-09T09:36:56Z</time>
      </trkpt>
      <trkpt lat="43.1644" lon="6.61842">
        <ele>127.7</ele>
        <time>2012-12-09T09:36:52Z</time>
      </trkpt>
      <trkpt lat="43.16444" lon="6.61839">
        <ele>126.5</ele>
        <time>2012-12-09T09:36:48Z</time>
      </trkpt>
      <trkpt lat="43.16448" lon="6.61834">
        <ele>124.7</ele>
        <time>2012-12-09T09:36:44Z</time>
      </trkpt>
      <trkpt lat="43.16452" lon="6.6183">
        <ele>126</ele>
        <time>2012-12-09T09:36:40Z</time>
      </trkpt>
      <trkpt lat="43.16458" lon="6.61829">
        <ele>122.9</ele>
        <time>2012-12-09T09:36:35Z</time>
      </trkpt>
      <trkpt lat="43.16463" lon="6.61828">
        <ele>123.3</ele>
        <time>2012-12-09T09:36:29Z</time>
      </trkpt>
      <trkpt lat="43.16468" lon="6.61825">
        <ele>121.9</ele>
        <time>2012-12-09T09:36:24Z</time>
      </trkpt>
      <trkpt lat="43.16472" lon="6.61824">
        <ele>122.7</ele>
        <time>2012-12-09T09:36:21Z</time>
      </trkpt>
      <trkpt lat="43.16477" lon="6.61822">
        <ele>123.1</ele>
        <time>2012-12-09T09:36:15Z</time>
      </trkpt>
      <trkpt lat="43.16481" lon="6.6182">
        <ele>121.6</ele>
        <time>2012-12-09T09:36:13Z</time>
      </trkpt>
      <trkpt lat="43.16488" lon="6.61816">
        <ele>121</ele>
        <time>2012-12-09T09:36:10Z</time>
      </trkpt>
      <trkpt lat="43.16493" lon="6.61812">
        <ele>118.8</ele>
        <time>2012-12-09T09:36:07Z</time>
      </trkpt>
      <trkpt lat="43.16497" lon="6.61808">
        <ele>119.8</ele>
        <time>2012-12-09T09:36:04Z</time>
      </trkpt>
      <trkpt lat="43.16502" lon="6.61805">
        <ele>120.7</ele>
        <time>2012-12-09T09:36:01Z</time>
      </trkpt>
      <trkpt lat="43.16506" lon="6.61803">
        <ele>117.5</ele>
        <time>2012-12-09T09:35:57Z</time>
      </trkpt>
      <trkpt lat="43.16512" lon="6.61801">
        <ele>123.4</ele>
        <time>2012-12-09T09:35:52Z</time>
      </trkpt>
      <trkpt lat="43.16517" lon="6.61799">
        <ele>124.7</ele>
        <time>2012-12-09T09:35:49Z</time>
      </trkpt>
      <trkpt lat="43.16522" lon="6.61797">
        <ele>124.1</ele>
        <time>2012-12-09T09:35:46Z</time>
      </trkpt>
      <trkpt lat="43.16527" lon="6.61793">
        <ele>126.4</ele>
        <time>2012-12-09T09:35:40Z</time>
      </trkpt>
      <trkpt lat="43.1653" lon="6.61789">
        <ele>130.9</ele>
        <time>2012-12-09T09:35:35Z</time>
      </trkpt>
      <trkpt lat="43.16534" lon="6.61784">
        <ele>134.7</ele>
        <time>2012-12-09T09:35:31Z</time>
      </trkpt>
      <trkpt lat="43.16538" lon="6.61779">
        <ele>134.3</ele>
        <time>2012-12-09T09:35:27Z</time>
      </trkpt>
      <trkpt lat="43.16544" lon="6.61777">
        <ele>131.3</ele>
        <time>2012-12-09T09:35:23Z</time>
      </trkpt>
      <trkpt lat="43.16548" lon="6.61776">
        <ele>133.2</ele>
        <time>2012-12-09T09:35:18Z</time>
      </trkpt>
      <trkpt lat="43.16552" lon="6.61772">
        <ele>134.4</ele>
        <time>2012-12-09T09:35:13Z</time>
      </trkpt>
      <trkpt lat="43.16556" lon="6.61768">
        <ele>135.4</ele>
        <time>2012-12-09T09:35:09Z</time>
      </trkpt>
      <trkpt lat="43.16561" lon="6.61766">
        <ele>136.4</ele>
        <time>2012-12-09T09:35:05Z</time>
      </trkpt>
      <trkpt lat="43.16565" lon="6.6176">
        <ele>135.7</ele>
        <time>2012-12-09T09:35:01Z</time>
      </trkpt>
      <trkpt lat="43.1657" lon="6.61755">
        <ele>136.1</ele>
        <time>2012-12-09T09:34:57Z</time>
      </trkpt>
      <trkpt lat="43.16575" lon="6.61751">
        <ele>136.3</ele>
        <time>2012-12-09T09:34:53Z</time>
      </trkpt>
      <trkpt lat="43.16579" lon="6.61747">
        <ele>134.8</ele>
        <time>2012-12-09T09:34:49Z</time>
      </trkpt>
      <trkpt lat="43.16584" lon="6.61743">
        <ele>136.8</ele>
        <time>2012-12-09T09:34:44Z</time>
      </trkpt>
      <trkpt lat="43.16589" lon="6.61739">
        <ele>133.9</ele>
        <time>2012-12-09T09:34:40Z</time>
      </trkpt>
      <trkpt lat="43.16593" lon="6.61734">
        <ele>134.2</ele>
        <time>2012-12-09T09:34:36Z</time>
      </trkpt>
      <trkpt lat="43.16597" lon="6.61729">
        <ele>142.3</ele>
        <time>2012-12-09T09:34:31Z</time>
      </trkpt>
      <trkpt lat="43.16601" lon="6.61724">
        <ele>140.3</ele>
        <time>2012-12-09T09:34:26Z</time>
      </trkpt>
      <trkpt lat="43.16605" lon="6.6172">
        <ele>138.9</ele>
        <time>2012-12-09T09:34:21Z</time>
      </trkpt>
      <trkpt lat="43.16608" lon="6.61713">
        <ele>138.7</ele>
        <time>2012-12-09T09:34:17Z</time>
      </trkpt>
      <trkpt lat="43.16611" lon="6.61706">
        <ele>140.8</ele>
        <time>2012-12-09T09:34:13Z</time>
      </trkpt>
      <trkpt lat="43.16615" lon="6.61701">
        <ele>145.4</ele>
        <time>2012-12-09T09:34:06Z</time>
      </trkpt>
      <trkpt lat="43.16619" lon="6.61698">
        <ele>146.2</ele>
        <time>2012-12-09T09:34:02Z</time>
      </trkpt>
      <trkpt lat="43.16623" lon="6.61694">
        <ele>147.1</ele>
        <time>2012-12-09T09:33:58Z</time>
      </trkpt>
      <trkpt lat="43.16626" lon="6.6169">
        <ele>147.4</ele>
        <time>2012-12-09T09:33:53Z</time>
      </trkpt>
      <trkpt lat="43.1663" lon="6.61686">
        <ele>148.5</ele>
        <time>2012-12-09T09:33:48Z</time>
      </trkpt>
      <trkpt lat="43.16634" lon="6.6168">
        <ele>147.6</ele>
        <time>2012-12-09T09:33:43Z</time>
      </trkpt>
      <trkpt lat="43.16637" lon="6.61675">
        <ele>146.2</ele>
        <time>2012-12-09T09:33:39Z</time>
      </trkpt>
      <trkpt lat="43.16639" lon="6.6167">
        <ele>146.9</ele>
        <time>2012-12-09T09:33:35Z</time>
      </trkpt>
      <trkpt lat="43.16642" lon="6.61665">
        <ele>145.7</ele>
        <time>2012-12-09T09:33:30Z</time>
      </trkpt>
      <trkpt lat="43.16646" lon="6.6166">
        <ele>147.1</ele>
        <time>2012-12-09T09:33:26Z</time>
      </trkpt>
      <trkpt lat="43.16651" lon="6.6166">
        <ele>146.2</ele>
        <time>2012-12-09T09:33:22Z</time>
      </trkpt>
      <trkpt lat="43.16655" lon="6.61656">
        <ele>147.2</ele>
        <time>2012-12-09T09:33:18Z</time>
      </trkpt>
      <trkpt lat="43.1666" lon="6.61653">
        <ele>146.5</ele>
        <time>2012-12-09T09:33:14Z</time>
      </trkpt>
      <trkpt lat="43.16665" lon="6.61653">
        <ele>144.4</ele>
        <time>2012-12-09T09:33:11Z</time>
      </trkpt>
      <trkpt lat="43.16671" lon="6.61652">
        <ele>143.6</ele>
        <time>2012-12-09T09:33:08Z</time>
      </trkpt>
      <trkpt lat="43.16676" lon="6.61651">
        <ele>143.8</ele>
        <time>2012-12-09T09:33:05Z</time>
      </trkpt>
      <trkpt lat="43.1668" lon="6.61646">
        <ele>143.3</ele>
        <time>2012-12-09T09:33:01Z</time>
      </trkpt>
      <trkpt lat="43.16684" lon="6.61641">
        <ele>145.5</ele>
        <time>2012-12-09T09:32:57Z</time>
      </trkpt>
      <trkpt lat="43.16689" lon="6.61637">
        <ele>145.8</ele>
        <time>2012-12-09T09:32:53Z</time>
      </trkpt>
      <trkpt lat="43.16694" lon="6.61634">
        <ele>146.3</ele>
        <time>2012-12-09T09:32:50Z</time>
      </trkpt>
      <trkpt lat="43.16698" lon="6.61629">
        <ele>144.7</ele>
        <time>2012-12-09T09:32:46Z</time>
      </trkpt>
      <trkpt lat="43.16699" lon="6.61623">
        <ele>146.4</ele>
        <time>2012-12-09T09:32:43Z</time>
      </trkpt>
      <trkpt lat="43.16703" lon="6.61617">
        <ele>146.1</ele>
        <time>2012-12-09T09:32:39Z</time>
      </trkpt>
      <trkpt lat="43.16707" lon="6.6161">
        <ele>148.2</ele>
        <time>2012-12-09T09:32:35Z</time>
      </trkpt>
      <trkpt lat="43.1671" lon="6.61605">
        <ele>147</ele>
        <time>2012-12-09T09:32:31Z</time>
      </trkpt>
      <trkpt lat="43.16714" lon="6.61598">
        <ele>143.4</ele>
        <time>2012-12-09T09:32:25Z</time>
      </trkpt>
      <trkpt lat="43.16718" lon="6.61596">
        <ele>144.4</ele>
        <time>2012-12-09T09:32:21Z</time>
      </trkpt>
      <trkpt lat="43.16724" lon="6.61597">
        <ele>139</ele>
        <time>2012-12-09T09:32:18Z</time>
      </trkpt>
      <trkpt lat="43.16729" lon="6.61597">
        <ele>136.5</ele>
        <time>2012-12-09T09:32:15Z</time>
      </trkpt>
      <trkpt lat="43.16732" lon="6.61592">
        <ele>134.8</ele>
        <time>2012-12-09T09:32:11Z</time>
      </trkpt>
      <trkpt lat="43.16735" lon="6.61586">
        <ele>134.3</ele>
        <time>2012-12-09T09:32:07Z</time>
      </trkpt>
      <trkpt lat="43.16738" lon="6.61581">
        <ele>132.7</ele>
        <time>2012-12-09T09:32:01Z</time>
      </trkpt>
      <trkpt lat="43.16742" lon="6.61576">
        <ele>131.4</ele>
        <time>2012-12-09T09:31:55Z</time>
      </trkpt>
      <trkpt lat="43.16741" lon="6.6157">
        <ele>133</ele>
        <time>2012-12-09T09:31:51Z</time>
      </trkpt>
      <trkpt lat="43.16739" lon="6.61563">
        <ele>140.6</ele>
        <time>2012-12-09T09:31:47Z</time>
      </trkpt>
      <trkpt lat="43.16741" lon="6.61556">
        <ele>140.1</ele>
        <time>2012-12-09T09:31:43Z</time>
      </trkpt>
      <trkpt lat="43.16743" lon="6.6155">
        <ele>140.2</ele>
        <time>2012-12-09T09:31:40Z</time>
      </trkpt>
      <trkpt lat="43.16745" lon="6.61543">
        <ele>141.5</ele>
        <time>2012-12-09T09:31:37Z</time>
      </trkpt>
      <trkpt lat="43.16746" lon="6.61537">
        <ele>140.9</ele>
        <time>2012-12-09T09:31:32Z</time>
      </trkpt>
      <trkpt lat="43.16746" lon="6.6153">
        <ele>141.2</ele>
        <time>2012-12-09T09:31:28Z</time>
      </trkpt>
      <trkpt lat="43.16749" lon="6.61524">
        <ele>145.9</ele>
        <time>2012-12-09T09:31:23Z</time>
      </trkpt>
      <trkpt lat="43.1675" lon="6.61517">
        <ele>144.7</ele>
        <time>2012-12-09T09:31:15Z</time>
      </trkpt>
      <trkpt lat="43.16753" lon="6.61512">
        <ele>143.4</ele>
        <time>2012-12-09T09:31:11Z</time>
      </trkpt>
      <trkpt lat="43.16754" lon="6.61505">
        <ele>144.2</ele>
        <time>2012-12-09T09:31:06Z</time>
      </trkpt>
      <trkpt lat="43.16754" lon="6.61498">
        <ele>143.4</ele>
        <time>2012-12-09T09:31:01Z</time>
      </trkpt>
      <trkpt lat="43.16756" lon="6.61492">
        <ele>143.5</ele>
        <time>2012-12-09T09:30:57Z</time>
      </trkpt>
      <trkpt lat="43.16759" lon="6.61486">
        <ele>142.8</ele>
        <time>2012-12-09T09:30:52Z</time>
      </trkpt>
      <trkpt lat="43.16762" lon="6.6148">
        <ele>143.2</ele>
        <time>2012-12-09T09:30:48Z</time>
      </trkpt>
      <trkpt lat="43.16764" lon="6.61472">
        <ele>141.9</ele>
        <time>2012-12-09T09:30:43Z</time>
      </trkpt>
      <trkpt lat="43.16765" lon="6.61465">
        <ele>140.3</ele>
        <time>2012-12-09T09:30:38Z</time>
      </trkpt>
      <trkpt lat="43.16766" lon="6.61458">
        <ele>140.8</ele>
        <time>2012-12-09T09:30:34Z</time>
      </trkpt>
      <trkpt lat="43.16768" lon="6.61452">
        <ele>142.8</ele>
        <time>2012-12-09T09:30:30Z</time>
      </trkpt>
      <trkpt lat="43.16769" lon="6.61444">
        <ele>143.2</ele>
        <time>2012-12-09T09:30:26Z</time>
      </trkpt>
      <trkpt lat="43.16772" lon="6.61438">
        <ele>144.5</ele>
        <time>2012-12-09T09:30:22Z</time>
      </trkpt>
      <trkpt lat="43.16775" lon="6.61432">
        <ele>147.5</ele>
        <time>2012-12-09T09:30:18Z</time>
      </trkpt>
      <trkpt lat="43.16776" lon="6.61425">
        <ele>147.1</ele>
        <time>2012-12-09T09:30:14Z</time>
      </trkpt>
      <trkpt lat="43.16778" lon="6.61419">
        <ele>147.3</ele>
        <time>2012-12-09T09:30:10Z</time>
      </trkpt>
      <trkpt lat="43.1678" lon="6.61412">
        <ele>147.7</ele>
        <time>2012-12-09T09:30:06Z</time>
      </trkpt>
      <trkpt lat="43.16781" lon="6.61404">
        <ele>149.3</ele>
        <time>2012-12-09T09:30:02Z</time>
      </trkpt>
      <trkpt lat="43.16784" lon="6.61397">
        <ele>149.7</ele>
        <time>2012-12-09T09:29:58Z</time>
      </trkpt>
      <trkpt lat="43.16788" lon="6.61392">
        <ele>150.4</ele>
        <time>2012-12-09T09:29:54Z</time>
      </trkpt>
      <trkpt lat="43.16791" lon="6.61385">
        <ele>150.6</ele>
        <time>2012-12-09T09:29:49Z</time>
      </trkpt>
      <trkpt lat="43.16794" lon="6.61379">
        <ele>153.4</ele>
        <time>2012-12-09T09:29:45Z</time>
      </trkpt>
      <trkpt lat="43.16798" lon="6.61375">
        <ele>153.3</ele>
        <time>2012-12-09T09:29:42Z</time>
      </trkpt>
      <trkpt lat="43.16803" lon="6.6137">
        <ele>154.9</ele>
        <time>2012-12-09T09:29:38Z</time>
      </trkpt>
      <trkpt lat="43.16807" lon="6.61367">
        <ele>153.6</ele>
        <time>2012-12-09T09:29:35Z</time>
      </trkpt>
      <trkpt lat="43.1681" lon="6.61363">
        <ele>156.2</ele>
        <time>2012-12-09T09:29:32Z</time>
      </trkpt>
      <trkpt lat="43.16815" lon="6.61359">
        <ele>156.7</ele>
        <time>2012-12-09T09:29:29Z</time>
      </trkpt>
      <trkpt lat="43.16819" lon="6.61357">
        <ele>159.4</ele>
        <time>2012-12-09T09:29:26Z</time>
      </trkpt>
      <trkpt lat="43.16825" lon="6.61354">
        <ele>157.1</ele>
        <time>2012-12-09T09:29:21Z</time>
      </trkpt>
      <trkpt lat="43.16828" lon="6.61348">
        <ele>158.8</ele>
        <time>2012-12-09T09:29:17Z</time>
      </trkpt>
      <trkpt lat="43.16832" lon="6.61344">
        <ele>159</ele>
        <time>2012-12-09T09:29:13Z</time>
      </trkpt>
      <trkpt lat="43.16835" lon="6.61339">
        <ele>156.9</ele>
        <time>2012-12-09T09:29:09Z</time>
      </trkpt>
      <trkpt lat="43.16838" lon="6.61334">
        <ele>155.8</ele>
        <time>2012-12-09T09:29:04Z</time>
      </trkpt>
      <trkpt lat="43.16842" lon="6.61329">
        <ele>155.6</ele>
        <time>2012-12-09T09:29:00Z</time>
      </trkpt>
      <trkpt lat="43.16847" lon="6.61327">
        <ele>154.1</ele>
        <time>2012-12-09T09:28:56Z</time>
      </trkpt>
      <trkpt lat="43.16852" lon="6.61324">
        <ele>151.7</ele>
        <time>2012-12-09T09:28:50Z</time>
      </trkpt>
      <trkpt lat="43.16855" lon="6.61319">
        <ele>153.4</ele>
        <time>2012-12-09T09:28:46Z</time>
      </trkpt>
      <trkpt lat="43.16859" lon="6.61314">
        <ele>153.1</ele>
        <time>2012-12-09T09:28:42Z</time>
      </trkpt>
      <trkpt lat="43.16862" lon="6.61308">
        <ele>152.3</ele>
        <time>2012-12-09T09:28:38Z</time>
      </trkpt>
      <trkpt lat="43.16866" lon="6.61303">
        <ele>149.6</ele>
        <time>2012-12-09T09:28:33Z</time>
      </trkpt>
      <trkpt lat="43.1687" lon="6.613">
        <ele>149.9</ele>
        <time>2012-12-09T09:28:29Z</time>
      </trkpt>
      <trkpt lat="43.16875" lon="6.61296">
        <ele>148.2</ele>
        <time>2012-12-09T09:28:25Z</time>
      </trkpt>
      <trkpt lat="43.16879" lon="6.61292">
        <ele>146.1</ele>
        <time>2012-12-09T09:28:20Z</time>
      </trkpt>
      <trkpt lat="43.16884" lon="6.61287">
        <ele>145.7</ele>
        <time>2012-12-09T09:28:16Z</time>
      </trkpt>
      <trkpt lat="43.16887" lon="6.61282">
        <ele>142.5</ele>
        <time>2012-12-09T09:28:12Z</time>
      </trkpt>
      <trkpt lat="43.16892" lon="6.61278">
        <ele>142.2</ele>
        <time>2012-12-09T09:28:08Z</time>
      </trkpt>
      <trkpt lat="43.16898" lon="6.61276">
        <ele>140.7</ele>
        <time>2012-12-09T09:28:03Z</time>
      </trkpt>
      <trkpt lat="43.16902" lon="6.61274">
        <ele>139.5</ele>
        <time>2012-12-09T09:27:58Z</time>
      </trkpt>
      <trkpt lat="43.16906" lon="6.6127">
        <ele>140.5</ele>
        <time>2012-12-09T09:27:53Z</time>
      </trkpt>
      <trkpt lat="43.16908" lon="6.61264">
        <ele>141.4</ele>
        <time>2012-12-09T09:27:49Z</time>
      </trkpt>
      <trkpt lat="43.16909" lon="6.61258">
        <ele>142</ele>
        <time>2012-12-09T09:27:45Z</time>
      </trkpt>
      <trkpt lat="43.16911" lon="6.61251">
        <ele>142</ele>
        <time>2012-12-09T09:27:41Z</time>
      </trkpt>
      <trkpt lat="43.16912" lon="6.61244">
        <ele>141.1</ele>
        <time>2012-12-09T09:27:36Z</time>
      </trkpt>
      <trkpt lat="43.16912" lon="6.61238">
        <ele>141.2</ele>
        <time>2012-12-09T09:27:32Z</time>
      </trkpt>
      <trkpt lat="43.16914" lon="6.6123">
        <ele>141</ele>
        <time>2012-12-09T09:27:28Z</time>
      </trkpt>
      <trkpt lat="43.16916" lon="6.61224">
        <ele>141.6</ele>
        <time>2012-12-09T09:27:24Z</time>
      </trkpt>
      <trkpt lat="43.16918" lon="6.61218">
        <ele>141</ele>
        <time>2012-12-09T09:27:20Z</time>
      </trkpt>
      <trkpt lat="43.1692" lon="6.61211">
        <ele>141.8</ele>
        <time>2012-12-09T09:27:15Z</time>
      </trkpt>
      <trkpt lat="43.16923" lon="6.61206">
        <ele>142.8</ele>
        <time>2012-12-09T09:27:11Z</time>
      </trkpt>
      <trkpt lat="43.16925" lon="6.612">
        <ele>142.9</ele>
        <time>2012-12-09T09:27:07Z</time>
      </trkpt>
      <trkpt lat="43.16927" lon="6.61194">
        <ele>143.7</ele>
        <time>2012-12-09T09:27:03Z</time>
      </trkpt>
      <trkpt lat="43.16929" lon="6.61188">
        <ele>143.8</ele>
        <time>2012-12-09T09:26:59Z</time>
      </trkpt>
      <trkpt lat="43.16931" lon="6.61182">
        <ele>144.1</ele>
        <time>2012-12-09T09:26:55Z</time>
      </trkpt>
      <trkpt lat="43.16934" lon="6.61175">
        <ele>143.7</ele>
        <time>2012-12-09T09:26:51Z</time>
      </trkpt>
      <trkpt lat="43.16935" lon="6.61168">
        <ele>145.3</ele>
        <time>2012-12-09T09:26:47Z</time>
      </trkpt>
      <trkpt lat="43.16934" lon="6.6116">
        <ele>144.8</ele>
        <time>2012-12-09T09:26:43Z</time>
      </trkpt>
      <trkpt lat="43.16934" lon="6.61154">
        <ele>145.6</ele>
        <time>2012-12-09T09:26:39Z</time>
      </trkpt>
      <trkpt lat="43.16934" lon="6.61148">
        <ele>145</ele>
        <time>2012-12-09T09:26:35Z</time>
      </trkpt>
      <trkpt lat="43.16936" lon="6.61141">
        <ele>145.3</ele>
        <time>2012-12-09T09:26:30Z</time>
      </trkpt>
      <trkpt lat="43.16936" lon="6.61134">
        <ele>146.1</ele>
        <time>2012-12-09T09:26:24Z</time>
      </trkpt>
      <trkpt lat="43.16934" lon="6.61128">
        <ele>144.7</ele>
        <time>2012-12-09T09:26:18Z</time>
      </trkpt>
      <trkpt lat="43.16934" lon="6.61122">
        <ele>142.2</ele>
        <time>2012-12-09T09:26:11Z</time>
      </trkpt>
      <trkpt lat="43.16933" lon="6.61115">
        <ele>143.7</ele>
        <time>2012-12-09T09:26:03Z</time>
      </trkpt>
      <trkpt lat="43.16933" lon="6.61108">
        <ele>141.3</ele>
        <time>2012-12-09T09:25:56Z</time>
      </trkpt>
      <trkpt lat="43.1693" lon="6.61105">
        <ele>141.5</ele>
        <time>2012-12-09T09:25:48Z</time>
      </trkpt>
      <trkpt lat="43.16926" lon="6.611">
        <ele>139.1</ele>
        <time>2012-12-09T09:25:40Z</time>
      </trkpt>
      <trkpt lat="43.16926" lon="6.61094">
        <ele>136.5</ele>
        <time>2012-12-09T09:25:34Z</time>
      </trkpt>
      <trkpt lat="43.16923" lon="6.6109">
        <ele>135.6</ele>
        <time>2012-12-09T09:25:25Z</time>
      </trkpt>
      <trkpt lat="43.16923" lon="6.61084">
        <ele>135.5</ele>
        <time>2012-12-09T09:25:19Z</time>
      </trkpt>
      <trkpt lat="43.16926" lon="6.61079">
        <ele>133.1</ele>
        <time>2012-12-09T09:25:13Z</time>
      </trkpt>
      <trkpt lat="43.16928" lon="6.61073">
        <ele>132.3</ele>
        <time>2012-12-09T09:25:07Z</time>
      </trkpt>
      <trkpt lat="43.16931" lon="6.61067">
        <ele>130.9</ele>
        <time>2012-12-09T09:25:02Z</time>
      </trkpt>
      <trkpt lat="43.16933" lon="6.61061">
        <ele>127.8</ele>
        <time>2012-12-09T09:24:48Z</time>
      </trkpt>
      <trkpt lat="43.16932" lon="6.61055">
        <ele>123.5</ele>
        <time>2012-12-09T09:24:38Z</time>
      </trkpt>
      <trkpt lat="43.16932" lon="6.61049">
        <ele>120.6</ele>
        <time>2012-12-09T09:24:28Z</time>
      </trkpt>
      <trkpt lat="43.16934" lon="6.61043">
        <ele>118.9</ele>
        <time>2012-12-09T09:24:21Z</time>
      </trkpt>
      <trkpt lat="43.16938" lon="6.6104">
        <ele>117.8</ele>
        <time>2012-12-09T09:24:16Z</time>
      </trkpt>
      <trkpt lat="43.16941" lon="6.61035">
        <ele>118.1</ele>
        <time>2012-12-09T09:24:11Z</time>
      </trkpt>
      <trkpt lat="43.16945" lon="6.61032">
        <ele>116</ele>
        <time>2012-12-09T09:24:05Z</time>
      </trkpt>
      <trkpt lat="43.16946" lon="6.61025">
        <ele>113.5</ele>
        <time>2012-12-09T09:23:54Z</time>
      </trkpt>
      <trkpt lat="43.16948" lon="6.61019">
        <ele>110.8</ele>
        <time>2012-12-09T09:23:46Z</time>
      </trkpt>
      <trkpt lat="43.1695" lon="6.61013">
        <ele>108.5</ele>
        <time>2012-12-09T09:23:39Z</time>
      </trkpt>
      <trkpt lat="43.16953" lon="6.61008">
        <ele>108.4</ele>
        <time>2012-12-09T09:23:34Z</time>
      </trkpt>
      <trkpt lat="43.16958" lon="6.61004">
        <ele>107</ele>
        <time>2012-12-09T09:23:29Z</time>
      </trkpt>
      <trkpt lat="43.16961" lon="6.60999">
        <ele>103.9</ele>
        <time>2012-12-09T09:23:22Z</time>
      </trkpt>
      <trkpt lat="43.16965" lon="6.60996">
        <ele>103.7</ele>
        <time>2012-12-09T09:23:18Z</time>
      </trkpt>
      <trkpt lat="43.16969" lon="6.60991">
        <ele>103.7</ele>
        <time>2012-12-09T09:23:14Z</time>
      </trkpt>
      <trkpt lat="43.16972" lon="6.60986">
        <ele>104.2</ele>
        <time>2012-12-09T09:23:10Z</time>
      </trkpt>
      <trkpt lat="43.16977" lon="6.60982">
        <ele>102.8</ele>
        <time>2012-12-09T09:23:04Z</time>
      </trkpt>
      <trkpt lat="43.16981" lon="6.60981">
        <ele>101.6</ele>
        <time>2012-12-09T09:23:00Z</time>
      </trkpt>
      <trkpt lat="43.16985" lon="6.60976">
        <ele>102.1</ele>
        <time>2012-12-09T09:22:55Z</time>
      </trkpt>
      <trkpt lat="43.1699" lon="6.60973">
        <ele>102</ele>
        <time>2012-12-09T09:22:52Z</time>
      </trkpt>
      <trkpt lat="43.16994" lon="6.60971">
        <ele>102.1</ele>
        <time>2012-12-09T09:22:49Z</time>
      </trkpt>
      <trkpt lat="43.16999" lon="6.60968">
        <ele>101.2</ele>
        <time>2012-12-09T09:22:45Z</time>
      </trkpt>
      <trkpt lat="43.17004" lon="6.60964">
        <ele>103.2</ele>
        <time>2012-12-09T09:22:41Z</time>
      </trkpt>
      <trkpt lat="43.17008" lon="6.60959">
        <ele>103.7</ele>
        <time>2012-12-09T09:22:37Z</time>
      </trkpt>
      <trkpt lat="43.17011" lon="6.60954">
        <ele>102.9</ele>
        <time>2012-12-09T09:22:31Z</time>
      </trkpt>
      <trkpt lat="43.17015" lon="6.60949">
        <ele>100.3</ele>
        <time>2012-12-09T09:22:25Z</time>
      </trkpt>
      <trkpt lat="43.17018" lon="6.60944">
        <ele>99.7</ele>
        <time>2012-12-09T09:22:19Z</time>
      </trkpt>
      <trkpt lat="43.17022" lon="6.60941">
        <ele>98.7</ele>
        <time>2012-12-09T09:22:14Z</time>
      </trkpt>
      <trkpt lat="43.17026" lon="6.60938">
        <ele>98.8</ele>
        <time>2012-12-09T09:22:10Z</time>
      </trkpt>
      <trkpt lat="43.1703" lon="6.60933">
        <ele>98.7</ele>
        <time>2012-12-09T09:22:05Z</time>
      </trkpt>
      <trkpt lat="43.17033" lon="6.60928">
        <ele>97.4</ele>
        <time>2012-12-09T09:22:00Z</time>
      </trkpt>
      <trkpt lat="43.17035" lon="6.60921">
        <ele>96.2</ele>
        <time>2012-12-09T09:21:55Z</time>
      </trkpt>
      <trkpt lat="43.17036" lon="6.60915">
        <ele>96.9</ele>
        <time>2012-12-09T09:21:50Z</time>
      </trkpt>
      <trkpt lat="43.17037" lon="6.60909">
        <ele>97.8</ele>
        <time>2012-12-09T09:21:44Z</time>
      </trkpt>
      <trkpt lat="43.1704" lon="6.60904">
        <ele>99</ele>
        <time>2012-12-09T09:21:40Z</time>
      </trkpt>
      <trkpt lat="43.17044" lon="6.609">
        <ele>97.1</ele>
        <time>2012-12-09T09:21:36Z</time>
      </trkpt>
      <trkpt lat="43.17049" lon="6.60897">
        <ele>97</ele>
        <time>2012-12-09T09:21:32Z</time>
      </trkpt>
      <trkpt lat="43.17053" lon="6.60893">
        <ele>95.4</ele>
        <time>2012-12-09T09:21:26Z</time>
      </trkpt>
      <trkpt lat="43.17056" lon="6.60888">
        <ele>92.6</ele>
        <time>2012-12-09T09:21:20Z</time>
      </trkpt>
      <trkpt lat="43.1706" lon="6.60884">
        <ele>92.5</ele>
        <time>2012-12-09T09:21:15Z</time>
      </trkpt>
      <trkpt lat="43.17063" lon="6.6088">
        <ele>91.6</ele>
        <time>2012-12-09T09:21:06Z</time>
      </trkpt>
      <trkpt lat="43.17067" lon="6.60876">
        <ele>87.7</ele>
        <time>2012-12-09T09:20:57Z</time>
      </trkpt>
      <trkpt lat="43.1707" lon="6.6087">
        <ele>84.6</ele>
        <time>2012-12-09T09:20:46Z</time>
      </trkpt>
      <trkpt lat="43.17074" lon="6.60866">
        <ele>82.8</ele>
        <time>2012-12-09T09:20:36Z</time>
      </trkpt>
      <trkpt lat="43.17078" lon="6.60864">
        <ele>81.7</ele>
        <time>2012-12-09T09:20:30Z</time>
      </trkpt>
      <trkpt lat="43.17083" lon="6.60866">
        <ele>77.6</ele>
        <time>2012-12-09T09:20:24Z</time>
      </trkpt>
      <trkpt lat="43.17088" lon="6.60866">
        <ele>75.3</ele>
        <time>2012-12-09T09:20:18Z</time>
      </trkpt>
      <trkpt lat="43.17093" lon="6.60864">
        <ele>72.4</ele>
        <time>2012-12-09T09:20:08Z</time>
      </trkpt>
      <trkpt lat="43.17098" lon="6.60864">
        <ele>69.1</ele>
        <time>2012-12-09T09:20:01Z</time>
      </trkpt>
      <trkpt lat="43.17103" lon="6.60863">
        <ele>66.1</ele>
        <time>2012-12-09T09:19:51Z</time>
      </trkpt>
      <trkpt lat="43.17106" lon="6.60859">
        <ele>64</ele>
        <time>2012-12-09T09:19:41Z</time>
      </trkpt>
      <trkpt lat="43.17111" lon="6.60858">
        <ele>63.6</ele>
        <time>2012-12-09T09:19:34Z</time>
      </trkpt>
      <trkpt lat="43.17115" lon="6.60856">
        <ele>61.7</ele>
        <time>2012-12-09T09:19:28Z</time>
      </trkpt>
      <trkpt lat="43.17119" lon="6.60853">
        <ele>62.7</ele>
        <time>2012-12-09T09:19:16Z</time>
      </trkpt>
      <trkpt lat="43.17123" lon="6.6085">
        <ele>60.6</ele>
        <time>2012-12-09T09:19:09Z</time>
      </trkpt>
      <trkpt lat="43.17128" lon="6.60849">
        <ele>58.8</ele>
        <time>2012-12-09T09:18:57Z</time>
      </trkpt>
      <trkpt lat="43.17129" lon="6.60843">
        <ele>59</ele>
        <time>2012-12-09T09:18:44Z</time>
      </trkpt>
      <trkpt lat="43.17134" lon="6.60844">
        <ele>56.7</ele>
        <time>2012-12-09T09:18:38Z</time>
      </trkpt>
      <trkpt lat="43.17138" lon="6.60848">
        <ele>55.6</ele>
        <time>2012-12-09T09:18:32Z</time>
      </trkpt>
      <trkpt lat="43.17143" lon="6.60851">
        <ele>54.8</ele>
        <time>2012-12-09T09:18:27Z</time>
      </trkpt>
      <trkpt lat="43.17148" lon="6.60855">
        <ele>55.6</ele>
        <time>2012-12-09T09:18:22Z</time>
      </trkpt>
      <trkpt lat="43.17151" lon="6.6086">
        <ele>53.6</ele>
        <time>2012-12-09T09:18:17Z</time>
      </trkpt>
      <trkpt lat="43.17154" lon="6.60865">
        <ele>53</ele>
        <time>2012-12-09T09:18:14Z</time>
      </trkpt>
      <trkpt lat="43.17158" lon="6.6087">
        <ele>52</ele>
        <time>2012-12-09T09:18:03Z</time>
      </trkpt>
      <trkpt lat="43.17163" lon="6.60873">
        <ele>51.1</ele>
        <time>2012-12-09T09:17:59Z</time>
      </trkpt>
      <trkpt lat="43.17168" lon="6.60874">
        <ele>50.6</ele>
        <time>2012-12-09T09:17:55Z</time>
      </trkpt>
      <trkpt lat="43.17173" lon="6.60873">
        <ele>51.1</ele>
        <time>2012-12-09T09:17:51Z</time>
      </trkpt>
      <trkpt lat="43.17178" lon="6.60873">
        <ele>52.3</ele>
        <time>2012-12-09T09:17:47Z</time>
      </trkpt>
      <trkpt lat="43.17182" lon="6.60877">
        <ele>51.5</ele>
        <time>2012-12-09T09:17:43Z</time>
      </trkpt>
      <trkpt lat="43.17187" lon="6.60879">
        <ele>49.3</ele>
        <time>2012-12-09T09:17:38Z</time>
      </trkpt>
      <trkpt lat="43.17192" lon="6.60876">
        <ele>50.3</ele>
        <time>2012-12-09T09:17:33Z</time>
      </trkpt>
      <trkpt lat="43.17197" lon="6.60878">
        <ele>50.9</ele>
        <time>2012-12-09T09:17:29Z</time>
      </trkpt>
      <trkpt lat="43.17203" lon="6.60879">
        <ele>49.9</ele>
        <time>2012-12-09T09:17:23Z</time>
      </trkpt>
      <trkpt lat="43.17208" lon="6.60879">
        <ele>49.9</ele>
        <time>2012-12-09T09:17:19Z</time>
      </trkpt>
      <trkpt lat="43.17213" lon="6.60878">
        <ele>51.1</ele>
        <time>2012-12-09T09:17:16Z</time>
      </trkpt>
      <trkpt lat="43.17218" lon="6.60876">
        <ele>51.2</ele>
        <time>2012-12-09T09:17:12Z</time>
      </trkpt>
      <trkpt lat="43.17223" lon="6.60874">
        <ele>50.2</ele>
        <time>2012-12-09T09:17:06Z</time>
      </trkpt>
      <trkpt lat="43.17224" lon="6.60868">
        <ele>48.3</ele>
        <time>2012-12-09T09:16:59Z</time>
      </trkpt>
      <trkpt lat="43.17228" lon="6.60864">
        <ele>47.7</ele>
        <time>2012-12-09T09:16:54Z</time>
      </trkpt>
      <trkpt lat="43.17233" lon="6.60861">
        <ele>47.4</ele>
        <time>2012-12-09T09:16:49Z</time>
      </trkpt>
      <trkpt lat="43.17237" lon="6.60857">
        <ele>46.5</ele>
        <time>2012-12-09T09:16:44Z</time>
      </trkpt>
      <trkpt lat="43.17241" lon="6.60853">
        <ele>46.4</ele>
        <time>2012-12-09T09:16:39Z</time>
      </trkpt>
      <trkpt lat="43.17245" lon="6.60851">
        <ele>47.2</ele>
        <time>2012-12-09T09:16:35Z</time>
      </trkpt>
      <trkpt lat="43.1725" lon="6.60849">
        <ele>47.8</ele>
        <time>2012-12-09T09:16:31Z</time>
      </trkpt>
      <trkpt lat="43.17254" lon="6.60846">
        <ele>48</ele>
        <time>2012-12-09T09:16:27Z</time>
      </trkpt>
      <trkpt lat="43.1726" lon="6.60845">
        <ele>48.8</ele>
        <time>2012-12-09T09:16:22Z</time>
      </trkpt>
      <trkpt lat="43.17264" lon="6.60843">
        <ele>49.5</ele>
        <time>2012-12-09T09:16:18Z</time>
      </trkpt>
      <trkpt lat="43.1727" lon="6.6084">
        <ele>49.9</ele>
        <time>2012-12-09T09:16:14Z</time>
      </trkpt>
      <trkpt lat="43.17275" lon="6.60839">
        <ele>49.1</ele>
        <time>2012-12-09T09:16:10Z</time>
      </trkpt>
      <trkpt lat="43.1728" lon="6.6084">
        <ele>48.4</ele>
        <time>2012-12-09T09:15:57Z</time>
      </trkpt>
      <trkpt lat="43.17286" lon="6.6084">
        <ele>47.7</ele>
        <time>2012-12-09T09:15:53Z</time>
      </trkpt>
      <trkpt lat="43.17291" lon="6.60841">
        <ele>48</ele>
        <time>2012-12-09T09:15:49Z</time>
      </trkpt>
      <trkpt lat="43.17296" lon="6.60838">
        <ele>49.7</ele>
        <time>2012-12-09T09:15:45Z</time>
      </trkpt>
      <trkpt lat="43.17299" lon="6.60834">
        <ele>49.3</ele>
        <time>2012-12-09T09:15:41Z</time>
      </trkpt>
      <trkpt lat="43.17303" lon="6.60829">
        <ele>49.2</ele>
        <time>2012-12-09T09:15:37Z</time>
      </trkpt>
      <trkpt lat="43.17306" lon="6.60822">
        <ele>50</ele>
        <time>2012-12-09T09:15:33Z</time>
      </trkpt>
      <trkpt lat="43.1731" lon="6.6082">
        <ele>51.7</ele>
        <time>2012-12-09T09:14:56Z</time>
      </trkpt>
      <trkpt lat="43.17315" lon="6.60819">
        <ele>51.3</ele>
        <time>2012-12-09T09:14:50Z</time>
      </trkpt>
      <trkpt lat="43.17318" lon="6.60824">
        <ele>51.7</ele>
        <time>2012-12-09T09:14:46Z</time>
      </trkpt>
      <trkpt lat="43.17321" lon="6.60829">
        <ele>50.9</ele>
        <time>2012-12-09T09:14:41Z</time>
      </trkpt>
      <trkpt lat="43.17323" lon="6.60823">
        <ele>51.9</ele>
        <time>2012-12-09T09:14:28Z</time>
      </trkpt>
      <trkpt lat="43.17322" lon="6.60817">
        <ele>51.8</ele>
        <time>2012-12-09T09:14:05Z</time>
      </trkpt>
      <trkpt lat="43.17325" lon="6.60812">
        <ele>52.1</ele>
        <time>2012-12-09T09:14:00Z</time>
      </trkpt>
      <trkpt lat="43.17326" lon="6.60806">
        <ele>51.5</ele>
        <time>2012-12-09T09:13:56Z</time>
      </trkpt>
      <trkpt lat="43.17328" lon="6.60799">
        <ele>51.2</ele>
        <time>2012-12-09T09:13:51Z</time>
      </trkpt>
      <trkpt lat="43.17327" lon="6.60792">
        <ele>50.8</ele>
        <time>2012-12-09T09:13:45Z</time>
      </trkpt>
      <trkpt lat="43.17329" lon="6.60786">
        <ele>50.4</ele>
        <time>2012-12-09T09:13:40Z</time>
      </trkpt>
      <trkpt lat="43.17331" lon="6.60779">
        <ele>48.5</ele>
        <time>2012-12-09T09:13:34Z</time>
      </trkpt>
      <trkpt lat="43.17331" lon="6.60773">
        <ele>46.9</ele>
        <time>2012-12-09T09:13:29Z</time>
      </trkpt>
      <trkpt lat="43.17334" lon="6.60768">
        <ele>46.4</ele>
        <time>2012-12-09T09:13:25Z</time>
      </trkpt>
      <trkpt lat="43.17336" lon="6.60761">
        <ele>46.8</ele>
        <time>2012-12-09T09:13:20Z</time>
      </trkpt>
      <trkpt lat="43.1734" lon="6.60756">
        <ele>47.3</ele>
        <time>2012-12-09T09:13:16Z</time>
      </trkpt>
      <trkpt lat="43.17343" lon="6.60751">
        <ele>48.2</ele>
        <time>2012-12-09T09:13:12Z</time>
      </trkpt>
      <trkpt lat="43.17344" lon="6.60745">
        <ele>47.8</ele>
        <time>2012-12-09T09:13:08Z</time>
      </trkpt>
      <trkpt lat="43.17347" lon="6.60738">
        <ele>50</ele>
        <time>2012-12-09T09:13:04Z</time>
      </trkpt>
      <trkpt lat="43.17349" lon="6.60731">
        <ele>50.3</ele>
        <time>2012-12-09T09:13:00Z</time>
      </trkpt>
      <trkpt lat="43.1735" lon="6.60725">
        <ele>49.4</ele>
        <time>2012-12-09T09:12:56Z</time>
      </trkpt>
      <trkpt lat="43.17352" lon="6.60718">
        <ele>49.3</ele>
        <time>2012-12-09T09:12:52Z</time>
      </trkpt>
      <trkpt lat="43.17355" lon="6.60712">
        <ele>49.7</ele>
        <time>2012-12-09T09:12:47Z</time>
      </trkpt>
      <trkpt lat="43.17356" lon="6.60705">
        <ele>49</ele>
        <time>2012-12-09T09:12:42Z</time>
      </trkpt>
      <trkpt lat="43.17358" lon="6.60699">
        <ele>49.1</ele>
        <time>2012-12-09T09:12:32Z</time>
      </trkpt>
      <trkpt lat="43.17358" lon="6.60692">
        <ele>49.8</ele>
        <time>2012-12-09T09:12:28Z</time>
      </trkpt>
      <trkpt lat="43.17358" lon="6.60685">
        <ele>49.2</ele>
        <time>2012-12-09T09:12:24Z</time>
      </trkpt>
      <trkpt lat="43.1736" lon="6.60678">
        <ele>48.6</ele>
        <time>2012-12-09T09:12:20Z</time>
      </trkpt>
      <trkpt lat="43.17362" lon="6.60671">
        <ele>48.1</ele>
        <time>2012-12-09T09:12:16Z</time>
      </trkpt>
      <trkpt lat="43.17366" lon="6.60667">
        <ele>50.2</ele>
        <time>2012-12-09T09:12:12Z</time>
      </trkpt>
      <trkpt lat="43.17365" lon="6.60661">
        <ele>49</ele>
        <time>2012-12-09T09:12:06Z</time>
      </trkpt>
      <trkpt lat="43.17364" lon="6.60652">
        <ele>48.2</ele>
        <time>2012-12-09T09:12:02Z</time>
      </trkpt>
      <trkpt lat="43.17365" lon="6.60646">
        <ele>48.6</ele>
        <time>2012-12-09T09:11:59Z</time>
      </trkpt>
      <trkpt lat="43.17367" lon="6.60639">
        <ele>48.3</ele>
        <time>2012-12-09T09:11:55Z</time>
      </trkpt>
      <trkpt lat="43.17371" lon="6.60634">
        <ele>48.4</ele>
        <time>2012-12-09T09:11:51Z</time>
      </trkpt>
      <trkpt lat="43.17373" lon="6.60628">
        <ele>48.6</ele>
        <time>2012-12-09T09:11:44Z</time>
      </trkpt>
      <trkpt lat="43.17376" lon="6.60622">
        <ele>52.5</ele>
        <time>2012-12-09T09:11:34Z</time>
      </trkpt>
      <trkpt lat="43.17379" lon="6.60619">
        <ele>53.9</ele>
        <time>2012-12-09T09:11:19Z</time>
      </trkpt>
      <trkpt lat="43.17381" lon="6.60612">
        <ele>52.3</ele>
        <time>2012-12-09T09:11:10Z</time>
      </trkpt>
      <trkpt lat="43.17378" lon="6.60608">
        <ele>50.6</ele>
        <time>2012-12-09T09:10:58Z</time>
      </trkpt>
      <trkpt lat="43.17376" lon="6.60603">
        <ele>47.4</ele>
        <time>2012-12-09T09:10:49Z</time>
      </trkpt>
      <trkpt lat="43.17375" lon="6.60596">
        <ele>48.5</ele>
        <time>2012-12-09T09:10:42Z</time>
      </trkpt>
      <trkpt lat="43.17375" lon="6.6059">
        <ele>47.6</ele>
        <time>2012-12-09T09:10:38Z</time>
      </trkpt>
      <trkpt lat="43.17374" lon="6.60583">
        <ele>47.1</ele>
        <time>2012-12-09T09:10:34Z</time>
      </trkpt>
      <trkpt lat="43.17374" lon="6.60577">
        <ele>46.5</ele>
        <time>2012-12-09T09:10:30Z</time>
      </trkpt>
      <trkpt lat="43.17375" lon="6.60569">
        <ele>46.3</ele>
        <time>2012-12-09T09:10:26Z</time>
      </trkpt>
      <trkpt lat="43.17376" lon="6.60562">
        <ele>49</ele>
        <time>2012-12-09T09:10:22Z</time>
      </trkpt>
      <trkpt lat="43.17377" lon="6.60556">
        <ele>49.4</ele>
        <time>2012-12-09T09:10:18Z</time>
      </trkpt>
      <trkpt lat="43.17376" lon="6.60549">
        <ele>50.7</ele>
        <time>2012-12-09T09:10:13Z</time>
      </trkpt>
      <trkpt lat="43.17378" lon="6.60542">
        <ele>52</ele>
        <time>2012-12-09T09:10:09Z</time>
      </trkpt>
      <trkpt lat="43.17379" lon="6.60536">
        <ele>51.9</ele>
        <time>2012-12-09T09:10:05Z</time>
      </trkpt>
      <trkpt lat="43.17381" lon="6.6053">
        <ele>52.9</ele>
        <time>2012-12-09T09:10:01Z</time>
      </trkpt>
      <trkpt lat="43.17383" lon="6.60522">
        <ele>53.7</ele>
        <time>2012-12-09T09:09:56Z</time>
      </trkpt>
      <trkpt lat="43.17385" lon="6.60516">
        <ele>55.8</ele>
        <time>2012-12-09T09:09:51Z</time>
      </trkpt>
      <trkpt lat="43.17387" lon="6.6051">
        <ele>57.2</ele>
        <time>2012-12-09T09:09:47Z</time>
      </trkpt>
      <trkpt lat="43.1739" lon="6.60504">
        <ele>60.8</ele>
        <time>2012-12-09T09:09:42Z</time>
      </trkpt>
      <trkpt lat="43.17388" lon="6.60498">
        <ele>60.8</ele>
        <time>2012-12-09T09:09:37Z</time>
      </trkpt>
      <trkpt lat="43.17388" lon="6.6049">
        <ele>60.6</ele>
        <time>2012-12-09T09:09:32Z</time>
      </trkpt>
      <trkpt lat="43.17386" lon="6.60484">
        <ele>60.9</ele>
        <time>2012-12-09T09:09:28Z</time>
      </trkpt>
      <trkpt lat="43.17386" lon="6.60476">
        <ele>60</ele>
        <time>2012-12-09T09:09:24Z</time>
      </trkpt>
      <trkpt lat="43.17387" lon="6.6047">
        <ele>60.4</ele>
        <time>2012-12-09T09:09:13Z</time>
      </trkpt>
      <trkpt lat="43.17386" lon="6.60463">
        <ele>64.3</ele>
        <time>2012-12-09T09:09:03Z</time>
      </trkpt>
      <trkpt lat="43.17388" lon="6.60457">
        <ele>61.9</ele>
        <time>2012-12-09T09:08:59Z</time>
      </trkpt>
      <trkpt lat="43.1739" lon="6.60451">
        <ele>64.3</ele>
        <time>2012-12-09T09:08:49Z</time>
      </trkpt>
      <trkpt lat="43.1739" lon="6.60444">
        <ele>65.5</ele>
        <time>2012-12-09T09:08:28Z</time>
      </trkpt>
      <trkpt lat="43.1739" lon="6.60438">
        <ele>66.7</ele>
        <time>2012-12-09T09:08:24Z</time>
      </trkpt>
      <trkpt lat="43.1739" lon="6.60431">
        <ele>68.5</ele>
        <time>2012-12-09T09:08:14Z</time>
      </trkpt>
      <trkpt lat="43.1739" lon="6.60424">
        <ele>70</ele>
        <time>2012-12-09T09:08:07Z</time>
      </trkpt>
      <trkpt lat="43.17392" lon="6.60418">
        <ele>69.6</ele>
        <time>2012-12-09T09:08:03Z</time>
      </trkpt>
      <trkpt lat="43.17393" lon="6.60412">
        <ele>66</ele>
        <time>2012-12-09T09:07:55Z</time>
      </trkpt>
      <trkpt lat="43.17395" lon="6.60406">
        <ele>63.7</ele>
        <time>2012-12-09T09:07:47Z</time>
      </trkpt>
      <trkpt lat="43.17397" lon="6.604">
        <ele>62.8</ele>
        <time>2012-12-09T09:07:39Z</time>
      </trkpt>
      <trkpt lat="43.17399" lon="6.60394">
        <ele>61.5</ele>
        <time>2012-12-09T09:07:35Z</time>
      </trkpt>
      <trkpt lat="43.17401" lon="6.60388">
        <ele>62.1</ele>
        <time>2012-12-09T09:07:31Z</time>
      </trkpt>
      <trkpt lat="43.17401" lon="6.60381">
        <ele>60.9</ele>
        <time>2012-12-09T09:06:57Z</time>
      </trkpt>
      <trkpt lat="43.17403" lon="6.60374">
        <ele>61.2</ele>
        <time>2012-12-09T09:06:51Z</time>
      </trkpt>
      <trkpt lat="43.17406" lon="6.60369">
        <ele>61.3</ele>
        <time>2012-12-09T09:06:46Z</time>
      </trkpt>
      <trkpt lat="43.17407" lon="6.60362">
        <ele>61.4</ele>
        <time>2012-12-09T09:06:42Z</time>
      </trkpt>
      <trkpt lat="43.17407" lon="6.60355">
        <ele>61.5</ele>
        <time>2012-12-09T09:06:38Z</time>
      </trkpt>
      <trkpt lat="43.17407" lon="6.60347">
        <ele>62.1</ele>
        <time>2012-12-09T09:06:34Z</time>
      </trkpt>
      <trkpt lat="43.1741" lon="6.60341">
        <ele>64.1</ele>
        <time>2012-12-09T09:06:27Z</time>
      </trkpt>
      <trkpt lat="43.17413" lon="6.60335">
        <ele>64.9</ele>
        <time>2012-12-09T09:06:22Z</time>
      </trkpt>
      <trkpt lat="43.17415" lon="6.60329">
        <ele>64.2</ele>
        <time>2012-12-09T09:06:17Z</time>
      </trkpt>
      <trkpt lat="43.17418" lon="6.60324">
        <ele>63.7</ele>
        <time>2012-12-09T09:06:12Z</time>
      </trkpt>
      <trkpt lat="43.17423" lon="6.6032">
        <ele>65</ele>
        <time>2012-12-09T09:06:07Z</time>
      </trkpt>
      <trkpt lat="43.17427" lon="6.60317">
        <ele>66.2</ele>
        <time>2012-12-09T09:06:03Z</time>
      </trkpt>
      <trkpt lat="43.17432" lon="6.60316">
        <ele>68.2</ele>
        <time>2012-12-09T09:05:59Z</time>
      </trkpt>
      <trkpt lat="43.17437" lon="6.60315">
        <ele>64.5</ele>
        <time>2012-12-09T09:05:54Z</time>
      </trkpt>
      <trkpt lat="43.17442" lon="6.60312">
        <ele>62.4</ele>
        <time>2012-12-09T09:05:48Z</time>
      </trkpt>
      <trkpt lat="43.17447" lon="6.60309">
        <ele>59.4</ele>
        <time>2012-12-09T09:05:42Z</time>
      </trkpt>
      <trkpt lat="43.17451" lon="6.60306">
        <ele>58.5</ele>
        <time>2012-12-09T09:05:34Z</time>
      </trkpt>
      <trkpt lat="43.17456" lon="6.60304">
        <ele>57</ele>
        <time>2012-12-09T09:05:28Z</time>
      </trkpt>
      <trkpt lat="43.17461" lon="6.60306">
        <ele>55.2</ele>
        <time>2012-12-09T09:05:21Z</time>
      </trkpt>
      <trkpt lat="43.17466" lon="6.60308">
        <ele>54.9</ele>
        <time>2012-12-09T09:05:16Z</time>
      </trkpt>
      <trkpt lat="43.1747" lon="6.60309">
        <ele>55.7</ele>
        <time>2012-12-09T09:05:12Z</time>
      </trkpt>
      <trkpt lat="43.17476" lon="6.60311">
        <ele>54.6</ele>
        <time>2012-12-09T09:05:07Z</time>
      </trkpt>
      <trkpt lat="43.17479" lon="6.60317">
        <ele>54.4</ele>
        <time>2012-12-09T09:05:02Z</time>
      </trkpt>
      <trkpt lat="43.17481" lon="6.60323">
        <ele>55.3</ele>
        <time>2012-12-09T09:04:56Z</time>
      </trkpt>
      <trkpt lat="43.17481" lon="6.60331">
        <ele>54.3</ele>
        <time>2012-12-09T09:04:51Z</time>
      </trkpt>
      <trkpt lat="43.17481" lon="6.60338">
        <ele>52.7</ele>
        <time>2012-12-09T09:04:45Z</time>
      </trkpt>
      <trkpt lat="43.17482" lon="6.60345">
        <ele>52.4</ele>
        <time>2012-12-09T09:04:40Z</time>
      </trkpt>
      <trkpt lat="43.17483" lon="6.60352">
        <ele>51.4</ele>
        <time>2012-12-09T09:04:35Z</time>
      </trkpt>
      <trkpt lat="43.17486" lon="6.60358">
        <ele>50.8</ele>
        <time>2012-12-09T09:04:31Z</time>
      </trkpt>
      <trkpt lat="43.17488" lon="6.60365">
        <ele>50.9</ele>
        <time>2012-12-09T09:04:27Z</time>
      </trkpt>
      <trkpt lat="43.1749" lon="6.60371">
        <ele>50.6</ele>
        <time>2012-12-09T09:04:23Z</time>
      </trkpt>
      <trkpt lat="43.17492" lon="6.60378">
        <ele>50.4</ele>
        <time>2012-12-09T09:04:19Z</time>
      </trkpt>
      <trkpt lat="43.17492" lon="6.60385">
        <ele>52.3</ele>
        <time>2012-12-09T09:04:15Z</time>
      </trkpt>
      <trkpt lat="43.17494" lon="6.60392">
        <ele>53</ele>
        <time>2012-12-09T09:04:11Z</time>
      </trkpt>
      <trkpt lat="43.17496" lon="6.604">
        <ele>53.3</ele>
        <time>2012-12-09T09:04:07Z</time>
      </trkpt>
      <trkpt lat="43.17497" lon="6.60406">
        <ele>54.4</ele>
        <time>2012-12-09T09:04:03Z</time>
      </trkpt>
      <trkpt lat="43.17499" lon="6.60412">
        <ele>55</ele>
        <time>2012-12-09T09:03:59Z</time>
      </trkpt>
      <trkpt lat="43.17502" lon="6.60418">
        <ele>54</ele>
        <time>2012-12-09T09:03:55Z</time>
      </trkpt>
      <trkpt lat="43.17506" lon="6.60423">
        <ele>52.7</ele>
        <time>2012-12-09T09:03:51Z</time>
      </trkpt>
      <trkpt lat="43.17511" lon="6.60425">
        <ele>54.5</ele>
        <time>2012-12-09T09:03:46Z</time>
      </trkpt>
      <trkpt lat="43.17515" lon="6.6043">
        <ele>54.9</ele>
        <time>2012-12-09T09:03:41Z</time>
      </trkpt>
      <trkpt lat="43.17516" lon="6.60437">
        <ele>53.9</ele>
        <time>2012-12-09T09:03:37Z</time>
      </trkpt>
      <trkpt lat="43.17519" lon="6.60441">
        <ele>52</ele>
        <time>2012-12-09T09:03:32Z</time>
      </trkpt>
      <trkpt lat="43.17524" lon="6.60443">
        <ele>50.8</ele>
        <time>2012-12-09T09:03:28Z</time>
      </trkpt>
      <trkpt lat="43.17528" lon="6.60447">
        <ele>48.8</ele>
        <time>2012-12-09T09:03:24Z</time>
      </trkpt>
      <trkpt lat="43.1753" lon="6.60453">
        <ele>49.2</ele>
        <time>2012-12-09T09:03:19Z</time>
      </trkpt>
      <trkpt lat="43.17532" lon="6.60459">
        <ele>49.4</ele>
        <time>2012-12-09T09:03:15Z</time>
      </trkpt>
      <trkpt lat="43.17534" lon="6.60466">
        <ele>50</ele>
        <time>2012-12-09T09:03:12Z</time>
      </trkpt>
      <trkpt lat="43.17536" lon="6.60471">
        <ele>48.2</ele>
        <time>2012-12-09T09:03:08Z</time>
      </trkpt>
      <trkpt lat="43.17541" lon="6.60472">
        <ele>49.1</ele>
        <time>2012-12-09T09:03:04Z</time>
      </trkpt>
      <trkpt lat="43.17547" lon="6.60472">
        <ele>50.2</ele>
        <time>2012-12-09T09:02:59Z</time>
      </trkpt>
      <trkpt lat="43.17551" lon="6.60475">
        <ele>51</ele>
        <time>2012-12-09T09:02:54Z</time>
      </trkpt>
      <trkpt lat="43.17555" lon="6.6048">
        <ele>49</ele>
        <time>2012-12-09T09:02:50Z</time>
      </trkpt>
      <trkpt lat="43.1756" lon="6.60479">
        <ele>47.5</ele>
        <time>2012-12-09T09:02:46Z</time>
      </trkpt>
      <trkpt lat="43.17563" lon="6.60472">
        <ele>47.9</ele>
        <time>2012-12-09T09:02:42Z</time>
      </trkpt>
      <trkpt lat="43.17566" lon="6.60465">
        <ele>52.5</ele>
        <time>2012-12-09T09:02:38Z</time>
      </trkpt>
      <trkpt lat="43.17569" lon="6.60461">
        <ele>52.2</ele>
        <time>2012-12-09T09:02:33Z</time>
      </trkpt>
      <trkpt lat="43.17573" lon="6.60458">
        <ele>52.8</ele>
        <time>2012-12-09T09:02:27Z</time>
      </trkpt>
      <trkpt lat="43.17579" lon="6.60458">
        <ele>53.1</ele>
        <time>2012-12-09T09:02:22Z</time>
      </trkpt>
      <trkpt lat="43.17584" lon="6.60458">
        <ele>52.5</ele>
        <time>2012-12-09T09:02:17Z</time>
      </trkpt>
      <trkpt lat="43.1759" lon="6.60457">
        <ele>55.4</ele>
        <time>2012-12-09T09:02:12Z</time>
      </trkpt>
      <trkpt lat="43.17594" lon="6.60455">
        <ele>56.3</ele>
        <time>2012-12-09T09:02:06Z</time>
      </trkpt>
      <trkpt lat="43.17599" lon="6.60454">
        <ele>56.8</ele>
        <time>2012-12-09T09:02:01Z</time>
      </trkpt>
      <trkpt lat="43.17603" lon="6.60452">
        <ele>55.5</ele>
        <time>2012-12-09T09:01:54Z</time>
      </trkpt>
      <trkpt lat="43.17608" lon="6.60452">
        <ele>52.8</ele>
        <time>2012-12-09T09:01:49Z</time>
      </trkpt>
      <trkpt lat="43.17613" lon="6.60451">
        <ele>52.8</ele>
        <time>2012-12-09T09:01:45Z</time>
      </trkpt>
      <trkpt lat="43.17618" lon="6.6045">
        <ele>51.5</ele>
        <time>2012-12-09T09:01:41Z</time>
      </trkpt>
      <trkpt lat="43.17623" lon="6.60449">
        <ele>52.5</ele>
        <time>2012-12-09T09:01:37Z</time>
      </trkpt>
      <trkpt lat="43.17628" lon="6.60448">
        <ele>49.8</ele>
        <time>2012-12-09T09:01:32Z</time>
      </trkpt>
      <trkpt lat="43.17632" lon="6.60451">
        <ele>49.5</ele>
        <time>2012-12-09T09:01:27Z</time>
      </trkpt>
      <trkpt lat="43.17638" lon="6.60452">
        <ele>50.3</ele>
        <time>2012-12-09T09:01:22Z</time>
      </trkpt>
      <trkpt lat="43.17642" lon="6.60454">
        <ele>49.2</ele>
        <time>2012-12-09T09:01:18Z</time>
      </trkpt>
      <trkpt lat="43.17648" lon="6.60454">
        <ele>50.4</ele>
        <time>2012-12-09T09:01:14Z</time>
      </trkpt>
      <trkpt lat="43.17654" lon="6.60454">
        <ele>51.8</ele>
        <time>2012-12-09T09:01:09Z</time>
      </trkpt>
      <trkpt lat="43.17658" lon="6.60458">
        <ele>44.4</ele>
        <time>2012-12-09T09:00:24Z</time>
      </trkpt>
      <trkpt lat="43.17662" lon="6.60456">
        <ele>44.9</ele>
        <time>2012-12-09T09:00:20Z</time>
      </trkpt>
      <trkpt lat="43.17665" lon="6.60451">
        <ele>46.1</ele>
        <time>2012-12-09T09:00:16Z</time>
      </trkpt>
      <trkpt lat="43.17669" lon="6.60446">
        <ele>46.1</ele>
        <time>2012-12-09T09:00:12Z</time>
      </trkpt>
      <trkpt lat="43.17673" lon="6.60445">
        <ele>50.5</ele>
        <time>2012-12-09T09:00:06Z</time>
      </trkpt>
      <trkpt lat="43.17679" lon="6.60445">
        <ele>52.4</ele>
        <time>2012-12-09T09:00:00Z</time>
      </trkpt>
      <trkpt lat="43.17682" lon="6.6044">
        <ele>53.4</ele>
        <time>2012-12-09T08:59:57Z</time>
      </trkpt>
      <trkpt lat="43.17685" lon="6.60435">
        <ele>54.4</ele>
        <time>2012-12-09T08:59:53Z</time>
      </trkpt>
      <trkpt lat="43.17688" lon="6.60429">
        <ele>54.4</ele>
        <time>2012-12-09T08:59:49Z</time>
      </trkpt>
      <trkpt lat="43.1769" lon="6.60424">
        <ele>55.7</ele>
        <time>2012-12-09T08:59:46Z</time>
      </trkpt>
      <trkpt lat="43.17694" lon="6.60418">
        <ele>56.3</ele>
        <time>2012-12-09T08:59:42Z</time>
      </trkpt>
      <trkpt lat="43.17698" lon="6.60414">
        <ele>56.2</ele>
        <time>2012-12-09T08:59:37Z</time>
      </trkpt>
      <trkpt lat="43.17702" lon="6.60412">
        <ele>57.2</ele>
        <time>2012-12-09T08:59:33Z</time>
      </trkpt>
      <trkpt lat="43.17707" lon="6.60409">
        <ele>59.6</ele>
        <time>2012-12-09T08:59:29Z</time>
      </trkpt>
      <trkpt lat="43.17711" lon="6.60407">
        <ele>59.1</ele>
        <time>2012-12-09T08:59:25Z</time>
      </trkpt>
      <trkpt lat="43.17716" lon="6.60409">
        <ele>58.4</ele>
        <time>2012-12-09T08:59:21Z</time>
      </trkpt>
      <trkpt lat="43.17721" lon="6.60412">
        <ele>58.5</ele>
        <time>2012-12-09T08:59:17Z</time>
      </trkpt>
      <trkpt lat="43.17725" lon="6.60416">
        <ele>59.9</ele>
        <time>2012-12-09T08:59:13Z</time>
      </trkpt>
      <trkpt lat="43.1773" lon="6.60419">
        <ele>59.7</ele>
        <time>2012-12-09T08:59:09Z</time>
      </trkpt>
      <trkpt lat="43.17734" lon="6.60424">
        <ele>60.3</ele>
        <time>2012-12-09T08:59:05Z</time>
      </trkpt>
      <trkpt lat="43.1774" lon="6.60426">
        <ele>57.6</ele>
        <time>2012-12-09T08:59:00Z</time>
      </trkpt>
      <trkpt lat="43.17745" lon="6.60425">
        <ele>54.8</ele>
        <time>2012-12-09T08:58:56Z</time>
      </trkpt>
      <trkpt lat="43.1775" lon="6.60422">
        <ele>54.1</ele>
        <time>2012-12-09T08:58:52Z</time>
      </trkpt>
      <trkpt lat="43.17753" lon="6.60416">
        <ele>56.1</ele>
        <time>2012-12-09T08:58:48Z</time>
      </trkpt>
      <trkpt lat="43.17755" lon="6.6041">
        <ele>58.1</ele>
        <time>2012-12-09T08:58:44Z</time>
      </trkpt>
      <trkpt lat="43.17759" lon="6.60406">
        <ele>60.6</ele>
        <time>2012-12-09T08:58:35Z</time>
      </trkpt>
      <trkpt lat="43.17763" lon="6.60402">
        <ele>59.6</ele>
        <time>2012-12-09T08:58:17Z</time>
      </trkpt>
      <trkpt lat="43.17767" lon="6.60398">
        <ele>63.6</ele>
        <time>2012-12-09T08:58:11Z</time>
      </trkpt>
      <trkpt lat="43.17771" lon="6.60395">
        <ele>64.9</ele>
        <time>2012-12-09T08:58:06Z</time>
      </trkpt>
      <trkpt lat="43.17776" lon="6.60392">
        <ele>64.8</ele>
        <time>2012-12-09T08:58:01Z</time>
      </trkpt>
      <trkpt lat="43.1778" lon="6.6039">
        <ele>61.4</ele>
        <time>2012-12-09T08:57:55Z</time>
      </trkpt>
      <trkpt lat="43.17784" lon="6.60386">
        <ele>60.6</ele>
        <time>2012-12-09T08:57:51Z</time>
      </trkpt>
      <trkpt lat="43.17789" lon="6.60384">
        <ele>60.1</ele>
        <time>2012-12-09T08:57:47Z</time>
      </trkpt>
      <trkpt lat="43.17794" lon="6.60382">
        <ele>61.3</ele>
        <time>2012-12-09T08:57:43Z</time>
      </trkpt>
      <trkpt lat="43.17799" lon="6.60381">
        <ele>62.3</ele>
        <time>2012-12-09T08:57:39Z</time>
      </trkpt>
      <trkpt lat="43.17804" lon="6.6038">
        <ele>63.8</ele>
        <time>2012-12-09T08:57:35Z</time>
      </trkpt>
      <trkpt lat="43.17809" lon="6.6038">
        <ele>64.5</ele>
        <time>2012-12-09T08:57:31Z</time>
      </trkpt>
      <trkpt lat="43.17815" lon="6.60378">
        <ele>65.6</ele>
        <time>2012-12-09T08:57:27Z</time>
      </trkpt>
      <trkpt lat="43.1782" lon="6.60379">
        <ele>66.8</ele>
        <time>2012-12-09T08:57:23Z</time>
      </trkpt>
      <trkpt lat="43.17824" lon="6.60378">
        <ele>69</ele>
        <time>2012-12-09T08:57:18Z</time>
      </trkpt>
      <trkpt lat="43.17829" lon="6.60378">
        <ele>68.3</ele>
        <time>2012-12-09T08:57:13Z</time>
      </trkpt>
      <trkpt lat="43.17834" lon="6.6038">
        <ele>67.3</ele>
        <time>2012-12-09T08:57:09Z</time>
      </trkpt>
      <trkpt lat="43.17839" lon="6.6038">
        <ele>67.3</ele>
        <time>2012-12-09T08:57:05Z</time>
      </trkpt>
      <trkpt lat="43.17842" lon="6.60375">
        <ele>67.9</ele>
        <time>2012-12-09T08:57:01Z</time>
      </trkpt>
      <trkpt lat="43.17846" lon="6.6037">
        <ele>68.8</ele>
        <time>2012-12-09T08:56:56Z</time>
      </trkpt>
      <trkpt lat="43.17848" lon="6.60365">
        <ele>68.1</ele>
        <time>2012-12-09T08:56:51Z</time>
      </trkpt>
      <trkpt lat="43.17851" lon="6.6036">
        <ele>68.6</ele>
        <time>2012-12-09T08:56:47Z</time>
      </trkpt>
      <trkpt lat="43.17852" lon="6.60354">
        <ele>68</ele>
        <time>2012-12-09T08:56:44Z</time>
      </trkpt>
      <trkpt lat="43.17854" lon="6.60347">
        <ele>68</ele>
        <time>2012-12-09T08:56:40Z</time>
      </trkpt>
      <trkpt lat="43.17858" lon="6.60343">
        <ele>67.2</ele>
        <time>2012-12-09T08:56:36Z</time>
      </trkpt>
      <trkpt lat="43.17861" lon="6.60339">
        <ele>65.4</ele>
        <time>2012-12-09T08:56:32Z</time>
      </trkpt>
      <trkpt lat="43.17866" lon="6.60336">
        <ele>67.8</ele>
        <time>2012-12-09T08:56:27Z</time>
      </trkpt>
      <trkpt lat="43.17871" lon="6.60334">
        <ele>67.9</ele>
        <time>2012-12-09T08:56:22Z</time>
      </trkpt>
      <trkpt lat="43.17876" lon="6.60334">
        <ele>68.1</ele>
        <time>2012-12-09T08:56:18Z</time>
      </trkpt>
      <trkpt lat="43.17881" lon="6.60331">
        <ele>67.1</ele>
        <time>2012-12-09T08:56:13Z</time>
      </trkpt>
      <trkpt lat="43.17885" lon="6.60328">
        <ele>66</ele>
        <time>2012-12-09T08:56:09Z</time>
      </trkpt>
      <trkpt lat="43.1789" lon="6.60324">
        <ele>65.6</ele>
        <time>2012-12-09T08:56:03Z</time>
      </trkpt>
      <trkpt lat="43.17891" lon="6.60318">
        <ele>62.9</ele>
        <time>2012-12-09T08:55:58Z</time>
      </trkpt>
      <trkpt lat="43.17894" lon="6.60312">
        <ele>63.3</ele>
        <time>2012-12-09T08:55:54Z</time>
      </trkpt>
      <trkpt lat="43.17896" lon="6.60306">
        <ele>62</ele>
        <time>2012-12-09T08:55:49Z</time>
      </trkpt>
      <trkpt lat="43.17899" lon="6.60301">
        <ele>60.7</ele>
        <time>2012-12-09T08:55:45Z</time>
      </trkpt>
      <trkpt lat="43.17902" lon="6.60296">
        <ele>60.6</ele>
        <time>2012-12-09T08:55:41Z</time>
      </trkpt>
      <trkpt lat="43.17906" lon="6.60293">
        <ele>58.9</ele>
        <time>2012-12-09T08:55:36Z</time>
      </trkpt>
      <trkpt lat="43.1791" lon="6.60297">
        <ele>59.2</ele>
        <time>2012-12-09T08:55:31Z</time>
      </trkpt>
      <trkpt lat="43.17914" lon="6.60299">
        <ele>57.2</ele>
        <time>2012-12-09T08:55:25Z</time>
      </trkpt>
      <trkpt lat="43.17919" lon="6.60299">
        <ele>58.5</ele>
        <time>2012-12-09T08:55:21Z</time>
      </trkpt>
      <trkpt lat="43.17922" lon="6.60294">
        <ele>55.5</ele>
        <time>2012-12-09T08:55:16Z</time>
      </trkpt>
      <trkpt lat="43.17928" lon="6.60294">
        <ele>54.2</ele>
        <time>2012-12-09T08:55:12Z</time>
      </trkpt>
      <trkpt lat="43.17933" lon="6.60294">
        <ele>53.4</ele>
        <time>2012-12-09T08:55:08Z</time>
      </trkpt>
      <trkpt lat="43.17939" lon="6.60292">
        <ele>53.8</ele>
        <time>2012-12-09T08:55:04Z</time>
      </trkpt>
      <trkpt lat="43.17944" lon="6.6029">
        <ele>55.7</ele>
        <time>2012-12-09T08:55:00Z</time>
      </trkpt>
      <trkpt lat="43.17949" lon="6.6029">
        <ele>56.4</ele>
        <time>2012-12-09T08:54:56Z</time>
      </trkpt>
      <trkpt lat="43.17954" lon="6.6029">
        <ele>58</ele>
        <time>2012-12-09T08:54:52Z</time>
      </trkpt>
      <trkpt lat="43.1796" lon="6.60291">
        <ele>58.1</ele>
        <time>2012-12-09T08:54:48Z</time>
      </trkpt>
      <trkpt lat="43.17964" lon="6.60289">
        <ele>57.3</ele>
        <time>2012-12-09T08:54:44Z</time>
      </trkpt>
      <trkpt lat="43.1797" lon="6.60288">
        <ele>56.5</ele>
        <time>2012-12-09T08:54:40Z</time>
      </trkpt>
      <trkpt lat="43.17975" lon="6.60288">
        <ele>58.4</ele>
        <time>2012-12-09T08:54:36Z</time>
      </trkpt>
      <trkpt lat="43.1798" lon="6.60286">
        <ele>58.8</ele>
        <time>2012-12-09T08:54:31Z</time>
      </trkpt>
      <trkpt lat="43.17983" lon="6.60281">
        <ele>58.4</ele>
        <time>2012-12-09T08:54:25Z</time>
      </trkpt>
      <trkpt lat="43.17988" lon="6.60283">
        <ele>57.4</ele>
        <time>2012-12-09T08:54:21Z</time>
      </trkpt>
      <trkpt lat="43.17993" lon="6.60285">
        <ele>58.4</ele>
        <time>2012-12-09T08:54:17Z</time>
      </trkpt>
      <trkpt lat="43.17998" lon="6.60285">
        <ele>58.1</ele>
        <time>2012-12-09T08:54:13Z</time>
      </trkpt>
      <trkpt lat="43.18002" lon="6.60287">
        <ele>58.2</ele>
        <time>2012-12-09T08:54:09Z</time>
      </trkpt>
      <trkpt lat="43.18007" lon="6.60289">
        <ele>59.9</ele>
        <time>2012-12-09T08:54:05Z</time>
      </trkpt>
      <trkpt lat="43.18011" lon="6.60292">
        <ele>57.7</ele>
        <time>2012-12-09T08:54:01Z</time>
      </trkpt>
      <trkpt lat="43.18014" lon="6.60297">
        <ele>57.4</ele>
        <time>2012-12-09T08:53:57Z</time>
      </trkpt>
      <trkpt lat="43.18018" lon="6.60304">
        <ele>55.4</ele>
        <time>2012-12-09T08:53:50Z</time>
      </trkpt>
      <trkpt lat="43.18023" lon="6.60304">
        <ele>54.1</ele>
        <time>2012-12-09T08:53:43Z</time>
      </trkpt>
      <trkpt lat="43.18027" lon="6.60304">
        <ele>54.5</ele>
        <time>2012-12-09T08:53:39Z</time>
      </trkpt>
      <trkpt lat="43.18033" lon="6.60303">
        <ele>54.3</ele>
        <time>2012-12-09T08:53:34Z</time>
      </trkpt>
      <trkpt lat="43.18037" lon="6.60305">
        <ele>51.7</ele>
        <time>2012-12-09T08:53:29Z</time>
      </trkpt>
      <trkpt lat="43.18042" lon="6.60308">
        <ele>52.5</ele>
        <time>2012-12-09T08:53:24Z</time>
      </trkpt>
      <trkpt lat="43.18046" lon="6.60311">
        <ele>51.5</ele>
        <time>2012-12-09T08:53:20Z</time>
      </trkpt>
      <trkpt lat="43.18051" lon="6.60313">
        <ele>50.6</ele>
        <time>2012-12-09T08:53:14Z</time>
      </trkpt>
      <trkpt lat="43.18054" lon="6.60308">
        <ele>48.4</ele>
        <time>2012-12-09T08:53:07Z</time>
      </trkpt>
      <trkpt lat="43.18057" lon="6.60302">
        <ele>46.3</ele>
        <time>2012-12-09T08:52:41Z</time>
      </trkpt>
      <trkpt lat="43.1806" lon="6.60297">
        <ele>44.6</ele>
        <time>2012-12-09T08:52:36Z</time>
      </trkpt>
      <trkpt lat="43.18066" lon="6.60296">
        <ele>44.6</ele>
        <time>2012-12-09T08:52:30Z</time>
      </trkpt>
      <trkpt lat="43.18071" lon="6.60296">
        <ele>44.5</ele>
        <time>2012-12-09T08:52:26Z</time>
      </trkpt>
      <trkpt lat="43.18075" lon="6.60295">
        <ele>45.5</ele>
        <time>2012-12-09T08:52:22Z</time>
      </trkpt>
      <trkpt lat="43.1808" lon="6.60292">
        <ele>46.4</ele>
        <time>2012-12-09T08:52:17Z</time>
      </trkpt>
      <trkpt lat="43.18083" lon="6.60287">
        <ele>47.7</ele>
        <time>2012-12-09T08:52:12Z</time>
      </trkpt>
      <trkpt lat="43.18087" lon="6.60283">
        <ele>46.8</ele>
        <time>2012-12-09T08:52:07Z</time>
      </trkpt>
      <trkpt lat="43.18092" lon="6.6028">
        <ele>45.3</ele>
        <time>2012-12-09T08:52:03Z</time>
      </trkpt>
      <trkpt lat="43.18098" lon="6.60279">
        <ele>44.1</ele>
        <time>2012-12-09T08:51:59Z</time>
      </trkpt>
      <trkpt lat="43.18103" lon="6.60279">
        <ele>42.6</ele>
        <time>2012-12-09T08:51:55Z</time>
      </trkpt>
      <trkpt lat="43.18107" lon="6.60276">
        <ele>42.6</ele>
        <time>2012-12-09T08:51:51Z</time>
      </trkpt>
      <trkpt lat="43.1811" lon="6.6027">
        <ele>42.5</ele>
        <time>2012-12-09T08:51:47Z</time>
      </trkpt>
      <trkpt lat="43.18114" lon="6.60265">
        <ele>42.8</ele>
        <time>2012-12-09T08:51:42Z</time>
      </trkpt>
      <trkpt lat="43.18121" lon="6.60262">
        <ele>43.8</ele>
        <time>2012-12-09T08:51:37Z</time>
      </trkpt>
      <trkpt lat="43.18126" lon="6.60261">
        <ele>44.6</ele>
        <time>2012-12-09T08:51:33Z</time>
      </trkpt>
      <trkpt lat="43.1813" lon="6.60259">
        <ele>43.7</ele>
        <time>2012-12-09T08:51:28Z</time>
      </trkpt>
      <trkpt lat="43.18135" lon="6.60256">
        <ele>44.1</ele>
        <time>2012-12-09T08:51:24Z</time>
      </trkpt>
      <trkpt lat="43.1814" lon="6.60251">
        <ele>46.2</ele>
        <time>2012-12-09T08:51:20Z</time>
      </trkpt>
      <trkpt lat="43.18143" lon="6.60246">
        <ele>46.6</ele>
        <time>2012-12-09T08:51:15Z</time>
      </trkpt>
      <trkpt lat="43.18146" lon="6.60241">
        <ele>49.3</ele>
        <time>2012-12-09T08:51:08Z</time>
      </trkpt>
      <trkpt lat="43.1815" lon="6.60238">
        <ele>48.2</ele>
        <time>2012-12-09T08:51:02Z</time>
      </trkpt>
      <trkpt lat="43.18155" lon="6.60238">
        <ele>49.5</ele>
        <time>2012-12-09T08:50:58Z</time>
      </trkpt>
      <trkpt lat="43.1816" lon="6.6024">
        <ele>49.3</ele>
        <time>2012-12-09T08:50:54Z</time>
      </trkpt>
      <trkpt lat="43.18164" lon="6.60243">
        <ele>50.1</ele>
        <time>2012-12-09T08:50:50Z</time>
      </trkpt>
      <trkpt lat="43.18168" lon="6.60248">
        <ele>50.8</ele>
        <time>2012-12-09T08:50:46Z</time>
      </trkpt>
      <trkpt lat="43.18172" lon="6.60251">
        <ele>51.3</ele>
        <time>2012-12-09T08:50:41Z</time>
      </trkpt>
      <trkpt lat="43.18178" lon="6.60252">
        <ele>49.6</ele>
        <time>2012-12-09T08:50:37Z</time>
      </trkpt>
      <trkpt lat="43.18181" lon="6.60248">
        <ele>51.6</ele>
        <time>2012-12-09T08:50:33Z</time>
      </trkpt>
      <trkpt lat="43.18183" lon="6.60242">
        <ele>50.6</ele>
        <time>2012-12-09T08:50:29Z</time>
      </trkpt>
      <trkpt lat="43.18187" lon="6.60237">
        <ele>51.3</ele>
        <time>2012-12-09T08:50:25Z</time>
      </trkpt>
      <trkpt lat="43.18191" lon="6.60233">
        <ele>40.1</ele>
        <time>2012-12-09T08:49:14Z</time>
      </trkpt>
    </trkseg>
  </trk>
</gpx>